<?xml version="1.0" encoding="UTF-8" standalone="no" ?>
<gpx xmlns="http://www.topografix.com/GPX/1/1" xmlns:xsi="http://www.w3.org/2001/XMLSchema-instance" xsi:schemaLocation="http://www.topografix.com/GPX/1/1 http://www.topografix.com/GPX/1/1/gpx.xsd" version="1.1" creator="VisuGPX - https://www.visugpx.com">
  <metadata>
    <name>14157970-belfort wissembourg rando cents cols en vosges</name>
  </metadata>
  <trk>
    <name><![CDATA[14157970-belfort wissembourg rando cents cols en vosges]]></name>
    <trkseg>
      <trkpt lat="47.63405" lon="6.85461">
        <ele>359</ele>
        <time>2022-02-07T19:29:22Z</time>
      </trkpt>
      <trkpt lat="47.63411" lon="6.85591">
        <ele>359</ele>
        <time>2022-02-07T19:29:38Z</time>
      </trkpt>
      <trkpt lat="47.63407" lon="6.85731">
        <ele>359</ele>
        <time>2022-02-07T19:29:54Z</time>
      </trkpt>
      <trkpt lat="47.63409" lon="6.85994">
        <ele>361</ele>
        <time>2022-02-07T19:30:26Z</time>
      </trkpt>
      <trkpt lat="47.63412" lon="6.8604">
        <ele>360</ele>
        <time>2022-02-07T19:30:32Z</time>
      </trkpt>
      <trkpt lat="47.63282" lon="6.86122">
        <ele>359</ele>
        <time>2022-02-07T19:30:57Z</time>
      </trkpt>
      <trkpt lat="47.63282" lon="6.86129">
        <ele>359</ele>
        <time>2022-02-07T19:30:57Z</time>
      </trkpt>
      <trkpt lat="47.63254" lon="6.86147">
        <ele>358</ele>
        <time>2022-02-07T19:31:03Z</time>
      </trkpt>
      <trkpt lat="47.63226" lon="6.86158">
        <ele>358</ele>
        <time>2022-02-07T19:31:08Z</time>
      </trkpt>
      <trkpt lat="47.63127" lon="6.8621">
        <ele>355</ele>
        <time>2022-02-07T19:31:27Z</time>
      </trkpt>
      <trkpt lat="47.63093" lon="6.86231">
        <ele>355</ele>
        <time>2022-02-07T19:31:33Z</time>
      </trkpt>
      <trkpt lat="47.62981" lon="6.86265">
        <ele>355</ele>
        <time>2022-02-07T19:31:54Z</time>
      </trkpt>
      <trkpt lat="47.62873" lon="6.86279">
        <ele>356</ele>
        <time>2022-02-07T19:32:13Z</time>
      </trkpt>
      <trkpt lat="47.62862" lon="6.86278">
        <ele>356</ele>
        <time>2022-02-07T19:32:15Z</time>
      </trkpt>
      <trkpt lat="47.62863" lon="6.86434">
        <ele>358</ele>
        <time>2022-02-07T19:32:34Z</time>
      </trkpt>
      <trkpt lat="47.62853" lon="6.86435">
        <ele>358</ele>
        <time>2022-02-07T19:32:35Z</time>
      </trkpt>
      <trkpt lat="47.62841" lon="6.86455">
        <ele>360</ele>
        <time>2022-02-07T19:32:39Z</time>
      </trkpt>
      <trkpt lat="47.62832" lon="6.86461">
        <ele>361</ele>
        <time>2022-02-07T19:32:40Z</time>
      </trkpt>
      <trkpt lat="47.62816" lon="6.86462">
        <ele>361</ele>
        <time>2022-02-07T19:32:43Z</time>
      </trkpt>
      <trkpt lat="47.62769" lon="6.8645">
        <ele>360</ele>
        <time>2022-02-07T19:32:52Z</time>
      </trkpt>
      <trkpt lat="47.62724" lon="6.86418">
        <ele>358</ele>
        <time>2022-02-07T19:33:01Z</time>
      </trkpt>
      <trkpt lat="47.62707" lon="6.86402">
        <ele>359</ele>
        <time>2022-02-07T19:33:04Z</time>
      </trkpt>
      <trkpt lat="47.62654" lon="6.86335">
        <ele>355</ele>
        <time>2022-02-07T19:33:17Z</time>
      </trkpt>
      <trkpt lat="47.6264" lon="6.86322">
        <ele>355</ele>
        <time>2022-02-07T19:33:19Z</time>
      </trkpt>
      <trkpt lat="47.62622" lon="6.86309">
        <ele>355</ele>
        <time>2022-02-07T19:33:23Z</time>
      </trkpt>
      <trkpt lat="47.62597" lon="6.86297">
        <ele>355</ele>
        <time>2022-02-07T19:33:28Z</time>
      </trkpt>
      <trkpt lat="47.62573" lon="6.8629">
        <ele>355</ele>
        <time>2022-02-07T19:33:32Z</time>
      </trkpt>
      <trkpt lat="47.62542" lon="6.86296">
        <ele>355</ele>
        <time>2022-02-07T19:33:38Z</time>
      </trkpt>
      <trkpt lat="47.62517" lon="6.86305">
        <ele>355</ele>
        <time>2022-02-07T19:33:42Z</time>
      </trkpt>
      <trkpt lat="47.62487" lon="6.86321">
        <ele>355</ele>
        <time>2022-02-07T19:33:48Z</time>
      </trkpt>
      <trkpt lat="47.62447" lon="6.86337">
        <ele>354</ele>
        <time>2022-02-07T19:33:55Z</time>
      </trkpt>
      <trkpt lat="47.62425" lon="6.86341">
        <ele>354</ele>
        <time>2022-02-07T19:33:59Z</time>
      </trkpt>
      <trkpt lat="47.62397" lon="6.8634">
        <ele>354</ele>
        <time>2022-02-07T19:34:04Z</time>
      </trkpt>
      <trkpt lat="47.62366" lon="6.86329">
        <ele>353</ele>
        <time>2022-02-07T19:34:10Z</time>
      </trkpt>
      <trkpt lat="47.6229" lon="6.86284">
        <ele>354</ele>
        <time>2022-02-07T19:34:24Z</time>
      </trkpt>
      <trkpt lat="47.62289" lon="6.86291">
        <ele>354</ele>
        <time>2022-02-07T19:34:25Z</time>
      </trkpt>
      <trkpt lat="47.62225" lon="6.86263">
        <ele>354</ele>
        <time>2022-02-07T19:34:37Z</time>
      </trkpt>
      <trkpt lat="47.6221" lon="6.86259">
        <ele>354</ele>
        <time>2022-02-07T19:34:40Z</time>
      </trkpt>
      <trkpt lat="47.622" lon="6.8626">
        <ele>354</ele>
        <time>2022-02-07T19:34:42Z</time>
      </trkpt>
      <trkpt lat="47.62197" lon="6.86262">
        <ele>354</ele>
        <time>2022-02-07T19:34:42Z</time>
      </trkpt>
      <trkpt lat="47.62165" lon="6.86336">
        <ele>354</ele>
        <time>2022-02-07T19:34:53Z</time>
      </trkpt>
      <trkpt lat="47.62123" lon="6.86449">
        <ele>353</ele>
        <time>2022-02-07T19:35:08Z</time>
      </trkpt>
      <trkpt lat="47.62082" lon="6.8657">
        <ele>356</ele>
        <time>2022-02-07T19:35:24Z</time>
      </trkpt>
      <trkpt lat="47.62064" lon="6.86612">
        <ele>357</ele>
        <time>2022-02-07T19:35:30Z</time>
      </trkpt>
      <trkpt lat="47.62049" lon="6.86628">
        <ele>356</ele>
        <time>2022-02-07T19:35:34Z</time>
      </trkpt>
      <trkpt lat="47.62016" lon="6.86653">
        <ele>354</ele>
        <time>2022-02-07T19:35:40Z</time>
      </trkpt>
      <trkpt lat="47.61989" lon="6.86668">
        <ele>353</ele>
        <time>2022-02-07T19:35:45Z</time>
      </trkpt>
      <trkpt lat="47.6192" lon="6.86699">
        <ele>354</ele>
        <time>2022-02-07T19:35:58Z</time>
      </trkpt>
      <trkpt lat="47.6193" lon="6.86732">
        <ele>355</ele>
        <time>2022-02-07T19:36:03Z</time>
      </trkpt>
      <trkpt lat="47.6195" lon="6.86778">
        <ele>356</ele>
        <time>2022-02-07T19:36:09Z</time>
      </trkpt>
      <trkpt lat="47.61951" lon="6.86793">
        <ele>357</ele>
        <time>2022-02-07T19:36:11Z</time>
      </trkpt>
      <trkpt lat="47.61948" lon="6.86805">
        <ele>357</ele>
        <time>2022-02-07T19:36:13Z</time>
      </trkpt>
      <trkpt lat="47.61904" lon="6.8689">
        <ele>358</ele>
        <time>2022-02-07T19:36:25Z</time>
      </trkpt>
      <trkpt lat="47.61901" lon="6.86902">
        <ele>358</ele>
        <time>2022-02-07T19:36:27Z</time>
      </trkpt>
      <trkpt lat="47.61902" lon="6.86913">
        <ele>359</ele>
        <time>2022-02-07T19:36:28Z</time>
      </trkpt>
      <trkpt lat="47.61908" lon="6.86935">
        <ele>360</ele>
        <time>2022-02-07T19:36:31Z</time>
      </trkpt>
      <trkpt lat="47.6193" lon="6.8698">
        <ele>362</ele>
        <time>2022-02-07T19:36:38Z</time>
      </trkpt>
      <trkpt lat="47.61966" lon="6.87084">
        <ele>365</ele>
        <time>2022-02-07T19:36:52Z</time>
      </trkpt>
      <trkpt lat="47.61988" lon="6.87164">
        <ele>364</ele>
        <time>2022-02-07T19:37:02Z</time>
      </trkpt>
      <trkpt lat="47.61996" lon="6.87198">
        <ele>364</ele>
        <time>2022-02-07T19:37:06Z</time>
      </trkpt>
      <trkpt lat="47.62003" lon="6.87248">
        <ele>364</ele>
        <time>2022-02-07T19:37:13Z</time>
      </trkpt>
      <trkpt lat="47.62006" lon="6.87315">
        <ele>365</ele>
        <time>2022-02-07T19:37:21Z</time>
      </trkpt>
      <trkpt lat="47.62014" lon="6.87734">
        <ele>370</ele>
        <time>2022-02-07T19:38:11Z</time>
      </trkpt>
      <trkpt lat="47.6201" lon="6.87934">
        <ele>374</ele>
        <time>2022-02-07T19:38:35Z</time>
      </trkpt>
      <trkpt lat="47.62016" lon="6.88197">
        <ele>383</ele>
        <time>2022-02-07T19:39:06Z</time>
      </trkpt>
      <trkpt lat="47.62024" lon="6.88407">
        <ele>376</ele>
        <time>2022-02-07T19:39:32Z</time>
      </trkpt>
      <trkpt lat="47.62045" lon="6.88567">
        <ele>372</ele>
        <time>2022-02-07T19:39:51Z</time>
      </trkpt>
      <trkpt lat="47.62049" lon="6.88774">
        <ele>374</ele>
        <time>2022-02-07T19:40:16Z</time>
      </trkpt>
      <trkpt lat="47.62066" lon="6.89251">
        <ele>369</ele>
        <time>2022-02-07T19:41:13Z</time>
      </trkpt>
      <trkpt lat="47.62066" lon="6.89282">
        <ele>368</ele>
        <time>2022-02-07T19:41:17Z</time>
      </trkpt>
      <trkpt lat="47.62061" lon="6.89318">
        <ele>368</ele>
        <time>2022-02-07T19:41:21Z</time>
      </trkpt>
      <trkpt lat="47.62036" lon="6.89378">
        <ele>369</ele>
        <time>2022-02-07T19:41:30Z</time>
      </trkpt>
      <trkpt lat="47.62029" lon="6.89409">
        <ele>370</ele>
        <time>2022-02-07T19:41:34Z</time>
      </trkpt>
      <trkpt lat="47.62034" lon="6.89491">
        <ele>366</ele>
        <time>2022-02-07T19:41:44Z</time>
      </trkpt>
      <trkpt lat="47.62033" lon="6.89509">
        <ele>366</ele>
        <time>2022-02-07T19:41:46Z</time>
      </trkpt>
      <trkpt lat="47.62029" lon="6.89522">
        <ele>366</ele>
        <time>2022-02-07T19:41:48Z</time>
      </trkpt>
      <trkpt lat="47.62022" lon="6.89537">
        <ele>367</ele>
        <time>2022-02-07T19:41:50Z</time>
      </trkpt>
      <trkpt lat="47.61955" lon="6.89611">
        <ele>369</ele>
        <time>2022-02-07T19:42:05Z</time>
      </trkpt>
      <trkpt lat="47.61928" lon="6.89627">
        <ele>369</ele>
        <time>2022-02-07T19:42:10Z</time>
      </trkpt>
      <trkpt lat="47.61861" lon="6.89656">
        <ele>366</ele>
        <time>2022-02-07T19:42:22Z</time>
      </trkpt>
      <trkpt lat="47.61843" lon="6.89671">
        <ele>365</ele>
        <time>2022-02-07T19:42:26Z</time>
      </trkpt>
      <trkpt lat="47.61826" lon="6.89696">
        <ele>365</ele>
        <time>2022-02-07T19:42:30Z</time>
      </trkpt>
      <trkpt lat="47.6179" lon="6.89786">
        <ele>370</ele>
        <time>2022-02-07T19:42:43Z</time>
      </trkpt>
      <trkpt lat="47.61777" lon="6.89806">
        <ele>372</ele>
        <time>2022-02-07T19:42:46Z</time>
      </trkpt>
      <trkpt lat="47.61762" lon="6.89821">
        <ele>373</ele>
        <time>2022-02-07T19:42:49Z</time>
      </trkpt>
      <trkpt lat="47.61626" lon="6.89896">
        <ele>377</ele>
        <time>2022-02-07T19:43:15Z</time>
      </trkpt>
      <trkpt lat="47.6161" lon="6.89908">
        <ele>377</ele>
        <time>2022-02-07T19:43:18Z</time>
      </trkpt>
      <trkpt lat="47.61597" lon="6.89923">
        <ele>376</ele>
        <time>2022-02-07T19:43:21Z</time>
      </trkpt>
      <trkpt lat="47.61588" lon="6.8994">
        <ele>376</ele>
        <time>2022-02-07T19:43:24Z</time>
      </trkpt>
      <trkpt lat="47.61576" lon="6.89973">
        <ele>375</ele>
        <time>2022-02-07T19:43:28Z</time>
      </trkpt>
      <trkpt lat="47.61532" lon="6.90108">
        <ele>373</ele>
        <time>2022-02-07T19:43:46Z</time>
      </trkpt>
      <trkpt lat="47.61474" lon="6.90275">
        <ele>377</ele>
        <time>2022-02-07T19:44:09Z</time>
      </trkpt>
      <trkpt lat="47.61453" lon="6.90329">
        <ele>377</ele>
        <time>2022-02-07T19:44:16Z</time>
      </trkpt>
      <trkpt lat="47.61355" lon="6.90557">
        <ele>371</ele>
        <time>2022-02-07T19:44:49Z</time>
      </trkpt>
      <trkpt lat="47.61342" lon="6.9058">
        <ele>371</ele>
        <time>2022-02-07T19:44:52Z</time>
      </trkpt>
      <trkpt lat="47.61279" lon="6.90659">
        <ele>371</ele>
        <time>2022-02-07T19:45:07Z</time>
      </trkpt>
      <trkpt lat="47.61233" lon="6.90724">
        <ele>369</ele>
        <time>2022-02-07T19:45:18Z</time>
      </trkpt>
      <trkpt lat="47.61184" lon="6.9081">
        <ele>366</ele>
        <time>2022-02-07T19:45:32Z</time>
      </trkpt>
      <trkpt lat="47.61159" lon="6.90856">
        <ele>366</ele>
        <time>2022-02-07T19:45:39Z</time>
      </trkpt>
      <trkpt lat="47.61097" lon="6.91002">
        <ele>369</ele>
        <time>2022-02-07T19:46:00Z</time>
      </trkpt>
      <trkpt lat="47.61056" lon="6.91068">
        <ele>368</ele>
        <time>2022-02-07T19:46:10Z</time>
      </trkpt>
      <trkpt lat="47.60993" lon="6.91203">
        <ele>369</ele>
        <time>2022-02-07T19:46:30Z</time>
      </trkpt>
      <trkpt lat="47.60974" lon="6.91237">
        <ele>369</ele>
        <time>2022-02-07T19:46:35Z</time>
      </trkpt>
      <trkpt lat="47.60944" lon="6.91271">
        <ele>369</ele>
        <time>2022-02-07T19:46:42Z</time>
      </trkpt>
      <trkpt lat="47.60919" lon="6.91293">
        <ele>369</ele>
        <time>2022-02-07T19:46:47Z</time>
      </trkpt>
      <trkpt lat="47.60877" lon="6.91337">
        <ele>368</ele>
        <time>2022-02-07T19:46:56Z</time>
      </trkpt>
      <trkpt lat="47.60868" lon="6.9135">
        <ele>368</ele>
        <time>2022-02-07T19:46:59Z</time>
      </trkpt>
      <trkpt lat="47.60786" lon="6.91494">
        <ele>367</ele>
        <time>2022-02-07T19:47:21Z</time>
      </trkpt>
      <trkpt lat="47.60728" lon="6.91607">
        <ele>368</ele>
        <time>2022-02-07T19:47:38Z</time>
      </trkpt>
      <trkpt lat="47.60712" lon="6.91652">
        <ele>368</ele>
        <time>2022-02-07T19:47:44Z</time>
      </trkpt>
      <trkpt lat="47.60707" lon="6.91673">
        <ele>368</ele>
        <time>2022-02-07T19:47:47Z</time>
      </trkpt>
      <trkpt lat="47.607" lon="6.91741">
        <ele>368</ele>
        <time>2022-02-07T19:47:55Z</time>
      </trkpt>
      <trkpt lat="47.60699" lon="6.91803">
        <ele>368</ele>
        <time>2022-02-07T19:48:03Z</time>
      </trkpt>
      <trkpt lat="47.60708" lon="6.91923">
        <ele>367</ele>
        <time>2022-02-07T19:48:17Z</time>
      </trkpt>
      <trkpt lat="47.60708" lon="6.91965">
        <ele>367</ele>
        <time>2022-02-07T19:48:22Z</time>
      </trkpt>
      <trkpt lat="47.60705" lon="6.91986">
        <ele>367</ele>
        <time>2022-02-07T19:48:25Z</time>
      </trkpt>
      <trkpt lat="47.60687" lon="6.92066">
        <ele>366</ele>
        <time>2022-02-07T19:48:35Z</time>
      </trkpt>
      <trkpt lat="47.60667" lon="6.92138">
        <ele>367</ele>
        <time>2022-02-07T19:48:44Z</time>
      </trkpt>
      <trkpt lat="47.6062" lon="6.92288">
        <ele>363</ele>
        <time>2022-02-07T19:49:04Z</time>
      </trkpt>
      <trkpt lat="47.60595" lon="6.92386">
        <ele>361</ele>
        <time>2022-02-07T19:49:17Z</time>
      </trkpt>
      <trkpt lat="47.60579" lon="6.92414">
        <ele>361</ele>
        <time>2022-02-07T19:49:21Z</time>
      </trkpt>
      <trkpt lat="47.60569" lon="6.92422">
        <ele>361</ele>
        <time>2022-02-07T19:49:23Z</time>
      </trkpt>
      <trkpt lat="47.60529" lon="6.92445">
        <ele>360</ele>
        <time>2022-02-07T19:49:31Z</time>
      </trkpt>
      <trkpt lat="47.60515" lon="6.92456">
        <ele>360</ele>
        <time>2022-02-07T19:49:34Z</time>
      </trkpt>
      <trkpt lat="47.60504" lon="6.92469">
        <ele>359</ele>
        <time>2022-02-07T19:49:36Z</time>
      </trkpt>
      <trkpt lat="47.60488" lon="6.92492">
        <ele>360</ele>
        <time>2022-02-07T19:49:40Z</time>
      </trkpt>
      <trkpt lat="47.60443" lon="6.92569">
        <ele>362</ele>
        <time>2022-02-07T19:49:52Z</time>
      </trkpt>
      <trkpt lat="47.6037" lon="6.92678">
        <ele>368</ele>
        <time>2022-02-07T19:50:11Z</time>
      </trkpt>
      <trkpt lat="47.60333" lon="6.92741">
        <ele>370</ele>
        <time>2022-02-07T19:50:21Z</time>
      </trkpt>
      <trkpt lat="47.60322" lon="6.92768">
        <ele>371</ele>
        <time>2022-02-07T19:50:25Z</time>
      </trkpt>
      <trkpt lat="47.60023" lon="6.93741">
        <ele>370</ele>
        <time>2022-02-07T19:52:33Z</time>
      </trkpt>
      <trkpt lat="47.59961" lon="6.93956">
        <ele>368</ele>
        <time>2022-02-07T19:53:01Z</time>
      </trkpt>
      <trkpt lat="47.59768" lon="6.94602">
        <ele>371</ele>
        <time>2022-02-07T19:54:26Z</time>
      </trkpt>
      <trkpt lat="47.59718" lon="6.94755">
        <ele>370</ele>
        <time>2022-02-07T19:54:46Z</time>
      </trkpt>
      <trkpt lat="47.59668" lon="6.94888">
        <ele>365</ele>
        <time>2022-02-07T19:55:04Z</time>
      </trkpt>
      <trkpt lat="47.59648" lon="6.94934">
        <ele>362</ele>
        <time>2022-02-07T19:55:11Z</time>
      </trkpt>
      <trkpt lat="47.59614" lon="6.94984">
        <ele>359</ele>
        <time>2022-02-07T19:55:19Z</time>
      </trkpt>
      <trkpt lat="47.59582" lon="6.95026">
        <ele>356</ele>
        <time>2022-02-07T19:55:27Z</time>
      </trkpt>
      <trkpt lat="47.59434" lon="6.95206">
        <ele>345</ele>
        <time>2022-02-07T19:56:01Z</time>
      </trkpt>
      <trkpt lat="47.59202" lon="6.95497">
        <ele>345</ele>
        <time>2022-02-07T19:56:55Z</time>
      </trkpt>
      <trkpt lat="47.59182" lon="6.95532">
        <ele>345</ele>
        <time>2022-02-07T19:57:01Z</time>
      </trkpt>
      <trkpt lat="47.59172" lon="6.95561">
        <ele>344</ele>
        <time>2022-02-07T19:57:05Z</time>
      </trkpt>
      <trkpt lat="47.59155" lon="6.95621">
        <ele>343</ele>
        <time>2022-02-07T19:57:12Z</time>
      </trkpt>
      <trkpt lat="47.5909" lon="6.95825">
        <ele>339</ele>
        <time>2022-02-07T19:57:39Z</time>
      </trkpt>
      <trkpt lat="47.59074" lon="6.95858">
        <ele>338</ele>
        <time>2022-02-07T19:57:44Z</time>
      </trkpt>
      <trkpt lat="47.59047" lon="6.95895">
        <ele>338</ele>
        <time>2022-02-07T19:57:51Z</time>
      </trkpt>
      <trkpt lat="47.59013" lon="6.95925">
        <ele>338</ele>
        <time>2022-02-07T19:57:58Z</time>
      </trkpt>
      <trkpt lat="47.58934" lon="6.95968">
        <ele>338</ele>
        <time>2022-02-07T19:58:13Z</time>
      </trkpt>
      <trkpt lat="47.58913" lon="6.95974">
        <ele>338</ele>
        <time>2022-02-07T19:58:17Z</time>
      </trkpt>
      <trkpt lat="47.58901" lon="6.95976">
        <ele>338</ele>
        <time>2022-02-07T19:58:19Z</time>
      </trkpt>
      <trkpt lat="47.58878" lon="6.95975">
        <ele>338</ele>
        <time>2022-02-07T19:58:23Z</time>
      </trkpt>
      <trkpt lat="47.58849" lon="6.9597">
        <ele>338</ele>
        <time>2022-02-07T19:58:28Z</time>
      </trkpt>
      <trkpt lat="47.58742" lon="6.95939">
        <ele>337</ele>
        <time>2022-02-07T19:58:48Z</time>
      </trkpt>
      <trkpt lat="47.58724" lon="6.95937">
        <ele>337</ele>
        <time>2022-02-07T19:58:51Z</time>
      </trkpt>
      <trkpt lat="47.58688" lon="6.9594">
        <ele>336</ele>
        <time>2022-02-07T19:58:57Z</time>
      </trkpt>
      <trkpt lat="47.58653" lon="6.95952">
        <ele>336</ele>
        <time>2022-02-07T19:59:04Z</time>
      </trkpt>
      <trkpt lat="47.58599" lon="6.95988">
        <ele>335</ele>
        <time>2022-02-07T19:59:14Z</time>
      </trkpt>
      <trkpt lat="47.58493" lon="6.96157">
        <ele>333</ele>
        <time>2022-02-07T19:59:42Z</time>
      </trkpt>
      <trkpt lat="47.58209" lon="6.96623">
        <ele>334</ele>
        <time>2022-02-07T20:00:57Z</time>
      </trkpt>
      <trkpt lat="47.58244" lon="6.96672">
        <ele>333</ele>
        <time>2022-02-07T20:01:06Z</time>
      </trkpt>
      <trkpt lat="47.58249" lon="6.96673">
        <ele>333</ele>
        <time>2022-02-07T20:01:07Z</time>
      </trkpt>
      <trkpt lat="47.58276" lon="6.96714">
        <ele>333</ele>
        <time>2022-02-07T20:01:13Z</time>
      </trkpt>
      <trkpt lat="47.59248" lon="6.98213">
        <ele>335</ele>
        <time>2022-02-07T20:05:23Z</time>
      </trkpt>
      <trkpt lat="47.5926" lon="6.98229">
        <ele>335</ele>
        <time>2022-02-07T20:05:26Z</time>
      </trkpt>
      <trkpt lat="47.59272" lon="6.98235">
        <ele>334</ele>
        <time>2022-02-07T20:05:28Z</time>
      </trkpt>
      <trkpt lat="47.59278" lon="6.98244">
        <ele>334</ele>
        <time>2022-02-07T20:05:30Z</time>
      </trkpt>
      <trkpt lat="47.59283" lon="6.98258">
        <ele>334</ele>
        <time>2022-02-07T20:05:32Z</time>
      </trkpt>
      <trkpt lat="47.59308" lon="6.98303">
        <ele>334</ele>
        <time>2022-02-07T20:05:39Z</time>
      </trkpt>
      <trkpt lat="47.59423" lon="6.9849">
        <ele>335</ele>
        <time>2022-02-07T20:06:09Z</time>
      </trkpt>
      <trkpt lat="47.5948" lon="6.98578">
        <ele>335</ele>
        <time>2022-02-07T20:06:24Z</time>
      </trkpt>
      <trkpt lat="47.59525" lon="6.9866">
        <ele>335</ele>
        <time>2022-02-07T20:06:36Z</time>
      </trkpt>
      <trkpt lat="47.59554" lon="6.98744">
        <ele>336</ele>
        <time>2022-02-07T20:06:48Z</time>
      </trkpt>
      <trkpt lat="47.59565" lon="6.98792">
        <ele>336</ele>
        <time>2022-02-07T20:06:54Z</time>
      </trkpt>
      <trkpt lat="47.59572" lon="6.98841">
        <ele>336</ele>
        <time>2022-02-07T20:07:00Z</time>
      </trkpt>
      <trkpt lat="47.59578" lon="6.98927">
        <ele>336</ele>
        <time>2022-02-07T20:07:10Z</time>
      </trkpt>
      <trkpt lat="47.59582" lon="6.99096">
        <ele>340</ele>
        <time>2022-02-07T20:07:30Z</time>
      </trkpt>
      <trkpt lat="47.59589" lon="6.9918">
        <ele>340</ele>
        <time>2022-02-07T20:07:40Z</time>
      </trkpt>
      <trkpt lat="47.59612" lon="6.99286">
        <ele>339</ele>
        <time>2022-02-07T20:07:54Z</time>
      </trkpt>
      <trkpt lat="47.59627" lon="6.99334">
        <ele>340</ele>
        <time>2022-02-07T20:08:00Z</time>
      </trkpt>
      <trkpt lat="47.59646" lon="6.99381">
        <ele>339</ele>
        <time>2022-02-07T20:08:07Z</time>
      </trkpt>
      <trkpt lat="47.59693" lon="6.99464">
        <ele>338</ele>
        <time>2022-02-07T20:08:20Z</time>
      </trkpt>
      <trkpt lat="47.5976" lon="6.99543">
        <ele>338</ele>
        <time>2022-02-07T20:08:35Z</time>
      </trkpt>
      <trkpt lat="47.60048" lon="6.99864">
        <ele>336</ele>
        <time>2022-02-07T20:09:39Z</time>
      </trkpt>
      <trkpt lat="47.60076" lon="6.99907">
        <ele>336</ele>
        <time>2022-02-07T20:09:46Z</time>
      </trkpt>
      <trkpt lat="47.60098" lon="6.99946">
        <ele>336</ele>
        <time>2022-02-07T20:09:52Z</time>
      </trkpt>
      <trkpt lat="47.60125" lon="7.00013">
        <ele>337</ele>
        <time>2022-02-07T20:10:02Z</time>
      </trkpt>
      <trkpt lat="47.60135" lon="7.0005">
        <ele>336</ele>
        <time>2022-02-07T20:10:07Z</time>
      </trkpt>
      <trkpt lat="47.6014" lon="7.00083">
        <ele>336</ele>
        <time>2022-02-07T20:10:11Z</time>
      </trkpt>
      <trkpt lat="47.60143" lon="7.00154">
        <ele>338</ele>
        <time>2022-02-07T20:10:19Z</time>
      </trkpt>
      <trkpt lat="47.60136" lon="7.00178">
        <ele>338</ele>
        <time>2022-02-07T20:10:22Z</time>
      </trkpt>
      <trkpt lat="47.60128" lon="7.00222">
        <ele>339</ele>
        <time>2022-02-07T20:10:28Z</time>
      </trkpt>
      <trkpt lat="47.6012" lon="7.00241">
        <ele>340</ele>
        <time>2022-02-07T20:10:30Z</time>
      </trkpt>
      <trkpt lat="47.60099" lon="7.00337">
        <ele>340</ele>
        <time>2022-02-07T20:10:43Z</time>
      </trkpt>
      <trkpt lat="47.60089" lon="7.00413">
        <ele>338</ele>
        <time>2022-02-07T20:10:52Z</time>
      </trkpt>
      <trkpt lat="47.6009" lon="7.00533">
        <ele>340</ele>
        <time>2022-02-07T20:11:06Z</time>
      </trkpt>
      <trkpt lat="47.60095" lon="7.00601">
        <ele>342</ele>
        <time>2022-02-07T20:11:14Z</time>
      </trkpt>
      <trkpt lat="47.60114" lon="7.00707">
        <ele>344</ele>
        <time>2022-02-07T20:11:28Z</time>
      </trkpt>
      <trkpt lat="47.60124" lon="7.00738">
        <ele>345</ele>
        <time>2022-02-07T20:11:32Z</time>
      </trkpt>
      <trkpt lat="47.60194" lon="7.0086">
        <ele>346</ele>
        <time>2022-02-07T20:11:51Z</time>
      </trkpt>
      <trkpt lat="47.60352" lon="7.01097">
        <ele>343</ele>
        <time>2022-02-07T20:12:31Z</time>
      </trkpt>
      <trkpt lat="47.60403" lon="7.01191">
        <ele>342</ele>
        <time>2022-02-07T20:12:45Z</time>
      </trkpt>
      <trkpt lat="47.60859" lon="7.02189">
        <ele>341</ele>
        <time>2022-02-07T20:15:10Z</time>
      </trkpt>
      <trkpt lat="47.60886" lon="7.02236">
        <ele>340</ele>
        <time>2022-02-07T20:15:17Z</time>
      </trkpt>
      <trkpt lat="47.60906" lon="7.0228">
        <ele>340</ele>
        <time>2022-02-07T20:15:24Z</time>
      </trkpt>
      <trkpt lat="47.60935" lon="7.02329">
        <ele>340</ele>
        <time>2022-02-07T20:15:32Z</time>
      </trkpt>
      <trkpt lat="47.6097" lon="7.02378">
        <ele>340</ele>
        <time>2022-02-07T20:15:40Z</time>
      </trkpt>
      <trkpt lat="47.60994" lon="7.02403">
        <ele>340</ele>
        <time>2022-02-07T20:15:45Z</time>
      </trkpt>
      <trkpt lat="47.61018" lon="7.02437">
        <ele>340</ele>
        <time>2022-02-07T20:15:51Z</time>
      </trkpt>
      <trkpt lat="47.61049" lon="7.02471">
        <ele>341</ele>
        <time>2022-02-07T20:15:58Z</time>
      </trkpt>
      <trkpt lat="47.61265" lon="7.0265">
        <ele>342</ele>
        <time>2022-02-07T20:16:42Z</time>
      </trkpt>
      <trkpt lat="47.61302" lon="7.02678">
        <ele>343</ele>
        <time>2022-02-07T20:16:50Z</time>
      </trkpt>
      <trkpt lat="47.61326" lon="7.02703">
        <ele>344</ele>
        <time>2022-02-07T20:16:55Z</time>
      </trkpt>
      <trkpt lat="47.61507" lon="7.02859">
        <ele>346</ele>
        <time>2022-02-07T20:17:32Z</time>
      </trkpt>
      <trkpt lat="47.61554" lon="7.02905">
        <ele>345</ele>
        <time>2022-02-07T20:17:42Z</time>
      </trkpt>
      <trkpt lat="47.61578" lon="7.02939">
        <ele>345</ele>
        <time>2022-02-07T20:17:48Z</time>
      </trkpt>
      <trkpt lat="47.61628" lon="7.03021">
        <ele>344</ele>
        <time>2022-02-07T20:18:01Z</time>
      </trkpt>
      <trkpt lat="47.61662" lon="7.03088">
        <ele>345</ele>
        <time>2022-02-07T20:18:11Z</time>
      </trkpt>
      <trkpt lat="47.62378" lon="7.0438">
        <ele>348</ele>
        <time>2022-02-07T20:21:32Z</time>
      </trkpt>
      <trkpt lat="47.62385" lon="7.04398">
        <ele>348</ele>
        <time>2022-02-07T20:21:34Z</time>
      </trkpt>
      <trkpt lat="47.62387" lon="7.04415">
        <ele>347</ele>
        <time>2022-02-07T20:21:36Z</time>
      </trkpt>
      <trkpt lat="47.62382" lon="7.04435">
        <ele>347</ele>
        <time>2022-02-07T20:21:39Z</time>
      </trkpt>
      <trkpt lat="47.62375" lon="7.04448">
        <ele>347</ele>
        <time>2022-02-07T20:21:41Z</time>
      </trkpt>
      <trkpt lat="47.62316" lon="7.04507">
        <ele>345</ele>
        <time>2022-02-07T20:21:54Z</time>
      </trkpt>
      <trkpt lat="47.6231" lon="7.04518">
        <ele>345</ele>
        <time>2022-02-07T20:21:55Z</time>
      </trkpt>
      <trkpt lat="47.62307" lon="7.04532">
        <ele>344</ele>
        <time>2022-02-07T20:21:57Z</time>
      </trkpt>
      <trkpt lat="47.62308" lon="7.04551">
        <ele>344</ele>
        <time>2022-02-07T20:21:59Z</time>
      </trkpt>
      <trkpt lat="47.62336" lon="7.04652">
        <ele>345</ele>
        <time>2022-02-07T20:22:12Z</time>
      </trkpt>
      <trkpt lat="47.62347" lon="7.04704">
        <ele>346</ele>
        <time>2022-02-07T20:22:19Z</time>
      </trkpt>
      <trkpt lat="47.62422" lon="7.05082">
        <ele>348</ele>
        <time>2022-02-07T20:23:06Z</time>
      </trkpt>
      <trkpt lat="47.62425" lon="7.05109">
        <ele>347</ele>
        <time>2022-02-07T20:23:10Z</time>
      </trkpt>
      <trkpt lat="47.62423" lon="7.05143">
        <ele>347</ele>
        <time>2022-02-07T20:23:14Z</time>
      </trkpt>
      <trkpt lat="47.62415" lon="7.05182">
        <ele>346</ele>
        <time>2022-02-07T20:23:19Z</time>
      </trkpt>
      <trkpt lat="47.62394" lon="7.05259">
        <ele>346</ele>
        <time>2022-02-07T20:23:29Z</time>
      </trkpt>
      <trkpt lat="47.62419" lon="7.05261">
        <ele>345</ele>
        <time>2022-02-07T20:23:33Z</time>
      </trkpt>
      <trkpt lat="47.62441" lon="7.05256">
        <ele>345</ele>
        <time>2022-02-07T20:23:37Z</time>
      </trkpt>
      <trkpt lat="47.62662" lon="7.051">
        <ele>353</ele>
        <time>2022-02-07T20:24:20Z</time>
      </trkpt>
      <trkpt lat="47.62693" lon="7.05093">
        <ele>355</ele>
        <time>2022-02-07T20:24:26Z</time>
      </trkpt>
      <trkpt lat="47.6272" lon="7.05072">
        <ele>355</ele>
        <time>2022-02-07T20:24:31Z</time>
      </trkpt>
      <trkpt lat="47.62747" lon="7.05046">
        <ele>354</ele>
        <time>2022-02-07T20:24:37Z</time>
      </trkpt>
      <trkpt lat="47.62899" lon="7.05316">
        <ele>349</ele>
        <time>2022-02-07T20:25:19Z</time>
      </trkpt>
      <trkpt lat="47.62981" lon="7.05468">
        <ele>347</ele>
        <time>2022-02-07T20:25:43Z</time>
      </trkpt>
      <trkpt lat="47.63011" lon="7.05528">
        <ele>346</ele>
        <time>2022-02-07T20:25:52Z</time>
      </trkpt>
      <trkpt lat="47.63081" lon="7.05654">
        <ele>340</ele>
        <time>2022-02-07T20:26:11Z</time>
      </trkpt>
      <trkpt lat="47.63086" lon="7.0567">
        <ele>340</ele>
        <time>2022-02-07T20:26:13Z</time>
      </trkpt>
      <trkpt lat="47.63098" lon="7.05687">
        <ele>340</ele>
        <time>2022-02-07T20:26:16Z</time>
      </trkpt>
      <trkpt lat="47.63106" lon="7.0569">
        <ele>340</ele>
        <time>2022-02-07T20:26:18Z</time>
      </trkpt>
      <trkpt lat="47.63118" lon="7.057">
        <ele>340</ele>
        <time>2022-02-07T20:26:20Z</time>
      </trkpt>
      <trkpt lat="47.63127" lon="7.05714">
        <ele>340</ele>
        <time>2022-02-07T20:26:23Z</time>
      </trkpt>
      <trkpt lat="47.6314" lon="7.05739">
        <ele>339</ele>
        <time>2022-02-07T20:26:26Z</time>
      </trkpt>
      <trkpt lat="47.63139" lon="7.05758">
        <ele>340</ele>
        <time>2022-02-07T20:26:29Z</time>
      </trkpt>
      <trkpt lat="47.63175" lon="7.05826">
        <ele>338</ele>
        <time>2022-02-07T20:26:39Z</time>
      </trkpt>
      <trkpt lat="47.63183" lon="7.05834">
        <ele>338</ele>
        <time>2022-02-07T20:26:41Z</time>
      </trkpt>
      <trkpt lat="47.63206" lon="7.05876">
        <ele>337</ele>
        <time>2022-02-07T20:26:47Z</time>
      </trkpt>
      <trkpt lat="47.6321" lon="7.05892">
        <ele>337</ele>
        <time>2022-02-07T20:26:49Z</time>
      </trkpt>
      <trkpt lat="47.63224" lon="7.05927">
        <ele>337</ele>
        <time>2022-02-07T20:26:54Z</time>
      </trkpt>
      <trkpt lat="47.63236" lon="7.05984">
        <ele>336</ele>
        <time>2022-02-07T20:27:01Z</time>
      </trkpt>
      <trkpt lat="47.63268" lon="7.06245">
        <ele>329</ele>
        <time>2022-02-07T20:27:33Z</time>
      </trkpt>
      <trkpt lat="47.63278" lon="7.06305">
        <ele>328</ele>
        <time>2022-02-07T20:27:41Z</time>
      </trkpt>
      <trkpt lat="47.63277" lon="7.06323">
        <ele>328</ele>
        <time>2022-02-07T20:27:43Z</time>
      </trkpt>
      <trkpt lat="47.63294" lon="7.06469">
        <ele>329</ele>
        <time>2022-02-07T20:28:00Z</time>
      </trkpt>
      <trkpt lat="47.63299" lon="7.06488">
        <ele>329</ele>
        <time>2022-02-07T20:28:03Z</time>
      </trkpt>
      <trkpt lat="47.63304" lon="7.06553">
        <ele>329</ele>
        <time>2022-02-07T20:28:11Z</time>
      </trkpt>
      <trkpt lat="47.63331" lon="7.06746">
        <ele>325</ele>
        <time>2022-02-07T20:28:34Z</time>
      </trkpt>
      <trkpt lat="47.63331" lon="7.06767">
        <ele>325</ele>
        <time>2022-02-07T20:28:37Z</time>
      </trkpt>
      <trkpt lat="47.63348" lon="7.06913">
        <ele>320</ele>
        <time>2022-02-07T20:28:55Z</time>
      </trkpt>
      <trkpt lat="47.63354" lon="7.06927">
        <ele>320</ele>
        <time>2022-02-07T20:28:57Z</time>
      </trkpt>
      <trkpt lat="47.6336" lon="7.06977">
        <ele>320</ele>
        <time>2022-02-07T20:29:03Z</time>
      </trkpt>
      <trkpt lat="47.63359" lon="7.06992">
        <ele>320</ele>
        <time>2022-02-07T20:29:05Z</time>
      </trkpt>
      <trkpt lat="47.63377" lon="7.07153">
        <ele>319</ele>
        <time>2022-02-07T20:29:24Z</time>
      </trkpt>
      <trkpt lat="47.63379" lon="7.07162">
        <ele>319</ele>
        <time>2022-02-07T20:29:25Z</time>
      </trkpt>
      <trkpt lat="47.63383" lon="7.07166">
        <ele>318</ele>
        <time>2022-02-07T20:29:26Z</time>
      </trkpt>
      <trkpt lat="47.63389" lon="7.07214">
        <ele>318</ele>
        <time>2022-02-07T20:29:32Z</time>
      </trkpt>
      <trkpt lat="47.63389" lon="7.07237">
        <ele>318</ele>
        <time>2022-02-07T20:29:35Z</time>
      </trkpt>
      <trkpt lat="47.63408" lon="7.07401">
        <ele>319</ele>
        <time>2022-02-07T20:29:55Z</time>
      </trkpt>
      <trkpt lat="47.6342" lon="7.07483">
        <ele>317</ele>
        <time>2022-02-07T20:30:05Z</time>
      </trkpt>
      <trkpt lat="47.63424" lon="7.07496">
        <ele>316</ele>
        <time>2022-02-07T20:30:06Z</time>
      </trkpt>
      <trkpt lat="47.6343" lon="7.07548">
        <ele>316</ele>
        <time>2022-02-07T20:30:13Z</time>
      </trkpt>
      <trkpt lat="47.63429" lon="7.07564">
        <ele>316</ele>
        <time>2022-02-07T20:30:15Z</time>
      </trkpt>
      <trkpt lat="47.63478" lon="7.07985">
        <ele>314</ele>
        <time>2022-02-07T20:31:06Z</time>
      </trkpt>
      <trkpt lat="47.63482" lon="7.07995">
        <ele>313</ele>
        <time>2022-02-07T20:31:07Z</time>
      </trkpt>
      <trkpt lat="47.63488" lon="7.08041">
        <ele>313</ele>
        <time>2022-02-07T20:31:13Z</time>
      </trkpt>
      <trkpt lat="47.63488" lon="7.08066">
        <ele>313</ele>
        <time>2022-02-07T20:31:16Z</time>
      </trkpt>
      <trkpt lat="47.63511" lon="7.08275">
        <ele>312</ele>
        <time>2022-02-07T20:31:41Z</time>
      </trkpt>
      <trkpt lat="47.63535" lon="7.08472">
        <ele>309</ele>
        <time>2022-02-07T20:32:05Z</time>
      </trkpt>
      <trkpt lat="47.63542" lon="7.08492">
        <ele>309</ele>
        <time>2022-02-07T20:32:08Z</time>
      </trkpt>
      <trkpt lat="47.63552" lon="7.08612">
        <ele>308</ele>
        <time>2022-02-07T20:32:23Z</time>
      </trkpt>
      <trkpt lat="47.63554" lon="7.08714">
        <ele>308</ele>
        <time>2022-02-07T20:32:35Z</time>
      </trkpt>
      <trkpt lat="47.63546" lon="7.08833">
        <ele>307</ele>
        <time>2022-02-07T20:32:49Z</time>
      </trkpt>
      <trkpt lat="47.63538" lon="7.08886">
        <ele>307</ele>
        <time>2022-02-07T20:32:56Z</time>
      </trkpt>
      <trkpt lat="47.63494" lon="7.09076">
        <ele>306</ele>
        <time>2022-02-07T20:33:20Z</time>
      </trkpt>
      <trkpt lat="47.63491" lon="7.09107">
        <ele>306</ele>
        <time>2022-02-07T20:33:23Z</time>
      </trkpt>
      <trkpt lat="47.63482" lon="7.09145">
        <ele>307</ele>
        <time>2022-02-07T20:33:28Z</time>
      </trkpt>
      <trkpt lat="47.63477" lon="7.0916">
        <ele>307</ele>
        <time>2022-02-07T20:33:30Z</time>
      </trkpt>
      <trkpt lat="47.6347" lon="7.0917">
        <ele>307</ele>
        <time>2022-02-07T20:33:32Z</time>
      </trkpt>
      <trkpt lat="47.63441" lon="7.09267">
        <ele>306</ele>
        <time>2022-02-07T20:33:45Z</time>
      </trkpt>
      <trkpt lat="47.63415" lon="7.09334">
        <ele>307</ele>
        <time>2022-02-07T20:33:54Z</time>
      </trkpt>
      <trkpt lat="47.63211" lon="7.09782">
        <ele>308</ele>
        <time>2022-02-07T20:34:59Z</time>
      </trkpt>
      <trkpt lat="47.63197" lon="7.0982">
        <ele>308</ele>
        <time>2022-02-07T20:35:04Z</time>
      </trkpt>
      <trkpt lat="47.63183" lon="7.09889">
        <ele>308</ele>
        <time>2022-02-07T20:35:13Z</time>
      </trkpt>
      <trkpt lat="47.63179" lon="7.09956">
        <ele>309</ele>
        <time>2022-02-07T20:35:21Z</time>
      </trkpt>
      <trkpt lat="47.6318" lon="7.10022">
        <ele>308</ele>
        <time>2022-02-07T20:35:29Z</time>
      </trkpt>
      <trkpt lat="47.63183" lon="7.10071">
        <ele>308</ele>
        <time>2022-02-07T20:35:35Z</time>
      </trkpt>
      <trkpt lat="47.632" lon="7.10164">
        <ele>307</ele>
        <time>2022-02-07T20:35:46Z</time>
      </trkpt>
      <trkpt lat="47.63235" lon="7.10287">
        <ele>308</ele>
        <time>2022-02-07T20:36:02Z</time>
      </trkpt>
      <trkpt lat="47.63258" lon="7.10354">
        <ele>308</ele>
        <time>2022-02-07T20:36:11Z</time>
      </trkpt>
      <trkpt lat="47.63296" lon="7.10433">
        <ele>306</ele>
        <time>2022-02-07T20:36:23Z</time>
      </trkpt>
      <trkpt lat="47.63314" lon="7.10464">
        <ele>306</ele>
        <time>2022-02-07T20:36:28Z</time>
      </trkpt>
      <trkpt lat="47.63422" lon="7.10641">
        <ele>304</ele>
        <time>2022-02-07T20:36:56Z</time>
      </trkpt>
      <trkpt lat="47.63433" lon="7.1065">
        <ele>304</ele>
        <time>2022-02-07T20:36:59Z</time>
      </trkpt>
      <trkpt lat="47.63459" lon="7.10693">
        <ele>303</ele>
        <time>2022-02-07T20:37:05Z</time>
      </trkpt>
      <trkpt lat="47.63468" lon="7.10718">
        <ele>303</ele>
        <time>2022-02-07T20:37:09Z</time>
      </trkpt>
      <trkpt lat="47.63507" lon="7.10783">
        <ele>303</ele>
        <time>2022-02-07T20:37:19Z</time>
      </trkpt>
      <trkpt lat="47.63538" lon="7.10853">
        <ele>302</ele>
        <time>2022-02-07T20:37:29Z</time>
      </trkpt>
      <trkpt lat="47.63549" lon="7.10884">
        <ele>303</ele>
        <time>2022-02-07T20:37:34Z</time>
      </trkpt>
      <trkpt lat="47.63555" lon="7.10911">
        <ele>303</ele>
        <time>2022-02-07T20:37:37Z</time>
      </trkpt>
      <trkpt lat="47.63563" lon="7.10995">
        <ele>301</ele>
        <time>2022-02-07T20:37:47Z</time>
      </trkpt>
      <trkpt lat="47.63562" lon="7.11144">
        <ele>299</ele>
        <time>2022-02-07T20:38:05Z</time>
      </trkpt>
      <trkpt lat="47.63567" lon="7.11192">
        <ele>299</ele>
        <time>2022-02-07T20:38:11Z</time>
      </trkpt>
      <trkpt lat="47.63567" lon="7.11225">
        <ele>298</ele>
        <time>2022-02-07T20:38:15Z</time>
      </trkpt>
      <trkpt lat="47.63563" lon="7.11239">
        <ele>299</ele>
        <time>2022-02-07T20:38:17Z</time>
      </trkpt>
      <trkpt lat="47.63562" lon="7.11263">
        <ele>299</ele>
        <time>2022-02-07T20:38:19Z</time>
      </trkpt>
      <trkpt lat="47.63561" lon="7.11329">
        <ele>299</ele>
        <time>2022-02-07T20:38:27Z</time>
      </trkpt>
      <trkpt lat="47.63563" lon="7.11378">
        <ele>299</ele>
        <time>2022-02-07T20:38:33Z</time>
      </trkpt>
      <trkpt lat="47.63557" lon="7.11441">
        <ele>299</ele>
        <time>2022-02-07T20:38:41Z</time>
      </trkpt>
      <trkpt lat="47.63557" lon="7.11545">
        <ele>299</ele>
        <time>2022-02-07T20:38:53Z</time>
      </trkpt>
      <trkpt lat="47.6356" lon="7.11558">
        <ele>299</ele>
        <time>2022-02-07T20:38:55Z</time>
      </trkpt>
      <trkpt lat="47.63574" lon="7.11581">
        <ele>299</ele>
        <time>2022-02-07T20:38:59Z</time>
      </trkpt>
      <trkpt lat="47.63717" lon="7.11741">
        <ele>296</ele>
        <time>2022-02-07T20:39:31Z</time>
      </trkpt>
      <trkpt lat="47.63735" lon="7.11768">
        <ele>295</ele>
        <time>2022-02-07T20:39:35Z</time>
      </trkpt>
      <trkpt lat="47.64045" lon="7.12129">
        <ele>294</ele>
        <time>2022-02-07T20:40:45Z</time>
      </trkpt>
      <trkpt lat="47.64097" lon="7.12182">
        <ele>295</ele>
        <time>2022-02-07T20:40:56Z</time>
      </trkpt>
      <trkpt lat="47.64118" lon="7.12219">
        <ele>294</ele>
        <time>2022-02-07T20:41:02Z</time>
      </trkpt>
      <trkpt lat="47.64175" lon="7.12278">
        <ele>292</ele>
        <time>2022-02-07T20:41:15Z</time>
      </trkpt>
      <trkpt lat="47.64557" lon="7.1272">
        <ele>291</ele>
        <time>2022-02-07T20:42:41Z</time>
      </trkpt>
      <trkpt lat="47.6458" lon="7.12743">
        <ele>291</ele>
        <time>2022-02-07T20:42:46Z</time>
      </trkpt>
      <trkpt lat="47.64609" lon="7.12788">
        <ele>291</ele>
        <time>2022-02-07T20:42:53Z</time>
      </trkpt>
      <trkpt lat="47.64645" lon="7.12824">
        <ele>291</ele>
        <time>2022-02-07T20:43:01Z</time>
      </trkpt>
      <trkpt lat="47.64715" lon="7.12914">
        <ele>288</ele>
        <time>2022-02-07T20:43:17Z</time>
      </trkpt>
      <trkpt lat="47.64744" lon="7.12962">
        <ele>289</ele>
        <time>2022-02-07T20:43:25Z</time>
      </trkpt>
      <trkpt lat="47.64791" lon="7.13084">
        <ele>288</ele>
        <time>2022-02-07T20:43:42Z</time>
      </trkpt>
      <trkpt lat="47.64864" lon="7.13467">
        <ele>288</ele>
        <time>2022-02-07T20:44:30Z</time>
      </trkpt>
      <trkpt lat="47.6487" lon="7.13476">
        <ele>287</ele>
        <time>2022-02-07T20:44:31Z</time>
      </trkpt>
      <trkpt lat="47.64877" lon="7.13514">
        <ele>287</ele>
        <time>2022-02-07T20:44:36Z</time>
      </trkpt>
      <trkpt lat="47.64877" lon="7.13527">
        <ele>286</ele>
        <time>2022-02-07T20:44:38Z</time>
      </trkpt>
      <trkpt lat="47.64989" lon="7.14125">
        <ele>285</ele>
        <time>2022-02-07T20:45:52Z</time>
      </trkpt>
      <trkpt lat="47.65102" lon="7.14711">
        <ele>281</ele>
        <time>2022-02-07T20:47:05Z</time>
      </trkpt>
      <trkpt lat="47.65108" lon="7.14732">
        <ele>280</ele>
        <time>2022-02-07T20:47:08Z</time>
      </trkpt>
      <trkpt lat="47.65117" lon="7.14797">
        <ele>280</ele>
        <time>2022-02-07T20:47:16Z</time>
      </trkpt>
      <trkpt lat="47.65274" lon="7.15636">
        <ele>280</ele>
        <time>2022-02-07T20:49:00Z</time>
      </trkpt>
      <trkpt lat="47.65324" lon="7.15883">
        <ele>280</ele>
        <time>2022-02-07T20:49:31Z</time>
      </trkpt>
      <trkpt lat="47.65334" lon="7.15923">
        <ele>279</ele>
        <time>2022-02-07T20:49:36Z</time>
      </trkpt>
      <trkpt lat="47.65335" lon="7.15946">
        <ele>279</ele>
        <time>2022-02-07T20:49:39Z</time>
      </trkpt>
      <trkpt lat="47.65353" lon="7.16017">
        <ele>281</ele>
        <time>2022-02-07T20:49:48Z</time>
      </trkpt>
      <trkpt lat="47.6538" lon="7.16091">
        <ele>283</ele>
        <time>2022-02-07T20:49:58Z</time>
      </trkpt>
      <trkpt lat="47.65669" lon="7.1648">
        <ele>283</ele>
        <time>2022-02-07T20:51:07Z</time>
      </trkpt>
      <trkpt lat="47.65748" lon="7.16594">
        <ele>285</ele>
        <time>2022-02-07T20:51:27Z</time>
      </trkpt>
      <trkpt lat="47.66046" lon="7.1704">
        <ele>277</ele>
        <time>2022-02-07T20:52:42Z</time>
      </trkpt>
      <trkpt lat="47.66345" lon="7.17474">
        <ele>277</ele>
        <time>2022-02-07T20:53:57Z</time>
      </trkpt>
      <trkpt lat="47.66434" lon="7.17623">
        <ele>276</ele>
        <time>2022-02-07T20:54:21Z</time>
      </trkpt>
      <trkpt lat="47.66494" lon="7.17754">
        <ele>274</ele>
        <time>2022-02-07T20:54:40Z</time>
      </trkpt>
      <trkpt lat="47.66522" lon="7.17827">
        <ele>275</ele>
        <time>2022-02-07T20:54:50Z</time>
      </trkpt>
      <trkpt lat="47.66544" lon="7.17895">
        <ele>275</ele>
        <time>2022-02-07T20:54:59Z</time>
      </trkpt>
      <trkpt lat="47.66561" lon="7.17963">
        <ele>274</ele>
        <time>2022-02-07T20:55:07Z</time>
      </trkpt>
      <trkpt lat="47.66605" lon="7.18168">
        <ele>272</ele>
        <time>2022-02-07T20:55:33Z</time>
      </trkpt>
      <trkpt lat="47.66606" lon="7.18213">
        <ele>272</ele>
        <time>2022-02-07T20:55:39Z</time>
      </trkpt>
      <trkpt lat="47.66613" lon="7.18276">
        <ele>273</ele>
        <time>2022-02-07T20:55:46Z</time>
      </trkpt>
      <trkpt lat="47.66617" lon="7.18347">
        <ele>273</ele>
        <time>2022-02-07T20:55:55Z</time>
      </trkpt>
      <trkpt lat="47.66618" lon="7.18402">
        <ele>272</ele>
        <time>2022-02-07T20:56:01Z</time>
      </trkpt>
      <trkpt lat="47.66612" lon="7.18576">
        <ele>271</ele>
        <time>2022-02-07T20:56:22Z</time>
      </trkpt>
      <trkpt lat="47.66591" lon="7.18965">
        <ele>271</ele>
        <time>2022-02-07T20:57:09Z</time>
      </trkpt>
      <trkpt lat="47.66577" lon="7.19175">
        <ele>270</ele>
        <time>2022-02-07T20:57:34Z</time>
      </trkpt>
      <trkpt lat="47.6657" lon="7.19241">
        <ele>270</ele>
        <time>2022-02-07T20:57:42Z</time>
      </trkpt>
      <trkpt lat="47.66547" lon="7.19418">
        <ele>271</ele>
        <time>2022-02-07T20:58:04Z</time>
      </trkpt>
      <trkpt lat="47.66521" lon="7.19594">
        <ele>272</ele>
        <time>2022-02-07T20:58:25Z</time>
      </trkpt>
      <trkpt lat="47.66521" lon="7.19608">
        <ele>271</ele>
        <time>2022-02-07T20:58:27Z</time>
      </trkpt>
      <trkpt lat="47.66514" lon="7.19642">
        <ele>270</ele>
        <time>2022-02-07T20:58:31Z</time>
      </trkpt>
      <trkpt lat="47.66505" lon="7.19665">
        <ele>270</ele>
        <time>2022-02-07T20:58:35Z</time>
      </trkpt>
      <trkpt lat="47.66491" lon="7.19722">
        <ele>269</ele>
        <time>2022-02-07T20:58:42Z</time>
      </trkpt>
      <trkpt lat="47.66382" lon="7.20088">
        <ele>268</ele>
        <time>2022-02-07T20:59:30Z</time>
      </trkpt>
      <trkpt lat="47.66213" lon="7.20563">
        <ele>267</ele>
        <time>2022-02-07T21:00:34Z</time>
      </trkpt>
      <trkpt lat="47.662" lon="7.20582">
        <ele>267</ele>
        <time>2022-02-07T21:00:37Z</time>
      </trkpt>
      <trkpt lat="47.66179" lon="7.20649">
        <ele>266</ele>
        <time>2022-02-07T21:00:46Z</time>
      </trkpt>
      <trkpt lat="47.65996" lon="7.21134">
        <ele>267</ele>
        <time>2022-02-07T21:01:53Z</time>
      </trkpt>
      <trkpt lat="47.65812" lon="7.21639">
        <ele>272</ele>
        <time>2022-02-07T21:03:02Z</time>
      </trkpt>
      <trkpt lat="47.65794" lon="7.21696">
        <ele>274</ele>
        <time>2022-02-07T21:03:09Z</time>
      </trkpt>
      <trkpt lat="47.6578" lon="7.21758">
        <ele>273</ele>
        <time>2022-02-07T21:03:17Z</time>
      </trkpt>
      <trkpt lat="47.65771" lon="7.21819">
        <ele>271</ele>
        <time>2022-02-07T21:03:25Z</time>
      </trkpt>
      <trkpt lat="47.65744" lon="7.2214">
        <ele>268</ele>
        <time>2022-02-07T21:04:03Z</time>
      </trkpt>
      <trkpt lat="47.65745" lon="7.22187">
        <ele>268</ele>
        <time>2022-02-07T21:04:09Z</time>
      </trkpt>
      <trkpt lat="47.6574" lon="7.22245">
        <ele>267</ele>
        <time>2022-02-07T21:04:16Z</time>
      </trkpt>
      <trkpt lat="47.6574" lon="7.22339">
        <ele>265</ele>
        <time>2022-02-07T21:04:27Z</time>
      </trkpt>
      <trkpt lat="47.65745" lon="7.22436">
        <ele>265</ele>
        <time>2022-02-07T21:04:39Z</time>
      </trkpt>
      <trkpt lat="47.6575" lon="7.22479">
        <ele>265</ele>
        <time>2022-02-07T21:04:44Z</time>
      </trkpt>
      <trkpt lat="47.65751" lon="7.22511">
        <ele>265</ele>
        <time>2022-02-07T21:04:48Z</time>
      </trkpt>
      <trkpt lat="47.65749" lon="7.22539">
        <ele>265</ele>
        <time>2022-02-07T21:04:51Z</time>
      </trkpt>
      <trkpt lat="47.65756" lon="7.22859">
        <ele>264</ele>
        <time>2022-02-07T21:05:30Z</time>
      </trkpt>
      <trkpt lat="47.65762" lon="7.23027">
        <ele>265</ele>
        <time>2022-02-07T21:05:50Z</time>
      </trkpt>
      <trkpt lat="47.6577" lon="7.23082">
        <ele>266</ele>
        <time>2022-02-07T21:05:57Z</time>
      </trkpt>
      <trkpt lat="47.65786" lon="7.23136">
        <ele>266</ele>
        <time>2022-02-07T21:06:04Z</time>
      </trkpt>
      <trkpt lat="47.65869" lon="7.23318">
        <ele>265</ele>
        <time>2022-02-07T21:06:30Z</time>
      </trkpt>
      <trkpt lat="47.65896" lon="7.2337">
        <ele>264</ele>
        <time>2022-02-07T21:06:38Z</time>
      </trkpt>
      <trkpt lat="47.65906" lon="7.23383">
        <ele>263</ele>
        <time>2022-02-07T21:06:40Z</time>
      </trkpt>
      <trkpt lat="47.65921" lon="7.23436">
        <ele>262</ele>
        <time>2022-02-07T21:06:47Z</time>
      </trkpt>
      <trkpt lat="47.65954" lon="7.23501">
        <ele>261</ele>
        <time>2022-02-07T21:06:57Z</time>
      </trkpt>
      <trkpt lat="47.66033" lon="7.23681">
        <ele>261</ele>
        <time>2022-02-07T21:07:23Z</time>
      </trkpt>
      <trkpt lat="47.66282" lon="7.24225">
        <ele>260</ele>
        <time>2022-02-07T21:08:41Z</time>
      </trkpt>
      <trkpt lat="47.66305" lon="7.24272">
        <ele>260</ele>
        <time>2022-02-07T21:08:48Z</time>
      </trkpt>
      <trkpt lat="47.66331" lon="7.24315">
        <ele>260</ele>
        <time>2022-02-07T21:08:55Z</time>
      </trkpt>
      <trkpt lat="47.66344" lon="7.24364">
        <ele>260</ele>
        <time>2022-02-07T21:09:02Z</time>
      </trkpt>
      <trkpt lat="47.66375" lon="7.24417">
        <ele>260</ele>
        <time>2022-02-07T21:09:10Z</time>
      </trkpt>
      <trkpt lat="47.66454" lon="7.24566">
        <ele>260</ele>
        <time>2022-02-07T21:09:33Z</time>
      </trkpt>
      <trkpt lat="47.66509" lon="7.24661">
        <ele>259</ele>
        <time>2022-02-07T21:09:48Z</time>
      </trkpt>
      <trkpt lat="47.66907" lon="7.25269">
        <ele>257</ele>
        <time>2022-02-07T21:11:29Z</time>
      </trkpt>
      <trkpt lat="47.67056" lon="7.2549">
        <ele>257</ele>
        <time>2022-02-07T21:12:07Z</time>
      </trkpt>
      <trkpt lat="47.67069" lon="7.25505">
        <ele>257</ele>
        <time>2022-02-07T21:12:10Z</time>
      </trkpt>
      <trkpt lat="47.67108" lon="7.25578">
        <ele>257</ele>
        <time>2022-02-07T21:12:21Z</time>
      </trkpt>
      <trkpt lat="47.67189" lon="7.25696">
        <ele>257</ele>
        <time>2022-02-07T21:12:41Z</time>
      </trkpt>
      <trkpt lat="47.67198" lon="7.25719">
        <ele>257</ele>
        <time>2022-02-07T21:12:44Z</time>
      </trkpt>
      <trkpt lat="47.67199" lon="7.25733">
        <ele>257</ele>
        <time>2022-02-07T21:12:46Z</time>
      </trkpt>
      <trkpt lat="47.67206" lon="7.25749">
        <ele>257</ele>
        <time>2022-02-07T21:12:48Z</time>
      </trkpt>
      <trkpt lat="47.67311" lon="7.25908">
        <ele>257</ele>
        <time>2022-02-07T21:13:15Z</time>
      </trkpt>
      <trkpt lat="47.6733" lon="7.25932">
        <ele>257</ele>
        <time>2022-02-07T21:13:19Z</time>
      </trkpt>
      <trkpt lat="47.67359" lon="7.25955">
        <ele>257</ele>
        <time>2022-02-07T21:13:25Z</time>
      </trkpt>
      <trkpt lat="47.67364" lon="7.25962">
        <ele>256</ele>
        <time>2022-02-07T21:13:27Z</time>
      </trkpt>
      <trkpt lat="47.67379" lon="7.25993">
        <ele>256</ele>
        <time>2022-02-07T21:13:31Z</time>
      </trkpt>
      <trkpt lat="47.67386" lon="7.26021">
        <ele>256</ele>
        <time>2022-02-07T21:13:35Z</time>
      </trkpt>
      <trkpt lat="47.6748" lon="7.26128">
        <ele>256</ele>
        <time>2022-02-07T21:13:56Z</time>
      </trkpt>
      <trkpt lat="47.67496" lon="7.26149">
        <ele>256</ele>
        <time>2022-02-07T21:14:00Z</time>
      </trkpt>
      <trkpt lat="47.67524" lon="7.26208">
        <ele>255</ele>
        <time>2022-02-07T21:14:08Z</time>
      </trkpt>
      <trkpt lat="47.68266" lon="7.27336">
        <ele>256</ele>
        <time>2022-02-07T21:17:17Z</time>
      </trkpt>
      <trkpt lat="47.68338" lon="7.27437">
        <ele>253</ele>
        <time>2022-02-07T21:17:35Z</time>
      </trkpt>
      <trkpt lat="47.68371" lon="7.27496">
        <ele>254</ele>
        <time>2022-02-07T21:17:44Z</time>
      </trkpt>
      <trkpt lat="47.68429" lon="7.27589">
        <ele>255</ele>
        <time>2022-02-07T21:17:59Z</time>
      </trkpt>
      <trkpt lat="47.68652" lon="7.27929">
        <ele>255</ele>
        <time>2022-02-07T21:18:56Z</time>
      </trkpt>
      <trkpt lat="47.68696" lon="7.27984">
        <ele>256</ele>
        <time>2022-02-07T21:19:06Z</time>
      </trkpt>
      <trkpt lat="47.68723" lon="7.28013">
        <ele>256</ele>
        <time>2022-02-07T21:19:12Z</time>
      </trkpt>
      <trkpt lat="47.68761" lon="7.2805">
        <ele>257</ele>
        <time>2022-02-07T21:19:20Z</time>
      </trkpt>
      <trkpt lat="47.68792" lon="7.28076">
        <ele>258</ele>
        <time>2022-02-07T21:19:27Z</time>
      </trkpt>
      <trkpt lat="47.68901" lon="7.28146">
        <ele>258</ele>
        <time>2022-02-07T21:19:48Z</time>
      </trkpt>
      <trkpt lat="47.69047" lon="7.28229">
        <ele>255</ele>
        <time>2022-02-07T21:20:15Z</time>
      </trkpt>
      <trkpt lat="47.6907" lon="7.28245">
        <ele>254</ele>
        <time>2022-02-07T21:20:20Z</time>
      </trkpt>
      <trkpt lat="47.69148" lon="7.28313">
        <ele>253</ele>
        <time>2022-02-07T21:20:36Z</time>
      </trkpt>
      <trkpt lat="47.69213" lon="7.28385">
        <ele>254</ele>
        <time>2022-02-07T21:20:51Z</time>
      </trkpt>
      <trkpt lat="47.6923" lon="7.28408">
        <ele>254</ele>
        <time>2022-02-07T21:20:55Z</time>
      </trkpt>
      <trkpt lat="47.69261" lon="7.28464">
        <ele>254</ele>
        <time>2022-02-07T21:21:03Z</time>
      </trkpt>
      <trkpt lat="47.69283" lon="7.2856">
        <ele>254</ele>
        <time>2022-02-07T21:21:15Z</time>
      </trkpt>
      <trkpt lat="47.69291" lon="7.28582">
        <ele>254</ele>
        <time>2022-02-07T21:21:18Z</time>
      </trkpt>
      <trkpt lat="47.69304" lon="7.28604">
        <ele>253</ele>
        <time>2022-02-07T21:21:22Z</time>
      </trkpt>
      <trkpt lat="47.69383" lon="7.28692">
        <ele>250</ele>
        <time>2022-02-07T21:21:40Z</time>
      </trkpt>
      <trkpt lat="47.69431" lon="7.28736">
        <ele>251</ele>
        <time>2022-02-07T21:21:50Z</time>
      </trkpt>
      <trkpt lat="47.6965" lon="7.29089">
        <ele>249</ele>
        <time>2022-02-07T21:22:47Z</time>
      </trkpt>
      <trkpt lat="47.69675" lon="7.29141">
        <ele>249</ele>
        <time>2022-02-07T21:22:55Z</time>
      </trkpt>
      <trkpt lat="47.69687" lon="7.29187">
        <ele>249</ele>
        <time>2022-02-07T21:23:01Z</time>
      </trkpt>
      <trkpt lat="47.69711" lon="7.29337">
        <ele>249</ele>
        <time>2022-02-07T21:23:19Z</time>
      </trkpt>
      <trkpt lat="47.69739" lon="7.29558">
        <ele>250</ele>
        <time>2022-02-07T21:23:46Z</time>
      </trkpt>
      <trkpt lat="47.69754" lon="7.2962">
        <ele>250</ele>
        <time>2022-02-07T21:23:54Z</time>
      </trkpt>
      <trkpt lat="47.69774" lon="7.29679">
        <ele>251</ele>
        <time>2022-02-07T21:24:02Z</time>
      </trkpt>
      <trkpt lat="47.69784" lon="7.29701">
        <ele>251</ele>
        <time>2022-02-07T21:24:05Z</time>
      </trkpt>
      <trkpt lat="47.69847" lon="7.29808">
        <ele>251</ele>
        <time>2022-02-07T21:24:22Z</time>
      </trkpt>
      <trkpt lat="47.69906" lon="7.29901">
        <ele>252</ele>
        <time>2022-02-07T21:24:37Z</time>
      </trkpt>
      <trkpt lat="47.70119" lon="7.30261">
        <ele>249</ele>
        <time>2022-02-07T21:25:35Z</time>
      </trkpt>
      <trkpt lat="47.70564" lon="7.30999">
        <ele>246</ele>
        <time>2022-02-07T21:27:33Z</time>
      </trkpt>
      <trkpt lat="47.70575" lon="7.3101">
        <ele>246</ele>
        <time>2022-02-07T21:27:36Z</time>
      </trkpt>
      <trkpt lat="47.70586" lon="7.31015">
        <ele>246</ele>
        <time>2022-02-07T21:27:38Z</time>
      </trkpt>
      <trkpt lat="47.70995" lon="7.31131">
        <ele>247</ele>
        <time>2022-02-07T21:28:52Z</time>
      </trkpt>
      <trkpt lat="47.71023" lon="7.31136">
        <ele>246</ele>
        <time>2022-02-07T21:28:57Z</time>
      </trkpt>
      <trkpt lat="47.71039" lon="7.31142">
        <ele>246</ele>
        <time>2022-02-07T21:29:00Z</time>
      </trkpt>
      <trkpt lat="47.71057" lon="7.31155">
        <ele>246</ele>
        <time>2022-02-07T21:29:03Z</time>
      </trkpt>
      <trkpt lat="47.71061" lon="7.31143">
        <ele>246</ele>
        <time>2022-02-07T21:29:05Z</time>
      </trkpt>
      <trkpt lat="47.71064" lon="7.31118">
        <ele>246</ele>
        <time>2022-02-07T21:29:08Z</time>
      </trkpt>
      <trkpt lat="47.71067" lon="7.31116">
        <ele>246</ele>
        <time>2022-02-07T21:29:09Z</time>
      </trkpt>
      <trkpt lat="47.71086" lon="7.31123">
        <ele>245</ele>
        <time>2022-02-07T21:29:12Z</time>
      </trkpt>
      <trkpt lat="47.7115" lon="7.31137">
        <ele>245</ele>
        <time>2022-02-07T21:29:24Z</time>
      </trkpt>
      <trkpt lat="47.71217" lon="7.31156">
        <ele>244</ele>
        <time>2022-02-07T21:29:36Z</time>
      </trkpt>
      <trkpt lat="47.71613" lon="7.31271">
        <ele>244</ele>
        <time>2022-02-07T21:30:48Z</time>
      </trkpt>
      <trkpt lat="47.71785" lon="7.31323">
        <ele>243</ele>
        <time>2022-02-07T21:31:19Z</time>
      </trkpt>
      <trkpt lat="47.71879" lon="7.31354">
        <ele>242</ele>
        <time>2022-02-07T21:31:36Z</time>
      </trkpt>
      <trkpt lat="47.71912" lon="7.31355">
        <ele>242</ele>
        <time>2022-02-07T21:31:42Z</time>
      </trkpt>
      <trkpt lat="47.71978" lon="7.3137">
        <ele>242</ele>
        <time>2022-02-07T21:31:54Z</time>
      </trkpt>
      <trkpt lat="47.72033" lon="7.3139">
        <ele>242</ele>
        <time>2022-02-07T21:32:04Z</time>
      </trkpt>
      <trkpt lat="47.72037" lon="7.31396">
        <ele>242</ele>
        <time>2022-02-07T21:32:05Z</time>
      </trkpt>
      <trkpt lat="47.72048" lon="7.31403">
        <ele>242</ele>
        <time>2022-02-07T21:32:07Z</time>
      </trkpt>
      <trkpt lat="47.72079" lon="7.31418">
        <ele>243</ele>
        <time>2022-02-07T21:32:13Z</time>
      </trkpt>
      <trkpt lat="47.72115" lon="7.31441">
        <ele>243</ele>
        <time>2022-02-07T21:32:20Z</time>
      </trkpt>
      <trkpt lat="47.72144" lon="7.31464">
        <ele>242</ele>
        <time>2022-02-07T21:32:25Z</time>
      </trkpt>
      <trkpt lat="47.72493" lon="7.31791">
        <ele>243</ele>
        <time>2022-02-07T21:33:39Z</time>
      </trkpt>
      <trkpt lat="47.72865" lon="7.32146">
        <ele>241</ele>
        <time>2022-02-07T21:34:58Z</time>
      </trkpt>
      <trkpt lat="47.72889" lon="7.32173">
        <ele>242</ele>
        <time>2022-02-07T21:35:03Z</time>
      </trkpt>
      <trkpt lat="47.7293" lon="7.3221">
        <ele>241</ele>
        <time>2022-02-07T21:35:11Z</time>
      </trkpt>
      <trkpt lat="47.72937" lon="7.32206">
        <ele>241</ele>
        <time>2022-02-07T21:35:13Z</time>
      </trkpt>
      <trkpt lat="47.72945" lon="7.32206">
        <ele>241</ele>
        <time>2022-02-07T21:35:14Z</time>
      </trkpt>
      <trkpt lat="47.72963" lon="7.32223">
        <ele>240</ele>
        <time>2022-02-07T21:35:18Z</time>
      </trkpt>
      <trkpt lat="47.72996" lon="7.32248">
        <ele>238</ele>
        <time>2022-02-07T21:35:25Z</time>
      </trkpt>
      <trkpt lat="47.73026" lon="7.32278">
        <ele>239</ele>
        <time>2022-02-07T21:35:31Z</time>
      </trkpt>
      <trkpt lat="47.73026" lon="7.32283">
        <ele>239</ele>
        <time>2022-02-07T21:35:32Z</time>
      </trkpt>
      <trkpt lat="47.7303" lon="7.32288">
        <ele>239</ele>
        <time>2022-02-07T21:35:33Z</time>
      </trkpt>
      <trkpt lat="47.7306" lon="7.32316">
        <ele>239</ele>
        <time>2022-02-07T21:35:39Z</time>
      </trkpt>
      <trkpt lat="47.73074" lon="7.32334">
        <ele>239</ele>
        <time>2022-02-07T21:35:42Z</time>
      </trkpt>
      <trkpt lat="47.73212" lon="7.32464">
        <ele>240</ele>
        <time>2022-02-07T21:36:11Z</time>
      </trkpt>
      <trkpt lat="47.73244" lon="7.3249">
        <ele>240</ele>
        <time>2022-02-07T21:36:18Z</time>
      </trkpt>
      <trkpt lat="47.73423" lon="7.32664">
        <ele>239</ele>
        <time>2022-02-07T21:36:56Z</time>
      </trkpt>
      <trkpt lat="47.73443" lon="7.32679">
        <ele>239</ele>
        <time>2022-02-07T21:37:00Z</time>
      </trkpt>
      <trkpt lat="47.73471" lon="7.32693">
        <ele>239</ele>
        <time>2022-02-07T21:37:05Z</time>
      </trkpt>
      <trkpt lat="47.73489" lon="7.32705">
        <ele>239</ele>
        <time>2022-02-07T21:37:08Z</time>
      </trkpt>
      <trkpt lat="47.73517" lon="7.3273">
        <ele>238</ele>
        <time>2022-02-07T21:37:14Z</time>
      </trkpt>
      <trkpt lat="47.73529" lon="7.32744">
        <ele>238</ele>
        <time>2022-02-07T21:37:17Z</time>
      </trkpt>
      <trkpt lat="47.73541" lon="7.32765">
        <ele>238</ele>
        <time>2022-02-07T21:37:20Z</time>
      </trkpt>
      <trkpt lat="47.73565" lon="7.32821">
        <ele>239</ele>
        <time>2022-02-07T21:37:28Z</time>
      </trkpt>
      <trkpt lat="47.73646" lon="7.32962">
        <ele>238</ele>
        <time>2022-02-07T21:37:50Z</time>
      </trkpt>
      <trkpt lat="47.7366" lon="7.32993">
        <ele>238</ele>
        <time>2022-02-07T21:37:55Z</time>
      </trkpt>
      <trkpt lat="47.73672" lon="7.33051">
        <ele>239</ele>
        <time>2022-02-07T21:38:02Z</time>
      </trkpt>
      <trkpt lat="47.73683" lon="7.33073">
        <ele>239</ele>
        <time>2022-02-07T21:38:05Z</time>
      </trkpt>
      <trkpt lat="47.73682" lon="7.33085">
        <ele>239</ele>
        <time>2022-02-07T21:38:07Z</time>
      </trkpt>
      <trkpt lat="47.73668" lon="7.33101">
        <ele>240</ele>
        <time>2022-02-07T21:38:10Z</time>
      </trkpt>
      <trkpt lat="47.73662" lon="7.33106">
        <ele>240</ele>
        <time>2022-02-07T21:38:11Z</time>
      </trkpt>
      <trkpt lat="47.73656" lon="7.33107">
        <ele>240</ele>
        <time>2022-02-07T21:38:12Z</time>
      </trkpt>
      <trkpt lat="47.73625" lon="7.33055">
        <ele>239</ele>
        <time>2022-02-07T21:38:21Z</time>
      </trkpt>
      <trkpt lat="47.73613" lon="7.33028">
        <ele>237</ele>
        <time>2022-02-07T21:38:25Z</time>
      </trkpt>
      <trkpt lat="47.73614" lon="7.33023">
        <ele>237</ele>
        <time>2022-02-07T21:38:25Z</time>
      </trkpt>
      <trkpt lat="47.73618" lon="7.33024">
        <ele>237</ele>
        <time>2022-02-07T21:38:26Z</time>
      </trkpt>
      <trkpt lat="47.73621" lon="7.33028">
        <ele>238</ele>
        <time>2022-02-07T21:38:27Z</time>
      </trkpt>
      <trkpt lat="47.73646" lon="7.3307">
        <ele>239</ele>
        <time>2022-02-07T21:38:33Z</time>
      </trkpt>
      <trkpt lat="47.73665" lon="7.33088">
        <ele>239</ele>
        <time>2022-02-07T21:38:37Z</time>
      </trkpt>
      <trkpt lat="47.73685" lon="7.33122">
        <ele>240</ele>
        <time>2022-02-07T21:38:43Z</time>
      </trkpt>
      <trkpt lat="47.73702" lon="7.33145">
        <ele>241</ele>
        <time>2022-02-07T21:38:47Z</time>
      </trkpt>
      <trkpt lat="47.73711" lon="7.33177">
        <ele>242</ele>
        <time>2022-02-07T21:38:51Z</time>
      </trkpt>
      <trkpt lat="47.73889" lon="7.33505">
        <ele>240</ele>
        <time>2022-02-07T21:39:41Z</time>
      </trkpt>
      <trkpt lat="47.73891" lon="7.3352">
        <ele>240</ele>
        <time>2022-02-07T21:39:43Z</time>
      </trkpt>
      <trkpt lat="47.73944" lon="7.3362">
        <ele>241</ele>
        <time>2022-02-07T21:39:58Z</time>
      </trkpt>
      <trkpt lat="47.73951" lon="7.33622">
        <ele>241</ele>
        <time>2022-02-07T21:40:00Z</time>
      </trkpt>
      <trkpt lat="47.7409" lon="7.33877">
        <ele>241</ele>
        <time>2022-02-07T21:40:39Z</time>
      </trkpt>
      <trkpt lat="47.74099" lon="7.339">
        <ele>241</ele>
        <time>2022-02-07T21:40:42Z</time>
      </trkpt>
      <trkpt lat="47.74218" lon="7.34119">
        <ele>239</ele>
        <time>2022-02-07T21:41:16Z</time>
      </trkpt>
      <trkpt lat="47.74224" lon="7.34139">
        <ele>239</ele>
        <time>2022-02-07T21:41:18Z</time>
      </trkpt>
      <trkpt lat="47.74339" lon="7.34354">
        <ele>241</ele>
        <time>2022-02-07T21:41:51Z</time>
      </trkpt>
      <trkpt lat="47.74424" lon="7.3451">
        <ele>239</ele>
        <time>2022-02-07T21:42:15Z</time>
      </trkpt>
      <trkpt lat="47.74435" lon="7.34519">
        <ele>239</ele>
        <time>2022-02-07T21:42:18Z</time>
      </trkpt>
      <trkpt lat="47.74526" lon="7.3469">
        <ele>239</ele>
        <time>2022-02-07T21:42:44Z</time>
      </trkpt>
      <trkpt lat="47.74546" lon="7.34741">
        <ele>239</ele>
        <time>2022-02-07T21:42:51Z</time>
      </trkpt>
      <trkpt lat="47.7457" lon="7.34786">
        <ele>239</ele>
        <time>2022-02-07T21:42:58Z</time>
      </trkpt>
      <trkpt lat="47.74586" lon="7.3481">
        <ele>239</ele>
        <time>2022-02-07T21:43:02Z</time>
      </trkpt>
      <trkpt lat="47.74707" lon="7.35031">
        <ele>239</ele>
        <time>2022-02-07T21:43:36Z</time>
      </trkpt>
      <trkpt lat="47.74772" lon="7.35156">
        <ele>236</ele>
        <time>2022-02-07T21:43:55Z</time>
      </trkpt>
      <trkpt lat="47.75003" lon="7.35584">
        <ele>238</ele>
        <time>2022-02-07T21:45:00Z</time>
      </trkpt>
      <trkpt lat="47.7509" lon="7.35749">
        <ele>237</ele>
        <time>2022-02-07T21:45:25Z</time>
      </trkpt>
      <trkpt lat="47.75104" lon="7.35803">
        <ele>237</ele>
        <time>2022-02-07T21:45:32Z</time>
      </trkpt>
      <trkpt lat="47.75107" lon="7.35809">
        <ele>236</ele>
        <time>2022-02-07T21:45:33Z</time>
      </trkpt>
      <trkpt lat="47.75113" lon="7.35809">
        <ele>237</ele>
        <time>2022-02-07T21:45:34Z</time>
      </trkpt>
      <trkpt lat="47.75121" lon="7.35824">
        <ele>237</ele>
        <time>2022-02-07T21:45:37Z</time>
      </trkpt>
      <trkpt lat="47.75121" lon="7.35832">
        <ele>236</ele>
        <time>2022-02-07T21:45:38Z</time>
      </trkpt>
      <trkpt lat="47.75149" lon="7.35886">
        <ele>236</ele>
        <time>2022-02-07T21:45:46Z</time>
      </trkpt>
      <trkpt lat="47.75152" lon="7.35906">
        <ele>236</ele>
        <time>2022-02-07T21:45:48Z</time>
      </trkpt>
      <trkpt lat="47.75175" lon="7.35975">
        <ele>235</ele>
        <time>2022-02-07T21:45:57Z</time>
      </trkpt>
      <trkpt lat="47.75185" lon="7.35995">
        <ele>235</ele>
        <time>2022-02-07T21:46:00Z</time>
      </trkpt>
      <trkpt lat="47.75253" lon="7.36102">
        <ele>236</ele>
        <time>2022-02-07T21:46:18Z</time>
      </trkpt>
      <trkpt lat="47.75283" lon="7.36131">
        <ele>235</ele>
        <time>2022-02-07T21:46:24Z</time>
      </trkpt>
      <trkpt lat="47.75312" lon="7.36154">
        <ele>235</ele>
        <time>2022-02-07T21:46:30Z</time>
      </trkpt>
      <trkpt lat="47.75333" lon="7.36181">
        <ele>236</ele>
        <time>2022-02-07T21:46:35Z</time>
      </trkpt>
      <trkpt lat="47.75345" lon="7.36203">
        <ele>236</ele>
        <time>2022-02-07T21:46:39Z</time>
      </trkpt>
      <trkpt lat="47.75379" lon="7.36273">
        <ele>235</ele>
        <time>2022-02-07T21:46:49Z</time>
      </trkpt>
      <trkpt lat="47.75374" lon="7.36279">
        <ele>235</ele>
        <time>2022-02-07T21:46:50Z</time>
      </trkpt>
      <trkpt lat="47.75363" lon="7.36283">
        <ele>236</ele>
        <time>2022-02-07T21:46:52Z</time>
      </trkpt>
      <trkpt lat="47.75351" lon="7.36313">
        <ele>236</ele>
        <time>2022-02-07T21:46:56Z</time>
      </trkpt>
      <trkpt lat="47.75348" lon="7.36315">
        <ele>236</ele>
        <time>2022-02-07T21:46:57Z</time>
      </trkpt>
      <trkpt lat="47.75345" lon="7.36305">
        <ele>236</ele>
        <time>2022-02-07T21:46:58Z</time>
      </trkpt>
      <trkpt lat="47.75357" lon="7.36257">
        <ele>235</ele>
        <time>2022-02-07T21:47:04Z</time>
      </trkpt>
      <trkpt lat="47.75356" lon="7.36253">
        <ele>235</ele>
        <time>2022-02-07T21:47:05Z</time>
      </trkpt>
      <trkpt lat="47.75354" lon="7.36254">
        <ele>236</ele>
        <time>2022-02-07T21:47:05Z</time>
      </trkpt>
      <trkpt lat="47.7535" lon="7.36263">
        <ele>236</ele>
        <time>2022-02-07T21:47:06Z</time>
      </trkpt>
      <trkpt lat="47.75341" lon="7.36304">
        <ele>236</ele>
        <time>2022-02-07T21:47:12Z</time>
      </trkpt>
      <trkpt lat="47.75344" lon="7.36332">
        <ele>236</ele>
        <time>2022-02-07T21:47:15Z</time>
      </trkpt>
      <trkpt lat="47.7541" lon="7.36446">
        <ele>238</ele>
        <time>2022-02-07T21:47:33Z</time>
      </trkpt>
      <trkpt lat="47.75419" lon="7.36456">
        <ele>237</ele>
        <time>2022-02-07T21:47:35Z</time>
      </trkpt>
      <trkpt lat="47.75425" lon="7.36459">
        <ele>237</ele>
        <time>2022-02-07T21:47:36Z</time>
      </trkpt>
      <trkpt lat="47.75436" lon="7.36458">
        <ele>237</ele>
        <time>2022-02-07T21:47:38Z</time>
      </trkpt>
      <trkpt lat="47.75442" lon="7.36461">
        <ele>237</ele>
        <time>2022-02-07T21:47:39Z</time>
      </trkpt>
      <trkpt lat="47.75454" lon="7.36491">
        <ele>237</ele>
        <time>2022-02-07T21:47:43Z</time>
      </trkpt>
      <trkpt lat="47.75446" lon="7.36502">
        <ele>237</ele>
        <time>2022-02-07T21:47:45Z</time>
      </trkpt>
      <trkpt lat="47.75442" lon="7.36514">
        <ele>237</ele>
        <time>2022-02-07T21:47:47Z</time>
      </trkpt>
      <trkpt lat="47.75439" lon="7.36565">
        <ele>238</ele>
        <time>2022-02-07T21:47:53Z</time>
      </trkpt>
      <trkpt lat="47.75428" lon="7.36573">
        <ele>238</ele>
        <time>2022-02-07T21:47:55Z</time>
      </trkpt>
      <trkpt lat="47.75425" lon="7.36579">
        <ele>238</ele>
        <time>2022-02-07T21:47:56Z</time>
      </trkpt>
      <trkpt lat="47.7543" lon="7.36588">
        <ele>238</ele>
        <time>2022-02-07T21:47:57Z</time>
      </trkpt>
      <trkpt lat="47.75434" lon="7.3662">
        <ele>238</ele>
        <time>2022-02-07T21:48:01Z</time>
      </trkpt>
      <trkpt lat="47.75461" lon="7.36738">
        <ele>237</ele>
        <time>2022-02-07T21:48:16Z</time>
      </trkpt>
      <trkpt lat="47.75495" lon="7.36855">
        <ele>237</ele>
        <time>2022-02-07T21:48:32Z</time>
      </trkpt>
      <trkpt lat="47.75527" lon="7.36981">
        <ele>237</ele>
        <time>2022-02-07T21:48:48Z</time>
      </trkpt>
      <trkpt lat="47.75529" lon="7.36983">
        <ele>237</ele>
        <time>2022-02-07T21:48:48Z</time>
      </trkpt>
      <trkpt lat="47.75537" lon="7.3698">
        <ele>237</ele>
        <time>2022-02-07T21:48:50Z</time>
      </trkpt>
      <trkpt lat="47.75542" lon="7.36973">
        <ele>237</ele>
        <time>2022-02-07T21:48:51Z</time>
      </trkpt>
      <trkpt lat="47.7555" lon="7.36971">
        <ele>237</ele>
        <time>2022-02-07T21:48:52Z</time>
      </trkpt>
      <trkpt lat="47.75564" lon="7.3699">
        <ele>236</ele>
        <time>2022-02-07T21:48:56Z</time>
      </trkpt>
      <trkpt lat="47.75621" lon="7.37091">
        <ele>236</ele>
        <time>2022-02-07T21:49:11Z</time>
      </trkpt>
      <trkpt lat="47.75661" lon="7.37149">
        <ele>235</ele>
        <time>2022-02-07T21:49:21Z</time>
      </trkpt>
      <trkpt lat="47.75744" lon="7.37315">
        <ele>234</ele>
        <time>2022-02-07T21:49:46Z</time>
      </trkpt>
      <trkpt lat="47.75847" lon="7.37499">
        <ele>233</ele>
        <time>2022-02-07T21:50:15Z</time>
      </trkpt>
      <trkpt lat="47.7606" lon="7.37851">
        <ele>235</ele>
        <time>2022-02-07T21:51:11Z</time>
      </trkpt>
      <trkpt lat="47.76117" lon="7.38046">
        <ele>235</ele>
        <time>2022-02-07T21:51:37Z</time>
      </trkpt>
      <trkpt lat="47.76152" lon="7.38147">
        <ele>234</ele>
        <time>2022-02-07T21:51:50Z</time>
      </trkpt>
      <trkpt lat="47.76168" lon="7.38206">
        <ele>234</ele>
        <time>2022-02-07T21:51:58Z</time>
      </trkpt>
      <trkpt lat="47.76174" lon="7.38257">
        <ele>234</ele>
        <time>2022-02-07T21:52:04Z</time>
      </trkpt>
      <trkpt lat="47.76175" lon="7.38358">
        <ele>236</ele>
        <time>2022-02-07T21:52:16Z</time>
      </trkpt>
      <trkpt lat="47.76184" lon="7.38418">
        <ele>238</ele>
        <time>2022-02-07T21:52:24Z</time>
      </trkpt>
      <trkpt lat="47.76301" lon="7.38774">
        <ele>234</ele>
        <time>2022-02-07T21:53:11Z</time>
      </trkpt>
      <trkpt lat="47.76311" lon="7.38816">
        <ele>234</ele>
        <time>2022-02-07T21:53:16Z</time>
      </trkpt>
      <trkpt lat="47.76459" lon="7.38678">
        <ele>233</ele>
        <time>2022-02-07T21:53:47Z</time>
      </trkpt>
      <trkpt lat="47.76472" lon="7.38675">
        <ele>234</ele>
        <time>2022-02-07T21:53:50Z</time>
      </trkpt>
      <trkpt lat="47.76485" lon="7.38679">
        <ele>234</ele>
        <time>2022-02-07T21:53:52Z</time>
      </trkpt>
      <trkpt lat="47.765" lon="7.3869">
        <ele>235</ele>
        <time>2022-02-07T21:53:55Z</time>
      </trkpt>
      <trkpt lat="47.76544" lon="7.38747">
        <ele>235</ele>
        <time>2022-02-07T21:54:05Z</time>
      </trkpt>
      <trkpt lat="47.76558" lon="7.38781">
        <ele>235</ele>
        <time>2022-02-07T21:54:10Z</time>
      </trkpt>
      <trkpt lat="47.7657" lon="7.38819">
        <ele>236</ele>
        <time>2022-02-07T21:54:15Z</time>
      </trkpt>
      <trkpt lat="47.76605" lon="7.3896">
        <ele>237</ele>
        <time>2022-02-07T21:54:33Z</time>
      </trkpt>
      <trkpt lat="47.76612" lon="7.38969">
        <ele>237</ele>
        <time>2022-02-07T21:54:35Z</time>
      </trkpt>
      <trkpt lat="47.76668" lon="7.39114">
        <ele>235</ele>
        <time>2022-02-07T21:54:55Z</time>
      </trkpt>
      <trkpt lat="47.7667" lon="7.39125">
        <ele>235</ele>
        <time>2022-02-07T21:54:56Z</time>
      </trkpt>
      <trkpt lat="47.76693" lon="7.39148">
        <ele>234</ele>
        <time>2022-02-07T21:55:01Z</time>
      </trkpt>
      <trkpt lat="47.76705" lon="7.39164">
        <ele>234</ele>
        <time>2022-02-07T21:55:04Z</time>
      </trkpt>
      <trkpt lat="47.76733" lon="7.39238">
        <ele>234</ele>
        <time>2022-02-07T21:55:14Z</time>
      </trkpt>
      <trkpt lat="47.76745" lon="7.39252">
        <ele>234</ele>
        <time>2022-02-07T21:55:17Z</time>
      </trkpt>
      <trkpt lat="47.76766" lon="7.39303">
        <ele>233</ele>
        <time>2022-02-07T21:55:24Z</time>
      </trkpt>
      <trkpt lat="47.7678" lon="7.39319">
        <ele>233</ele>
        <time>2022-02-07T21:55:27Z</time>
      </trkpt>
      <trkpt lat="47.76799" lon="7.39365">
        <ele>234</ele>
        <time>2022-02-07T21:55:34Z</time>
      </trkpt>
      <trkpt lat="47.76776" lon="7.39569">
        <ele>236</ele>
        <time>2022-02-07T21:55:58Z</time>
      </trkpt>
      <trkpt lat="47.76772" lon="7.39575">
        <ele>236</ele>
        <time>2022-02-07T21:55:59Z</time>
      </trkpt>
      <trkpt lat="47.76758" lon="7.39574">
        <ele>236</ele>
        <time>2022-02-07T21:56:02Z</time>
      </trkpt>
      <trkpt lat="47.76753" lon="7.39582">
        <ele>236</ele>
        <time>2022-02-07T21:56:03Z</time>
      </trkpt>
      <trkpt lat="47.76699" lon="7.40093">
        <ele>237</ele>
        <time>2022-02-07T21:57:05Z</time>
      </trkpt>
      <trkpt lat="47.76689" lon="7.40149">
        <ele>236</ele>
        <time>2022-02-07T21:57:12Z</time>
      </trkpt>
      <trkpt lat="47.76689" lon="7.40167">
        <ele>236</ele>
        <time>2022-02-07T21:57:14Z</time>
      </trkpt>
      <trkpt lat="47.76693" lon="7.40186">
        <ele>236</ele>
        <time>2022-02-07T21:57:16Z</time>
      </trkpt>
      <trkpt lat="47.76716" lon="7.40236">
        <ele>236</ele>
        <time>2022-02-07T21:57:24Z</time>
      </trkpt>
      <trkpt lat="47.76727" lon="7.4027">
        <ele>236</ele>
        <time>2022-02-07T21:57:28Z</time>
      </trkpt>
      <trkpt lat="47.76732" lon="7.4031">
        <ele>237</ele>
        <time>2022-02-07T21:57:33Z</time>
      </trkpt>
      <trkpt lat="47.76709" lon="7.40454">
        <ele>236</ele>
        <time>2022-02-07T21:57:51Z</time>
      </trkpt>
      <trkpt lat="47.76669" lon="7.40775">
        <ele>234</ele>
        <time>2022-02-07T21:58:30Z</time>
      </trkpt>
      <trkpt lat="47.76656" lon="7.40935">
        <ele>235</ele>
        <time>2022-02-07T21:58:49Z</time>
      </trkpt>
      <trkpt lat="47.76628" lon="7.4116">
        <ele>232</ele>
        <time>2022-02-07T21:59:16Z</time>
      </trkpt>
      <trkpt lat="47.76609" lon="7.41336">
        <ele>235</ele>
        <time>2022-02-07T21:59:38Z</time>
      </trkpt>
      <trkpt lat="47.7659" lon="7.41476">
        <ele>237</ele>
        <time>2022-02-07T21:59:55Z</time>
      </trkpt>
      <trkpt lat="47.76587" lon="7.41503">
        <ele>238</ele>
        <time>2022-02-07T21:59:58Z</time>
      </trkpt>
      <trkpt lat="47.7659" lon="7.41582">
        <ele>239</ele>
        <time>2022-02-07T22:00:08Z</time>
      </trkpt>
      <trkpt lat="47.76588" lon="7.41596">
        <ele>239</ele>
        <time>2022-02-07T22:00:09Z</time>
      </trkpt>
      <trkpt lat="47.76566" lon="7.41649">
        <ele>237</ele>
        <time>2022-02-07T22:00:17Z</time>
      </trkpt>
      <trkpt lat="47.76551" lon="7.41702">
        <ele>236</ele>
        <time>2022-02-07T22:00:24Z</time>
      </trkpt>
      <trkpt lat="47.76545" lon="7.41778">
        <ele>234</ele>
        <time>2022-02-07T22:00:33Z</time>
      </trkpt>
      <trkpt lat="47.7653" lon="7.41866">
        <ele>233</ele>
        <time>2022-02-07T22:00:44Z</time>
      </trkpt>
      <trkpt lat="47.76537" lon="7.41915">
        <ele>234</ele>
        <time>2022-02-07T22:00:50Z</time>
      </trkpt>
      <trkpt lat="47.76537" lon="7.41932">
        <ele>234</ele>
        <time>2022-02-07T22:00:52Z</time>
      </trkpt>
      <trkpt lat="47.76534" lon="7.41946">
        <ele>234</ele>
        <time>2022-02-07T22:00:53Z</time>
      </trkpt>
      <trkpt lat="47.76505" lon="7.42014">
        <ele>233</ele>
        <time>2022-02-07T22:01:03Z</time>
      </trkpt>
      <trkpt lat="47.76499" lon="7.42048">
        <ele>233</ele>
        <time>2022-02-07T22:01:07Z</time>
      </trkpt>
      <trkpt lat="47.76501" lon="7.42161">
        <ele>234</ele>
        <time>2022-02-07T22:01:21Z</time>
      </trkpt>
      <trkpt lat="47.76504" lon="7.42188">
        <ele>234</ele>
        <time>2022-02-07T22:01:24Z</time>
      </trkpt>
      <trkpt lat="47.76501" lon="7.42205">
        <ele>234</ele>
        <time>2022-02-07T22:01:26Z</time>
      </trkpt>
      <trkpt lat="47.76472" lon="7.42264">
        <ele>236</ele>
        <time>2022-02-07T22:01:35Z</time>
      </trkpt>
      <trkpt lat="47.76473" lon="7.42302">
        <ele>237</ele>
        <time>2022-02-07T22:01:39Z</time>
      </trkpt>
      <trkpt lat="47.76465" lon="7.4237">
        <ele>239</ele>
        <time>2022-02-07T22:01:48Z</time>
      </trkpt>
      <trkpt lat="47.76472" lon="7.42413">
        <ele>239</ele>
        <time>2022-02-07T22:01:53Z</time>
      </trkpt>
      <trkpt lat="47.76484" lon="7.42456">
        <ele>238</ele>
        <time>2022-02-07T22:01:59Z</time>
      </trkpt>
      <trkpt lat="47.76485" lon="7.42478">
        <ele>237</ele>
        <time>2022-02-07T22:02:01Z</time>
      </trkpt>
      <trkpt lat="47.76424" lon="7.43039">
        <ele>238</ele>
        <time>2022-02-07T22:03:09Z</time>
      </trkpt>
      <trkpt lat="47.76418" lon="7.43078">
        <ele>238</ele>
        <time>2022-02-07T22:03:14Z</time>
      </trkpt>
      <trkpt lat="47.76401" lon="7.43128">
        <ele>238</ele>
        <time>2022-02-07T22:03:21Z</time>
      </trkpt>
      <trkpt lat="47.76395" lon="7.43187">
        <ele>237</ele>
        <time>2022-02-07T22:03:28Z</time>
      </trkpt>
      <trkpt lat="47.76396" lon="7.43284">
        <ele>237</ele>
        <time>2022-02-07T22:03:39Z</time>
      </trkpt>
      <trkpt lat="47.76359" lon="7.43622">
        <ele>238</ele>
        <time>2022-02-07T22:04:20Z</time>
      </trkpt>
      <trkpt lat="47.76344" lon="7.43682">
        <ele>238</ele>
        <time>2022-02-07T22:04:28Z</time>
      </trkpt>
      <trkpt lat="47.76333" lon="7.43746">
        <ele>236</ele>
        <time>2022-02-07T22:04:36Z</time>
      </trkpt>
      <trkpt lat="47.76326" lon="7.43926">
        <ele>236</ele>
        <time>2022-02-07T22:04:58Z</time>
      </trkpt>
      <trkpt lat="47.76314" lon="7.44011">
        <ele>235</ele>
        <time>2022-02-07T22:05:08Z</time>
      </trkpt>
      <trkpt lat="47.76297" lon="7.44189">
        <ele>236</ele>
        <time>2022-02-07T22:05:29Z</time>
      </trkpt>
      <trkpt lat="47.76253" lon="7.44169">
        <ele>237</ele>
        <time>2022-02-07T22:05:38Z</time>
      </trkpt>
      <trkpt lat="47.76246" lon="7.44168">
        <ele>237</ele>
        <time>2022-02-07T22:05:39Z</time>
      </trkpt>
      <trkpt lat="47.76239" lon="7.44171">
        <ele>237</ele>
        <time>2022-02-07T22:05:40Z</time>
      </trkpt>
      <trkpt lat="47.76223" lon="7.44182">
        <ele>237</ele>
        <time>2022-02-07T22:05:43Z</time>
      </trkpt>
      <trkpt lat="47.76217" lon="7.44192">
        <ele>237</ele>
        <time>2022-02-07T22:05:45Z</time>
      </trkpt>
      <trkpt lat="47.76209" lon="7.44217">
        <ele>236</ele>
        <time>2022-02-07T22:05:48Z</time>
      </trkpt>
      <trkpt lat="47.76207" lon="7.44235">
        <ele>236</ele>
        <time>2022-02-07T22:05:50Z</time>
      </trkpt>
      <trkpt lat="47.7621" lon="7.44252">
        <ele>235</ele>
        <time>2022-02-07T22:05:52Z</time>
      </trkpt>
      <trkpt lat="47.76219" lon="7.44277">
        <ele>235</ele>
        <time>2022-02-07T22:05:56Z</time>
      </trkpt>
      <trkpt lat="47.76267" lon="7.44396">
        <ele>234</ele>
        <time>2022-02-07T22:06:12Z</time>
      </trkpt>
      <trkpt lat="47.76335" lon="7.44545">
        <ele>235</ele>
        <time>2022-02-07T22:06:34Z</time>
      </trkpt>
      <trkpt lat="47.76391" lon="7.44658">
        <ele>236</ele>
        <time>2022-02-07T22:06:51Z</time>
      </trkpt>
      <trkpt lat="47.7644" lon="7.44777">
        <ele>235</ele>
        <time>2022-02-07T22:07:07Z</time>
      </trkpt>
      <trkpt lat="47.76464" lon="7.44809">
        <ele>235</ele>
        <time>2022-02-07T22:07:13Z</time>
      </trkpt>
      <trkpt lat="47.7648" lon="7.44814">
        <ele>235</ele>
        <time>2022-02-07T22:07:16Z</time>
      </trkpt>
      <trkpt lat="47.7649" lon="7.44812">
        <ele>235</ele>
        <time>2022-02-07T22:07:18Z</time>
      </trkpt>
      <trkpt lat="47.76508" lon="7.44802">
        <ele>236</ele>
        <time>2022-02-07T22:07:21Z</time>
      </trkpt>
      <trkpt lat="47.7653" lon="7.44783">
        <ele>236</ele>
        <time>2022-02-07T22:07:26Z</time>
      </trkpt>
      <trkpt lat="47.76541" lon="7.44763">
        <ele>237</ele>
        <time>2022-02-07T22:07:29Z</time>
      </trkpt>
      <trkpt lat="47.76581" lon="7.44653">
        <ele>235</ele>
        <time>2022-02-07T22:07:44Z</time>
      </trkpt>
      <trkpt lat="47.76596" lon="7.44619">
        <ele>235</ele>
        <time>2022-02-07T22:07:49Z</time>
      </trkpt>
      <trkpt lat="47.77172" lon="7.4488">
        <ele>237</ele>
        <time>2022-02-07T22:09:36Z</time>
      </trkpt>
      <trkpt lat="47.77385" lon="7.44974">
        <ele>234</ele>
        <time>2022-02-07T22:10:15Z</time>
      </trkpt>
      <trkpt lat="47.79325" lon="7.45854">
        <ele>230</ele>
        <time>2022-02-07T22:16:16Z</time>
      </trkpt>
      <trkpt lat="47.79335" lon="7.45864">
        <ele>230</ele>
        <time>2022-02-07T22:16:18Z</time>
      </trkpt>
      <trkpt lat="47.79418" lon="7.46079">
        <ele>228</ele>
        <time>2022-02-07T22:16:48Z</time>
      </trkpt>
      <trkpt lat="47.79431" lon="7.46097">
        <ele>228</ele>
        <time>2022-02-07T22:16:51Z</time>
      </trkpt>
      <trkpt lat="47.7962" lon="7.45984">
        <ele>230</ele>
        <time>2022-02-07T22:17:27Z</time>
      </trkpt>
      <trkpt lat="47.79646" lon="7.45991">
        <ele>230</ele>
        <time>2022-02-07T22:17:32Z</time>
      </trkpt>
      <trkpt lat="47.80013" lon="7.46016">
        <ele>230</ele>
        <time>2022-02-07T22:18:38Z</time>
      </trkpt>
      <trkpt lat="47.80381" lon="7.46047">
        <ele>230</ele>
        <time>2022-02-07T22:19:43Z</time>
      </trkpt>
      <trkpt lat="47.8075" lon="7.46075">
        <ele>231</ele>
        <time>2022-02-07T22:20:49Z</time>
      </trkpt>
      <trkpt lat="47.81171" lon="7.46118">
        <ele>229</ele>
        <time>2022-02-07T22:22:04Z</time>
      </trkpt>
      <trkpt lat="47.81619" lon="7.46144">
        <ele>226</ele>
        <time>2022-02-07T22:23:24Z</time>
      </trkpt>
      <trkpt lat="47.82484" lon="7.46215">
        <ele>229</ele>
        <time>2022-02-07T22:25:58Z</time>
      </trkpt>
      <trkpt lat="47.82508" lon="7.46225">
        <ele>229</ele>
        <time>2022-02-07T22:26:02Z</time>
      </trkpt>
      <trkpt lat="47.82714" lon="7.46385">
        <ele>229</ele>
        <time>2022-02-07T22:26:44Z</time>
      </trkpt>
      <trkpt lat="47.82982" lon="7.4657">
        <ele>227</ele>
        <time>2022-02-07T22:27:36Z</time>
      </trkpt>
      <trkpt lat="47.83318" lon="7.46787">
        <ele>226</ele>
        <time>2022-02-07T22:28:41Z</time>
      </trkpt>
      <trkpt lat="47.83698" lon="7.47052">
        <ele>229</ele>
        <time>2022-02-07T22:29:56Z</time>
      </trkpt>
      <trkpt lat="47.84435" lon="7.47558">
        <ele>226</ele>
        <time>2022-02-07T22:32:20Z</time>
      </trkpt>
      <trkpt lat="47.84467" lon="7.47583">
        <ele>223</ele>
        <time>2022-02-07T22:32:27Z</time>
      </trkpt>
      <trkpt lat="47.85268" lon="7.48133">
        <ele>226</ele>
        <time>2022-02-07T22:35:04Z</time>
      </trkpt>
      <trkpt lat="47.85849" lon="7.4854">
        <ele>226</ele>
        <time>2022-02-07T22:36:58Z</time>
      </trkpt>
      <trkpt lat="47.86017" lon="7.48654">
        <ele>225</ele>
        <time>2022-02-07T22:37:31Z</time>
      </trkpt>
      <trkpt lat="47.86066" lon="7.48671">
        <ele>224</ele>
        <time>2022-02-07T22:37:40Z</time>
      </trkpt>
      <trkpt lat="47.86282" lon="7.48732">
        <ele>223</ele>
        <time>2022-02-07T22:38:19Z</time>
      </trkpt>
      <trkpt lat="47.86742" lon="7.48853">
        <ele>224</ele>
        <time>2022-02-07T22:39:42Z</time>
      </trkpt>
      <trkpt lat="47.87823" lon="7.49145">
        <ele>221</ele>
        <time>2022-02-07T22:42:57Z</time>
      </trkpt>
      <trkpt lat="47.88361" lon="7.49285">
        <ele>221</ele>
        <time>2022-02-07T22:44:35Z</time>
      </trkpt>
      <trkpt lat="47.88363" lon="7.49318">
        <ele>222</ele>
        <time>2022-02-07T22:44:39Z</time>
      </trkpt>
      <trkpt lat="47.88521" lon="7.50145">
        <ele>218</ele>
        <time>2022-02-07T22:46:21Z</time>
      </trkpt>
      <trkpt lat="47.88598" lon="7.5057">
        <ele>218</ele>
        <time>2022-02-07T22:47:14Z</time>
      </trkpt>
      <trkpt lat="47.8866" lon="7.50879">
        <ele>218</ele>
        <time>2022-02-07T22:47:52Z</time>
      </trkpt>
      <trkpt lat="47.88684" lon="7.51016">
        <ele>215</ele>
        <time>2022-02-07T22:48:09Z</time>
      </trkpt>
      <trkpt lat="47.88683" lon="7.51062">
        <ele>214</ele>
        <time>2022-02-07T22:48:15Z</time>
      </trkpt>
      <trkpt lat="47.8858" lon="7.51791">
        <ele>212</ele>
        <time>2022-02-07T22:49:44Z</time>
      </trkpt>
      <trkpt lat="47.88548" lon="7.52036">
        <ele>212</ele>
        <time>2022-02-07T22:50:13Z</time>
      </trkpt>
      <trkpt lat="47.88504" lon="7.52513">
        <ele>210</ele>
        <time>2022-02-07T22:51:11Z</time>
      </trkpt>
      <trkpt lat="47.88451" lon="7.53011">
        <ele>210</ele>
        <time>2022-02-07T22:52:11Z</time>
      </trkpt>
      <trkpt lat="47.88411" lon="7.53254">
        <ele>211</ele>
        <time>2022-02-07T22:52:41Z</time>
      </trkpt>
      <trkpt lat="47.88401" lon="7.53337">
        <ele>210</ele>
        <time>2022-02-07T22:52:51Z</time>
      </trkpt>
      <trkpt lat="47.88391" lon="7.53342">
        <ele>210</ele>
        <time>2022-02-07T22:52:53Z</time>
      </trkpt>
      <trkpt lat="47.88388" lon="7.53359">
        <ele>210</ele>
        <time>2022-02-07T22:52:55Z</time>
      </trkpt>
      <trkpt lat="47.88396" lon="7.53371">
        <ele>210</ele>
        <time>2022-02-07T22:52:57Z</time>
      </trkpt>
      <trkpt lat="47.88399" lon="7.53372">
        <ele>210</ele>
        <time>2022-02-07T22:52:57Z</time>
      </trkpt>
      <trkpt lat="47.88406" lon="7.53369">
        <ele>210</ele>
        <time>2022-02-07T22:52:59Z</time>
      </trkpt>
      <trkpt lat="47.88411" lon="7.53382">
        <ele>210</ele>
        <time>2022-02-07T22:53:00Z</time>
      </trkpt>
      <trkpt lat="47.88428" lon="7.53403">
        <ele>210</ele>
        <time>2022-02-07T22:53:04Z</time>
      </trkpt>
      <trkpt lat="47.88592" lon="7.53548">
        <ele>210</ele>
        <time>2022-02-07T22:53:38Z</time>
      </trkpt>
      <trkpt lat="47.88709" lon="7.53628">
        <ele>210</ele>
        <time>2022-02-07T22:54:01Z</time>
      </trkpt>
      <trkpt lat="47.8872" lon="7.53633">
        <ele>210</ele>
        <time>2022-02-07T22:54:03Z</time>
      </trkpt>
      <trkpt lat="47.88766" lon="7.53633">
        <ele>210</ele>
        <time>2022-02-07T22:54:11Z</time>
      </trkpt>
      <trkpt lat="47.88881" lon="7.53625">
        <ele>208</ele>
        <time>2022-02-07T22:54:32Z</time>
      </trkpt>
      <trkpt lat="47.88973" lon="7.53631">
        <ele>208</ele>
        <time>2022-02-07T22:54:48Z</time>
      </trkpt>
      <trkpt lat="47.88973" lon="7.53639">
        <ele>208</ele>
        <time>2022-02-07T22:54:49Z</time>
      </trkpt>
      <trkpt lat="47.88977" lon="7.53641">
        <ele>208</ele>
        <time>2022-02-07T22:54:50Z</time>
      </trkpt>
      <trkpt lat="47.89089" lon="7.53653">
        <ele>206</ele>
        <time>2022-02-07T22:55:10Z</time>
      </trkpt>
      <trkpt lat="47.89613" lon="7.53724">
        <ele>207</ele>
        <time>2022-02-07T22:56:44Z</time>
      </trkpt>
      <trkpt lat="47.89683" lon="7.53726">
        <ele>207</ele>
        <time>2022-02-07T22:56:56Z</time>
      </trkpt>
      <trkpt lat="47.89842" lon="7.53741">
        <ele>208</ele>
        <time>2022-02-07T22:57:24Z</time>
      </trkpt>
      <trkpt lat="47.89987" lon="7.53768">
        <ele>208</ele>
        <time>2022-02-07T22:57:50Z</time>
      </trkpt>
      <trkpt lat="47.90557" lon="7.53835">
        <ele>207</ele>
        <time>2022-02-07T22:59:32Z</time>
      </trkpt>
      <trkpt lat="47.90563" lon="7.53833">
        <ele>207</ele>
        <time>2022-02-07T22:59:33Z</time>
      </trkpt>
      <trkpt lat="47.90565" lon="7.53824">
        <ele>207</ele>
        <time>2022-02-07T22:59:34Z</time>
      </trkpt>
      <trkpt lat="47.91067" lon="7.5389">
        <ele>206</ele>
        <time>2022-02-07T23:01:04Z</time>
      </trkpt>
      <trkpt lat="47.91121" lon="7.53894">
        <ele>206</ele>
        <time>2022-02-07T23:01:14Z</time>
      </trkpt>
      <trkpt lat="47.91143" lon="7.53892">
        <ele>206</ele>
        <time>2022-02-07T23:01:18Z</time>
      </trkpt>
      <trkpt lat="47.91269" lon="7.53855">
        <ele>207</ele>
        <time>2022-02-07T23:01:40Z</time>
      </trkpt>
      <trkpt lat="47.9138" lon="7.53833">
        <ele>207</ele>
        <time>2022-02-07T23:02:00Z</time>
      </trkpt>
      <trkpt lat="47.9141" lon="7.53824">
        <ele>207</ele>
        <time>2022-02-07T23:02:06Z</time>
      </trkpt>
      <trkpt lat="47.91428" lon="7.53816">
        <ele>207</ele>
        <time>2022-02-07T23:02:09Z</time>
      </trkpt>
      <trkpt lat="47.91545" lon="7.53736">
        <ele>208</ele>
        <time>2022-02-07T23:02:32Z</time>
      </trkpt>
      <trkpt lat="47.91672" lon="7.53654">
        <ele>207</ele>
        <time>2022-02-07T23:02:57Z</time>
      </trkpt>
      <trkpt lat="47.91678" lon="7.53644">
        <ele>207</ele>
        <time>2022-02-07T23:02:58Z</time>
      </trkpt>
      <trkpt lat="47.91678" lon="7.53621">
        <ele>206</ele>
        <time>2022-02-07T23:03:01Z</time>
      </trkpt>
      <trkpt lat="47.91705" lon="7.53444">
        <ele>207</ele>
        <time>2022-02-07T23:03:23Z</time>
      </trkpt>
      <trkpt lat="47.91725" lon="7.53385">
        <ele>208</ele>
        <time>2022-02-07T23:03:31Z</time>
      </trkpt>
      <trkpt lat="47.9176" lon="7.53295">
        <ele>208</ele>
        <time>2022-02-07T23:03:43Z</time>
      </trkpt>
      <trkpt lat="47.91777" lon="7.53199">
        <ele>209</ele>
        <time>2022-02-07T23:03:55Z</time>
      </trkpt>
      <trkpt lat="47.92535" lon="7.53399">
        <ele>204</ele>
        <time>2022-02-07T23:06:12Z</time>
      </trkpt>
      <trkpt lat="47.92736" lon="7.53457">
        <ele>203</ele>
        <time>2022-02-07T23:06:48Z</time>
      </trkpt>
      <trkpt lat="47.92785" lon="7.53476">
        <ele>203</ele>
        <time>2022-02-07T23:06:57Z</time>
      </trkpt>
      <trkpt lat="47.92837" lon="7.53497">
        <ele>203</ele>
        <time>2022-02-07T23:07:07Z</time>
      </trkpt>
      <trkpt lat="47.92974" lon="7.53561">
        <ele>204</ele>
        <time>2022-02-07T23:07:32Z</time>
      </trkpt>
      <trkpt lat="47.9343" lon="7.53779">
        <ele>203</ele>
        <time>2022-02-07T23:08:58Z</time>
      </trkpt>
      <trkpt lat="47.93578" lon="7.53847">
        <ele>203</ele>
        <time>2022-02-07T23:09:25Z</time>
      </trkpt>
      <trkpt lat="47.93602" lon="7.53861">
        <ele>203</ele>
        <time>2022-02-07T23:09:30Z</time>
      </trkpt>
      <trkpt lat="47.94417" lon="7.54249">
        <ele>199</ele>
        <time>2022-02-07T23:12:02Z</time>
      </trkpt>
      <trkpt lat="47.94424" lon="7.54245">
        <ele>199</ele>
        <time>2022-02-07T23:12:03Z</time>
      </trkpt>
      <trkpt lat="47.94545" lon="7.54076">
        <ele>200</ele>
        <time>2022-02-07T23:12:33Z</time>
      </trkpt>
      <trkpt lat="47.94574" lon="7.54023">
        <ele>199</ele>
        <time>2022-02-07T23:12:41Z</time>
      </trkpt>
      <trkpt lat="47.94613" lon="7.53915">
        <ele>199</ele>
        <time>2022-02-07T23:12:55Z</time>
      </trkpt>
      <trkpt lat="47.94653" lon="7.53849">
        <ele>201</ele>
        <time>2022-02-07T23:13:06Z</time>
      </trkpt>
      <trkpt lat="47.94678" lon="7.53815">
        <ele>201</ele>
        <time>2022-02-07T23:13:12Z</time>
      </trkpt>
      <trkpt lat="47.94701" lon="7.53791">
        <ele>200</ele>
        <time>2022-02-07T23:13:17Z</time>
      </trkpt>
      <trkpt lat="47.94757" lon="7.53751">
        <ele>201</ele>
        <time>2022-02-07T23:13:28Z</time>
      </trkpt>
      <trkpt lat="47.9479" lon="7.53731">
        <ele>200</ele>
        <time>2022-02-07T23:13:34Z</time>
      </trkpt>
      <trkpt lat="47.94828" lon="7.53716">
        <ele>200</ele>
        <time>2022-02-07T23:13:41Z</time>
      </trkpt>
      <trkpt lat="47.94868" lon="7.53705">
        <ele>200</ele>
        <time>2022-02-07T23:13:49Z</time>
      </trkpt>
      <trkpt lat="47.94945" lon="7.53696">
        <ele>200</ele>
        <time>2022-02-07T23:14:02Z</time>
      </trkpt>
      <trkpt lat="47.94971" lon="7.53698">
        <ele>200</ele>
        <time>2022-02-07T23:14:07Z</time>
      </trkpt>
      <trkpt lat="47.95106" lon="7.53749">
        <ele>200</ele>
        <time>2022-02-07T23:14:32Z</time>
      </trkpt>
      <trkpt lat="47.95154" lon="7.53758">
        <ele>200</ele>
        <time>2022-02-07T23:14:40Z</time>
      </trkpt>
      <trkpt lat="47.95359" lon="7.53741">
        <ele>201</ele>
        <time>2022-02-07T23:15:17Z</time>
      </trkpt>
      <trkpt lat="47.95418" lon="7.53742">
        <ele>200</ele>
        <time>2022-02-07T23:15:27Z</time>
      </trkpt>
      <trkpt lat="47.95517" lon="7.53757">
        <ele>199</ele>
        <time>2022-02-07T23:15:45Z</time>
      </trkpt>
      <trkpt lat="47.95759" lon="7.53805">
        <ele>200</ele>
        <time>2022-02-07T23:16:29Z</time>
      </trkpt>
      <trkpt lat="47.95796" lon="7.53805">
        <ele>199</ele>
        <time>2022-02-07T23:16:35Z</time>
      </trkpt>
      <trkpt lat="47.95828" lon="7.53799">
        <ele>199</ele>
        <time>2022-02-07T23:16:41Z</time>
      </trkpt>
      <trkpt lat="47.9587" lon="7.53786">
        <ele>199</ele>
        <time>2022-02-07T23:16:49Z</time>
      </trkpt>
      <trkpt lat="47.96059" lon="7.53713">
        <ele>199</ele>
        <time>2022-02-07T23:17:23Z</time>
      </trkpt>
      <trkpt lat="47.96133" lon="7.53678">
        <ele>199</ele>
        <time>2022-02-07T23:17:37Z</time>
      </trkpt>
      <trkpt lat="47.96274" lon="7.53606">
        <ele>200</ele>
        <time>2022-02-07T23:18:04Z</time>
      </trkpt>
      <trkpt lat="47.96315" lon="7.53607">
        <ele>200</ele>
        <time>2022-02-07T23:18:11Z</time>
      </trkpt>
      <trkpt lat="47.9635" lon="7.536">
        <ele>200</ele>
        <time>2022-02-07T23:18:17Z</time>
      </trkpt>
      <trkpt lat="47.96438" lon="7.53598">
        <ele>198</ele>
        <time>2022-02-07T23:18:33Z</time>
      </trkpt>
      <trkpt lat="47.96438" lon="7.53612">
        <ele>198</ele>
        <time>2022-02-07T23:18:35Z</time>
      </trkpt>
      <trkpt lat="47.9647" lon="7.53612">
        <ele>197</ele>
        <time>2022-02-07T23:18:40Z</time>
      </trkpt>
      <trkpt lat="47.96569" lon="7.53631">
        <ele>198</ele>
        <time>2022-02-07T23:18:58Z</time>
      </trkpt>
      <trkpt lat="47.96618" lon="7.53637">
        <ele>199</ele>
        <time>2022-02-07T23:19:07Z</time>
      </trkpt>
      <trkpt lat="47.96781" lon="7.53643">
        <ele>200</ele>
        <time>2022-02-07T23:19:36Z</time>
      </trkpt>
      <trkpt lat="47.96804" lon="7.53646">
        <ele>199</ele>
        <time>2022-02-07T23:19:40Z</time>
      </trkpt>
      <trkpt lat="47.96828" lon="7.53655">
        <ele>198</ele>
        <time>2022-02-07T23:19:44Z</time>
      </trkpt>
      <trkpt lat="47.96857" lon="7.53675">
        <ele>198</ele>
        <time>2022-02-07T23:19:50Z</time>
      </trkpt>
      <trkpt lat="47.96885" lon="7.53699">
        <ele>199</ele>
        <time>2022-02-07T23:19:56Z</time>
      </trkpt>
      <trkpt lat="47.96908" lon="7.53726">
        <ele>199</ele>
        <time>2022-02-07T23:20:01Z</time>
      </trkpt>
      <trkpt lat="47.96953" lon="7.53803">
        <ele>198</ele>
        <time>2022-02-07T23:20:13Z</time>
      </trkpt>
      <trkpt lat="47.96971" lon="7.53852">
        <ele>198</ele>
        <time>2022-02-07T23:20:20Z</time>
      </trkpt>
      <trkpt lat="47.96985" lon="7.53917">
        <ele>199</ele>
        <time>2022-02-07T23:20:28Z</time>
      </trkpt>
      <trkpt lat="47.96993" lon="7.53931">
        <ele>199</ele>
        <time>2022-02-07T23:20:30Z</time>
      </trkpt>
      <trkpt lat="47.96987" lon="7.53948">
        <ele>198</ele>
        <time>2022-02-07T23:20:32Z</time>
      </trkpt>
      <trkpt lat="47.96969" lon="7.54017">
        <ele>197</ele>
        <time>2022-02-07T23:20:41Z</time>
      </trkpt>
      <trkpt lat="47.96962" lon="7.54053">
        <ele>197</ele>
        <time>2022-02-07T23:20:46Z</time>
      </trkpt>
      <trkpt lat="47.96913" lon="7.54237">
        <ele>196</ele>
        <time>2022-02-07T23:21:09Z</time>
      </trkpt>
      <trkpt lat="47.96907" lon="7.54429">
        <ele>197</ele>
        <time>2022-02-07T23:21:32Z</time>
      </trkpt>
      <trkpt lat="47.96905" lon="7.54609">
        <ele>196</ele>
        <time>2022-02-07T23:21:54Z</time>
      </trkpt>
      <trkpt lat="47.96894" lon="7.54724">
        <ele>197</ele>
        <time>2022-02-07T23:22:07Z</time>
      </trkpt>
      <trkpt lat="47.96883" lon="7.54797">
        <ele>196</ele>
        <time>2022-02-07T23:22:16Z</time>
      </trkpt>
      <trkpt lat="47.96875" lon="7.54835">
        <ele>196</ele>
        <time>2022-02-07T23:22:21Z</time>
      </trkpt>
      <trkpt lat="47.96843" lon="7.54943">
        <ele>196</ele>
        <time>2022-02-07T23:22:35Z</time>
      </trkpt>
      <trkpt lat="47.96767" lon="7.5518">
        <ele>195</ele>
        <time>2022-02-07T23:23:06Z</time>
      </trkpt>
      <trkpt lat="47.9675" lon="7.55241">
        <ele>196</ele>
        <time>2022-02-07T23:23:14Z</time>
      </trkpt>
      <trkpt lat="47.96768" lon="7.5525">
        <ele>196</ele>
        <time>2022-02-07T23:23:18Z</time>
      </trkpt>
      <trkpt lat="47.96793" lon="7.55255">
        <ele>195</ele>
        <time>2022-02-07T23:23:22Z</time>
      </trkpt>
      <trkpt lat="47.96915" lon="7.5526">
        <ele>195</ele>
        <time>2022-02-07T23:23:44Z</time>
      </trkpt>
      <trkpt lat="47.96996" lon="7.5526">
        <ele>194</ele>
        <time>2022-02-07T23:23:58Z</time>
      </trkpt>
      <trkpt lat="47.97111" lon="7.55255">
        <ele>196</ele>
        <time>2022-02-07T23:24:19Z</time>
      </trkpt>
      <trkpt lat="47.97679" lon="7.55193">
        <ele>193</ele>
        <time>2022-02-07T23:26:00Z</time>
      </trkpt>
      <trkpt lat="47.98266" lon="7.55123">
        <ele>193</ele>
        <time>2022-02-07T23:27:45Z</time>
      </trkpt>
      <trkpt lat="47.98346" lon="7.55119">
        <ele>192</ele>
        <time>2022-02-07T23:27:59Z</time>
      </trkpt>
      <trkpt lat="47.98791" lon="7.55063">
        <ele>194</ele>
        <time>2022-02-07T23:29:19Z</time>
      </trkpt>
      <trkpt lat="47.9893" lon="7.55044">
        <ele>195</ele>
        <time>2022-02-07T23:29:43Z</time>
      </trkpt>
      <trkpt lat="47.98942" lon="7.55039">
        <ele>194</ele>
        <time>2022-02-07T23:29:46Z</time>
      </trkpt>
      <trkpt lat="47.98957" lon="7.55042">
        <ele>195</ele>
        <time>2022-02-07T23:29:48Z</time>
      </trkpt>
      <trkpt lat="47.99179" lon="7.55016">
        <ele>193</ele>
        <time>2022-02-07T23:30:28Z</time>
      </trkpt>
      <trkpt lat="47.9926" lon="7.55004">
        <ele>193</ele>
        <time>2022-02-07T23:30:42Z</time>
      </trkpt>
      <trkpt lat="47.9951" lon="7.5498">
        <ele>193</ele>
        <time>2022-02-07T23:31:27Z</time>
      </trkpt>
      <trkpt lat="47.99606" lon="7.54966">
        <ele>193</ele>
        <time>2022-02-07T23:31:44Z</time>
      </trkpt>
      <trkpt lat="47.99758" lon="7.54954">
        <ele>191</ele>
        <time>2022-02-07T23:32:11Z</time>
      </trkpt>
      <trkpt lat="47.99838" lon="7.54956">
        <ele>192</ele>
        <time>2022-02-07T23:32:25Z</time>
      </trkpt>
      <trkpt lat="47.99885" lon="7.54962">
        <ele>192</ele>
        <time>2022-02-07T23:32:34Z</time>
      </trkpt>
      <trkpt lat="47.99956" lon="7.54975">
        <ele>193</ele>
        <time>2022-02-07T23:32:47Z</time>
      </trkpt>
      <trkpt lat="48.00032" lon="7.54998">
        <ele>193</ele>
        <time>2022-02-07T23:33:00Z</time>
      </trkpt>
      <trkpt lat="48.00065" lon="7.55011">
        <ele>192</ele>
        <time>2022-02-07T23:33:06Z</time>
      </trkpt>
      <trkpt lat="48.0016" lon="7.55058">
        <ele>192</ele>
        <time>2022-02-07T23:33:24Z</time>
      </trkpt>
      <trkpt lat="48.00228" lon="7.55097">
        <ele>190</ele>
        <time>2022-02-07T23:33:37Z</time>
      </trkpt>
      <trkpt lat="48.0027" lon="7.55127">
        <ele>189</ele>
        <time>2022-02-07T23:33:46Z</time>
      </trkpt>
      <trkpt lat="48.0031" lon="7.5516">
        <ele>190</ele>
        <time>2022-02-07T23:33:54Z</time>
      </trkpt>
      <trkpt lat="48.00365" lon="7.55211">
        <ele>191</ele>
        <time>2022-02-07T23:34:05Z</time>
      </trkpt>
      <trkpt lat="48.00419" lon="7.55266">
        <ele>190</ele>
        <time>2022-02-07T23:34:17Z</time>
      </trkpt>
      <trkpt lat="48.00689" lon="7.55564">
        <ele>190</ele>
        <time>2022-02-07T23:35:17Z</time>
      </trkpt>
      <trkpt lat="48.00711" lon="7.55547">
        <ele>189</ele>
        <time>2022-02-07T23:35:21Z</time>
      </trkpt>
      <trkpt lat="48.00727" lon="7.5551">
        <ele>189</ele>
        <time>2022-02-07T23:35:26Z</time>
      </trkpt>
      <trkpt lat="48.00792" lon="7.55264">
        <ele>191</ele>
        <time>2022-02-07T23:35:58Z</time>
      </trkpt>
      <trkpt lat="48.00796" lon="7.55241">
        <ele>192</ele>
        <time>2022-02-07T23:36:00Z</time>
      </trkpt>
      <trkpt lat="48.00823" lon="7.54695">
        <ele>191</ele>
        <time>2022-02-07T23:37:06Z</time>
      </trkpt>
      <trkpt lat="48.00826" lon="7.54673">
        <ele>191</ele>
        <time>2022-02-07T23:37:08Z</time>
      </trkpt>
      <trkpt lat="48.00835" lon="7.54641">
        <ele>190</ele>
        <time>2022-02-07T23:37:12Z</time>
      </trkpt>
      <trkpt lat="48.00878" lon="7.54537">
        <ele>191</ele>
        <time>2022-02-07T23:37:27Z</time>
      </trkpt>
      <trkpt lat="48.00882" lon="7.54538">
        <ele>191</ele>
        <time>2022-02-07T23:37:28Z</time>
      </trkpt>
      <trkpt lat="48.00893" lon="7.54548">
        <ele>191</ele>
        <time>2022-02-07T23:37:30Z</time>
      </trkpt>
      <trkpt lat="48.00895" lon="7.54547">
        <ele>191</ele>
        <time>2022-02-07T23:37:30Z</time>
      </trkpt>
      <trkpt lat="48.00911" lon="7.54509">
        <ele>192</ele>
        <time>2022-02-07T23:37:36Z</time>
      </trkpt>
      <trkpt lat="48.00932" lon="7.54476">
        <ele>192</ele>
        <time>2022-02-07T23:37:41Z</time>
      </trkpt>
      <trkpt lat="48.00999" lon="7.5439">
        <ele>192</ele>
        <time>2022-02-07T23:37:57Z</time>
      </trkpt>
      <trkpt lat="48.01016" lon="7.54384">
        <ele>191</ele>
        <time>2022-02-07T23:38:00Z</time>
      </trkpt>
      <trkpt lat="48.01026" lon="7.54383">
        <ele>191</ele>
        <time>2022-02-07T23:38:02Z</time>
      </trkpt>
      <trkpt lat="48.01026" lon="7.54349">
        <ele>191</ele>
        <time>2022-02-07T23:38:06Z</time>
      </trkpt>
      <trkpt lat="48.01081" lon="7.54225">
        <ele>192</ele>
        <time>2022-02-07T23:38:24Z</time>
      </trkpt>
      <trkpt lat="48.01092" lon="7.54206">
        <ele>192</ele>
        <time>2022-02-07T23:38:27Z</time>
      </trkpt>
      <trkpt lat="48.01208" lon="7.53943">
        <ele>194</ele>
        <time>2022-02-07T23:39:04Z</time>
      </trkpt>
      <trkpt lat="48.01266" lon="7.53818">
        <ele>194</ele>
        <time>2022-02-07T23:39:22Z</time>
      </trkpt>
      <trkpt lat="48.01273" lon="7.53808">
        <ele>194</ele>
        <time>2022-02-07T23:39:24Z</time>
      </trkpt>
      <trkpt lat="48.01279" lon="7.53807">
        <ele>194</ele>
        <time>2022-02-07T23:39:25Z</time>
      </trkpt>
      <trkpt lat="48.01289" lon="7.53799">
        <ele>194</ele>
        <time>2022-02-07T23:39:27Z</time>
      </trkpt>
      <trkpt lat="48.01405" lon="7.53807">
        <ele>193</ele>
        <time>2022-02-07T23:39:48Z</time>
      </trkpt>
      <trkpt lat="48.01406" lon="7.5379">
        <ele>193</ele>
        <time>2022-02-07T23:39:50Z</time>
      </trkpt>
      <trkpt lat="48.01413" lon="7.5378">
        <ele>194</ele>
        <time>2022-02-07T23:39:51Z</time>
      </trkpt>
      <trkpt lat="48.0143" lon="7.53779">
        <ele>193</ele>
        <time>2022-02-07T23:39:54Z</time>
      </trkpt>
      <trkpt lat="48.01432" lon="7.53785">
        <ele>193</ele>
        <time>2022-02-07T23:39:55Z</time>
      </trkpt>
      <trkpt lat="48.01442" lon="7.53794">
        <ele>193</ele>
        <time>2022-02-07T23:39:57Z</time>
      </trkpt>
      <trkpt lat="48.01498" lon="7.53801">
        <ele>191</ele>
        <time>2022-02-07T23:40:07Z</time>
      </trkpt>
      <trkpt lat="48.01553" lon="7.53811">
        <ele>193</ele>
        <time>2022-02-07T23:40:17Z</time>
      </trkpt>
      <trkpt lat="48.01766" lon="7.53872">
        <ele>193</ele>
        <time>2022-02-07T23:40:56Z</time>
      </trkpt>
      <trkpt lat="48.01808" lon="7.53883">
        <ele>192</ele>
        <time>2022-02-07T23:41:03Z</time>
      </trkpt>
      <trkpt lat="48.01831" lon="7.53885">
        <ele>191</ele>
        <time>2022-02-07T23:41:07Z</time>
      </trkpt>
      <trkpt lat="48.01852" lon="7.53892">
        <ele>191</ele>
        <time>2022-02-07T23:41:11Z</time>
      </trkpt>
      <trkpt lat="48.01855" lon="7.53904">
        <ele>191</ele>
        <time>2022-02-07T23:41:13Z</time>
      </trkpt>
      <trkpt lat="48.01871" lon="7.53904">
        <ele>192</ele>
        <time>2022-02-07T23:41:16Z</time>
      </trkpt>
      <trkpt lat="48.0188" lon="7.53897">
        <ele>192</ele>
        <time>2022-02-07T23:41:17Z</time>
      </trkpt>
      <trkpt lat="48.01885" lon="7.53903">
        <ele>192</ele>
        <time>2022-02-07T23:41:19Z</time>
      </trkpt>
      <trkpt lat="48.01897" lon="7.53903">
        <ele>192</ele>
        <time>2022-02-07T23:41:21Z</time>
      </trkpt>
      <trkpt lat="48.01896" lon="7.53907">
        <ele>192</ele>
        <time>2022-02-07T23:41:21Z</time>
      </trkpt>
      <trkpt lat="48.01898" lon="7.53908">
        <ele>192</ele>
        <time>2022-02-07T23:41:22Z</time>
      </trkpt>
      <trkpt lat="48.01962" lon="7.53913">
        <ele>191</ele>
        <time>2022-02-07T23:41:33Z</time>
      </trkpt>
      <trkpt lat="48.02028" lon="7.53903">
        <ele>191</ele>
        <time>2022-02-07T23:41:45Z</time>
      </trkpt>
      <trkpt lat="48.02234" lon="7.53882">
        <ele>191</ele>
        <time>2022-02-07T23:42:21Z</time>
      </trkpt>
      <trkpt lat="48.02345" lon="7.53854">
        <ele>192</ele>
        <time>2022-02-07T23:42:42Z</time>
      </trkpt>
      <trkpt lat="48.02393" lon="7.53849">
        <ele>192</ele>
        <time>2022-02-07T23:42:50Z</time>
      </trkpt>
      <trkpt lat="48.02423" lon="7.53849">
        <ele>192</ele>
        <time>2022-02-07T23:42:55Z</time>
      </trkpt>
      <trkpt lat="48.02598" lon="7.53879">
        <ele>191</ele>
        <time>2022-02-07T23:43:27Z</time>
      </trkpt>
      <trkpt lat="48.02683" lon="7.53884">
        <ele>190</ele>
        <time>2022-02-07T23:43:42Z</time>
      </trkpt>
      <trkpt lat="48.02929" lon="7.53914">
        <ele>187</ele>
        <time>2022-02-07T23:44:26Z</time>
      </trkpt>
      <trkpt lat="48.03063" lon="7.53926">
        <ele>189</ele>
        <time>2022-02-07T23:44:50Z</time>
      </trkpt>
      <trkpt lat="48.03187" lon="7.53943">
        <ele>189</ele>
        <time>2022-02-07T23:45:12Z</time>
      </trkpt>
      <trkpt lat="48.03426" lon="7.53967">
        <ele>188</ele>
        <time>2022-02-07T23:45:54Z</time>
      </trkpt>
      <trkpt lat="48.0359" lon="7.5398">
        <ele>189</ele>
        <time>2022-02-07T23:46:24Z</time>
      </trkpt>
      <trkpt lat="48.03649" lon="7.5398">
        <ele>189</ele>
        <time>2022-02-07T23:46:34Z</time>
      </trkpt>
      <trkpt lat="48.03689" lon="7.53977">
        <ele>189</ele>
        <time>2022-02-07T23:46:41Z</time>
      </trkpt>
      <trkpt lat="48.0373" lon="7.5397">
        <ele>189</ele>
        <time>2022-02-07T23:46:49Z</time>
      </trkpt>
      <trkpt lat="48.03751" lon="7.54005">
        <ele>190</ele>
        <time>2022-02-07T23:46:54Z</time>
      </trkpt>
      <trkpt lat="48.03771" lon="7.54022">
        <ele>190</ele>
        <time>2022-02-07T23:46:58Z</time>
      </trkpt>
      <trkpt lat="48.03791" lon="7.53994">
        <ele>190</ele>
        <time>2022-02-07T23:47:03Z</time>
      </trkpt>
      <trkpt lat="48.03801" lon="7.53997">
        <ele>189</ele>
        <time>2022-02-07T23:47:05Z</time>
      </trkpt>
      <trkpt lat="48.03807" lon="7.53993">
        <ele>189</ele>
        <time>2022-02-07T23:47:06Z</time>
      </trkpt>
      <trkpt lat="48.03812" lon="7.53976">
        <ele>189</ele>
        <time>2022-02-07T23:47:08Z</time>
      </trkpt>
      <trkpt lat="48.03828" lon="7.53957">
        <ele>190</ele>
        <time>2022-02-07T23:47:12Z</time>
      </trkpt>
      <trkpt lat="48.03837" lon="7.53953">
        <ele>190</ele>
        <time>2022-02-07T23:47:14Z</time>
      </trkpt>
      <trkpt lat="48.04127" lon="7.53916">
        <ele>192</ele>
        <time>2022-02-07T23:48:06Z</time>
      </trkpt>
      <trkpt lat="48.04141" lon="7.53803">
        <ele>191</ele>
        <time>2022-02-07T23:48:19Z</time>
      </trkpt>
      <trkpt lat="48.04157" lon="7.53745">
        <ele>189</ele>
        <time>2022-02-07T23:48:27Z</time>
      </trkpt>
      <trkpt lat="48.04177" lon="7.53687">
        <ele>188</ele>
        <time>2022-02-07T23:48:34Z</time>
      </trkpt>
      <trkpt lat="48.04207" lon="7.53615">
        <ele>187</ele>
        <time>2022-02-07T23:48:45Z</time>
      </trkpt>
      <trkpt lat="48.04234" lon="7.53561">
        <ele>187</ele>
        <time>2022-02-07T23:48:53Z</time>
      </trkpt>
      <trkpt lat="48.04271" lon="7.53496">
        <ele>189</ele>
        <time>2022-02-07T23:49:03Z</time>
      </trkpt>
      <trkpt lat="48.0445" lon="7.53209">
        <ele>188</ele>
        <time>2022-02-07T23:49:49Z</time>
      </trkpt>
      <trkpt lat="48.04447" lon="7.53197">
        <ele>187</ele>
        <time>2022-02-07T23:49:51Z</time>
      </trkpt>
      <trkpt lat="48.04574" lon="7.5296">
        <ele>189</ele>
        <time>2022-02-07T23:50:27Z</time>
      </trkpt>
      <trkpt lat="48.04838" lon="7.52971">
        <ele>189</ele>
        <time>2022-02-07T23:51:14Z</time>
      </trkpt>
      <trkpt lat="48.05248" lon="7.52994">
        <ele>189</ele>
        <time>2022-02-07T23:52:27Z</time>
      </trkpt>
      <trkpt lat="48.05463" lon="7.53003">
        <ele>189</ele>
        <time>2022-02-07T23:53:05Z</time>
      </trkpt>
      <trkpt lat="48.05496" lon="7.53007">
        <ele>189</ele>
        <time>2022-02-07T23:53:11Z</time>
      </trkpt>
      <trkpt lat="48.05676" lon="7.53014">
        <ele>189</ele>
        <time>2022-02-07T23:53:43Z</time>
      </trkpt>
      <trkpt lat="48.0637" lon="7.53051">
        <ele>191</ele>
        <time>2022-02-07T23:55:47Z</time>
      </trkpt>
      <trkpt lat="48.06445" lon="7.53062">
        <ele>191</ele>
        <time>2022-02-07T23:56:00Z</time>
      </trkpt>
      <trkpt lat="48.06501" lon="7.53058">
        <ele>192</ele>
        <time>2022-02-07T23:56:10Z</time>
      </trkpt>
      <trkpt lat="48.06881" lon="7.53085">
        <ele>186</ele>
        <time>2022-02-07T23:57:18Z</time>
      </trkpt>
      <trkpt lat="48.06991" lon="7.53086">
        <ele>187</ele>
        <time>2022-02-07T23:57:37Z</time>
      </trkpt>
      <trkpt lat="48.07161" lon="7.53093">
        <ele>187</ele>
        <time>2022-02-07T23:58:08Z</time>
      </trkpt>
      <trkpt lat="48.07268" lon="7.53102">
        <ele>186</ele>
        <time>2022-02-07T23:58:27Z</time>
      </trkpt>
      <trkpt lat="48.07304" lon="7.53112">
        <ele>186</ele>
        <time>2022-02-07T23:58:33Z</time>
      </trkpt>
      <trkpt lat="48.07375" lon="7.5311">
        <ele>186</ele>
        <time>2022-02-07T23:58:46Z</time>
      </trkpt>
      <trkpt lat="48.07574" lon="7.53122">
        <ele>184</ele>
        <time>2022-02-07T23:59:21Z</time>
      </trkpt>
      <trkpt lat="48.07848" lon="7.53131">
        <ele>185</ele>
        <time>2022-02-08T00:00:10Z</time>
      </trkpt>
      <trkpt lat="48.0788" lon="7.53122">
        <ele>185</ele>
        <time>2022-02-08T00:00:16Z</time>
      </trkpt>
      <trkpt lat="48.07893" lon="7.531">
        <ele>185</ele>
        <time>2022-02-08T00:00:19Z</time>
      </trkpt>
      <trkpt lat="48.07899" lon="7.53085">
        <ele>184</ele>
        <time>2022-02-08T00:00:21Z</time>
      </trkpt>
      <trkpt lat="48.0791" lon="7.53085">
        <ele>184</ele>
        <time>2022-02-08T00:00:23Z</time>
      </trkpt>
      <trkpt lat="48.0793" lon="7.53096">
        <ele>185</ele>
        <time>2022-02-08T00:00:27Z</time>
      </trkpt>
      <trkpt lat="48.07962" lon="7.53098">
        <ele>186</ele>
        <time>2022-02-08T00:00:33Z</time>
      </trkpt>
      <trkpt lat="48.0811" lon="7.53102">
        <ele>188</ele>
        <time>2022-02-08T00:00:59Z</time>
      </trkpt>
      <trkpt lat="48.08188" lon="7.53109">
        <ele>189</ele>
        <time>2022-02-08T00:01:13Z</time>
      </trkpt>
      <trkpt lat="48.08569" lon="7.5313">
        <ele>187</ele>
        <time>2022-02-08T00:02:21Z</time>
      </trkpt>
      <trkpt lat="48.09247" lon="7.53162">
        <ele>187</ele>
        <time>2022-02-08T00:04:22Z</time>
      </trkpt>
      <trkpt lat="48.09501" lon="7.53179">
        <ele>187</ele>
        <time>2022-02-08T00:05:07Z</time>
      </trkpt>
      <trkpt lat="48.09577" lon="7.53187">
        <ele>186</ele>
        <time>2022-02-08T00:05:20Z</time>
      </trkpt>
      <trkpt lat="48.09617" lon="7.53183">
        <ele>186</ele>
        <time>2022-02-08T00:05:28Z</time>
      </trkpt>
      <trkpt lat="48.1028" lon="7.53219">
        <ele>185</ele>
        <time>2022-02-08T00:07:26Z</time>
      </trkpt>
      <trkpt lat="48.10717" lon="7.53238">
        <ele>183</ele>
        <time>2022-02-08T00:08:43Z</time>
      </trkpt>
      <trkpt lat="48.10794" lon="7.53221">
        <ele>184</ele>
        <time>2022-02-08T00:08:57Z</time>
      </trkpt>
      <trkpt lat="48.10802" lon="7.53216">
        <ele>185</ele>
        <time>2022-02-08T00:08:59Z</time>
      </trkpt>
      <trkpt lat="48.10806" lon="7.53194">
        <ele>185</ele>
        <time>2022-02-08T00:09:02Z</time>
      </trkpt>
      <trkpt lat="48.1079" lon="7.52743">
        <ele>181</ele>
        <time>2022-02-08T00:09:55Z</time>
      </trkpt>
      <trkpt lat="48.10797" lon="7.52732">
        <ele>181</ele>
        <time>2022-02-08T00:09:57Z</time>
      </trkpt>
      <trkpt lat="48.10797" lon="7.5272">
        <ele>182</ele>
        <time>2022-02-08T00:09:58Z</time>
      </trkpt>
      <trkpt lat="48.1079" lon="7.52716">
        <ele>182</ele>
        <time>2022-02-08T00:10:00Z</time>
      </trkpt>
      <trkpt lat="48.10787" lon="7.5265">
        <ele>184</ele>
        <time>2022-02-08T00:10:08Z</time>
      </trkpt>
      <trkpt lat="48.10784" lon="7.52665">
        <ele>184</ele>
        <time>2022-02-08T00:10:09Z</time>
      </trkpt>
      <trkpt lat="48.10783" lon="7.52716">
        <ele>182</ele>
        <time>2022-02-08T00:10:16Z</time>
      </trkpt>
      <trkpt lat="48.10787" lon="7.52726">
        <ele>182</ele>
        <time>2022-02-08T00:10:17Z</time>
      </trkpt>
      <trkpt lat="48.10814" lon="7.52723">
        <ele>181</ele>
        <time>2022-02-08T00:10:22Z</time>
      </trkpt>
      <trkpt lat="48.10827" lon="7.53193">
        <ele>185</ele>
        <time>2022-02-08T00:11:18Z</time>
      </trkpt>
      <trkpt lat="48.10832" lon="7.53216">
        <ele>185</ele>
        <time>2022-02-08T00:11:21Z</time>
      </trkpt>
      <trkpt lat="48.10843" lon="7.53234">
        <ele>185</ele>
        <time>2022-02-08T00:11:23Z</time>
      </trkpt>
      <trkpt lat="48.10859" lon="7.53247">
        <ele>185</ele>
        <time>2022-02-08T00:11:27Z</time>
      </trkpt>
      <trkpt lat="48.11258" lon="7.53269">
        <ele>182</ele>
        <time>2022-02-08T00:12:38Z</time>
      </trkpt>
      <trkpt lat="48.11513" lon="7.5328">
        <ele>182</ele>
        <time>2022-02-08T00:13:23Z</time>
      </trkpt>
      <trkpt lat="48.11598" lon="7.53289">
        <ele>183</ele>
        <time>2022-02-08T00:13:38Z</time>
      </trkpt>
      <trkpt lat="48.11613" lon="7.53295">
        <ele>183</ele>
        <time>2022-02-08T00:13:41Z</time>
      </trkpt>
      <trkpt lat="48.11658" lon="7.53298">
        <ele>184</ele>
        <time>2022-02-08T00:13:49Z</time>
      </trkpt>
      <trkpt lat="48.11663" lon="7.53296">
        <ele>184</ele>
        <time>2022-02-08T00:13:50Z</time>
      </trkpt>
      <trkpt lat="48.11668" lon="7.53289">
        <ele>184</ele>
        <time>2022-02-08T00:13:51Z</time>
      </trkpt>
      <trkpt lat="48.12231" lon="7.53316">
        <ele>181</ele>
        <time>2022-02-08T00:15:31Z</time>
      </trkpt>
      <trkpt lat="48.1234" lon="7.53317">
        <ele>182</ele>
        <time>2022-02-08T00:15:51Z</time>
      </trkpt>
      <trkpt lat="48.12478" lon="7.53323">
        <ele>183</ele>
        <time>2022-02-08T00:16:15Z</time>
      </trkpt>
      <trkpt lat="48.12504" lon="7.53331">
        <ele>184</ele>
        <time>2022-02-08T00:16:20Z</time>
      </trkpt>
      <trkpt lat="48.12535" lon="7.53335">
        <ele>184</ele>
        <time>2022-02-08T00:16:26Z</time>
      </trkpt>
      <trkpt lat="48.12657" lon="7.53338">
        <ele>184</ele>
        <time>2022-02-08T00:16:47Z</time>
      </trkpt>
      <trkpt lat="48.13361" lon="7.53374">
        <ele>184</ele>
        <time>2022-02-08T00:18:53Z</time>
      </trkpt>
      <trkpt lat="48.1349" lon="7.53382">
        <ele>183</ele>
        <time>2022-02-08T00:19:16Z</time>
      </trkpt>
      <trkpt lat="48.13551" lon="7.53393">
        <ele>181</ele>
        <time>2022-02-08T00:19:27Z</time>
      </trkpt>
      <trkpt lat="48.13594" lon="7.53386">
        <ele>181</ele>
        <time>2022-02-08T00:19:34Z</time>
      </trkpt>
      <trkpt lat="48.14204" lon="7.53418">
        <ele>183</ele>
        <time>2022-02-08T00:21:23Z</time>
      </trkpt>
      <trkpt lat="48.14322" lon="7.53421">
        <ele>183</ele>
        <time>2022-02-08T00:21:44Z</time>
      </trkpt>
      <trkpt lat="48.14922" lon="7.53458">
        <ele>182</ele>
        <time>2022-02-08T00:23:31Z</time>
      </trkpt>
      <trkpt lat="48.1513" lon="7.53466">
        <ele>179</ele>
        <time>2022-02-08T00:24:08Z</time>
      </trkpt>
      <trkpt lat="48.15262" lon="7.53475">
        <ele>179</ele>
        <time>2022-02-08T00:24:31Z</time>
      </trkpt>
      <trkpt lat="48.15369" lon="7.53478">
        <ele>179</ele>
        <time>2022-02-08T00:24:50Z</time>
      </trkpt>
      <trkpt lat="48.15903" lon="7.53506">
        <ele>176</ele>
        <time>2022-02-08T00:26:25Z</time>
      </trkpt>
      <trkpt lat="48.1595" lon="7.53511">
        <ele>176</ele>
        <time>2022-02-08T00:26:34Z</time>
      </trkpt>
      <trkpt lat="48.1596" lon="7.53518">
        <ele>176</ele>
        <time>2022-02-08T00:26:36Z</time>
      </trkpt>
      <trkpt lat="48.15994" lon="7.53519">
        <ele>176</ele>
        <time>2022-02-08T00:26:42Z</time>
      </trkpt>
      <trkpt lat="48.16008" lon="7.53514">
        <ele>176</ele>
        <time>2022-02-08T00:26:44Z</time>
      </trkpt>
      <trkpt lat="48.16017" lon="7.53507">
        <ele>176</ele>
        <time>2022-02-08T00:26:46Z</time>
      </trkpt>
      <trkpt lat="48.16053" lon="7.53496">
        <ele>177</ele>
        <time>2022-02-08T00:26:53Z</time>
      </trkpt>
      <trkpt lat="48.1606" lon="7.53488">
        <ele>177</ele>
        <time>2022-02-08T00:26:54Z</time>
      </trkpt>
      <trkpt lat="48.16066" lon="7.53464">
        <ele>176</ele>
        <time>2022-02-08T00:26:57Z</time>
      </trkpt>
      <trkpt lat="48.16086" lon="7.53476">
        <ele>177</ele>
        <time>2022-02-08T00:27:01Z</time>
      </trkpt>
      <trkpt lat="48.16146" lon="7.53475">
        <ele>176</ele>
        <time>2022-02-08T00:27:12Z</time>
      </trkpt>
      <trkpt lat="48.16172" lon="7.53483">
        <ele>176</ele>
        <time>2022-02-08T00:27:16Z</time>
      </trkpt>
      <trkpt lat="48.16193" lon="7.53513">
        <ele>176</ele>
        <time>2022-02-08T00:27:22Z</time>
      </trkpt>
      <trkpt lat="48.16201" lon="7.5352">
        <ele>175</ele>
        <time>2022-02-08T00:27:23Z</time>
      </trkpt>
      <trkpt lat="48.16439" lon="7.53534">
        <ele>174</ele>
        <time>2022-02-08T00:28:06Z</time>
      </trkpt>
      <trkpt lat="48.16888" lon="7.53555">
        <ele>173</ele>
        <time>2022-02-08T00:29:26Z</time>
      </trkpt>
      <trkpt lat="48.16911" lon="7.53531">
        <ele>172</ele>
        <time>2022-02-08T00:29:31Z</time>
      </trkpt>
      <trkpt lat="48.17005" lon="7.53547">
        <ele>174</ele>
        <time>2022-02-08T00:29:47Z</time>
      </trkpt>
      <trkpt lat="48.17098" lon="7.53585">
        <ele>173</ele>
        <time>2022-02-08T00:30:05Z</time>
      </trkpt>
      <trkpt lat="48.17098" lon="7.53605">
        <ele>173</ele>
        <time>2022-02-08T00:30:07Z</time>
      </trkpt>
      <trkpt lat="48.17101" lon="7.53613">
        <ele>174</ele>
        <time>2022-02-08T00:30:08Z</time>
      </trkpt>
      <trkpt lat="48.17106" lon="7.53618">
        <ele>174</ele>
        <time>2022-02-08T00:30:09Z</time>
      </trkpt>
      <trkpt lat="48.17127" lon="7.53627">
        <ele>174</ele>
        <time>2022-02-08T00:30:13Z</time>
      </trkpt>
      <trkpt lat="48.17212" lon="7.53681">
        <ele>175</ele>
        <time>2022-02-08T00:30:29Z</time>
      </trkpt>
      <trkpt lat="48.17268" lon="7.53721">
        <ele>175</ele>
        <time>2022-02-08T00:30:40Z</time>
      </trkpt>
      <trkpt lat="48.17336" lon="7.53777">
        <ele>174</ele>
        <time>2022-02-08T00:30:54Z</time>
      </trkpt>
      <trkpt lat="48.17558" lon="7.53945">
        <ele>176</ele>
        <time>2022-02-08T00:31:38Z</time>
      </trkpt>
      <trkpt lat="48.1781" lon="7.5414">
        <ele>174</ele>
        <time>2022-02-08T00:32:29Z</time>
      </trkpt>
      <trkpt lat="48.17832" lon="7.54162">
        <ele>175</ele>
        <time>2022-02-08T00:32:34Z</time>
      </trkpt>
      <trkpt lat="48.17861" lon="7.54185">
        <ele>174</ele>
        <time>2022-02-08T00:32:39Z</time>
      </trkpt>
      <trkpt lat="48.17865" lon="7.54191">
        <ele>174</ele>
        <time>2022-02-08T00:32:41Z</time>
      </trkpt>
      <trkpt lat="48.17875" lon="7.54198">
        <ele>174</ele>
        <time>2022-02-08T00:32:42Z</time>
      </trkpt>
      <trkpt lat="48.17885" lon="7.542">
        <ele>174</ele>
        <time>2022-02-08T00:32:44Z</time>
      </trkpt>
      <trkpt lat="48.18064" lon="7.54332">
        <ele>173</ele>
        <time>2022-02-08T00:33:20Z</time>
      </trkpt>
      <trkpt lat="48.18322" lon="7.54533">
        <ele>172</ele>
        <time>2022-02-08T00:34:11Z</time>
      </trkpt>
      <trkpt lat="48.18493" lon="7.54662">
        <ele>172</ele>
        <time>2022-02-08T00:34:46Z</time>
      </trkpt>
      <trkpt lat="48.19071" lon="7.55108">
        <ele>172</ele>
        <time>2022-02-08T00:36:41Z</time>
      </trkpt>
      <trkpt lat="48.19143" lon="7.55164">
        <ele>174</ele>
        <time>2022-02-08T00:36:56Z</time>
      </trkpt>
      <trkpt lat="48.1917" lon="7.55192">
        <ele>174</ele>
        <time>2022-02-08T00:37:01Z</time>
      </trkpt>
      <trkpt lat="48.19217" lon="7.55221">
        <ele>172</ele>
        <time>2022-02-08T00:37:11Z</time>
      </trkpt>
      <trkpt lat="48.19352" lon="7.5532">
        <ele>172</ele>
        <time>2022-02-08T00:37:37Z</time>
      </trkpt>
      <trkpt lat="48.19628" lon="7.55535">
        <ele>171</ele>
        <time>2022-02-08T00:38:33Z</time>
      </trkpt>
      <trkpt lat="48.20534" lon="7.56228">
        <ele>172</ele>
        <time>2022-02-08T00:41:34Z</time>
      </trkpt>
      <trkpt lat="48.20552" lon="7.56249">
        <ele>173</ele>
        <time>2022-02-08T00:41:38Z</time>
      </trkpt>
      <trkpt lat="48.20568" lon="7.56254">
        <ele>172</ele>
        <time>2022-02-08T00:41:40Z</time>
      </trkpt>
      <trkpt lat="48.21053" lon="7.56625">
        <ele>172</ele>
        <time>2022-02-08T00:43:17Z</time>
      </trkpt>
      <trkpt lat="48.21094" lon="7.56659">
        <ele>172</ele>
        <time>2022-02-08T00:43:26Z</time>
      </trkpt>
      <trkpt lat="48.21108" lon="7.56676">
        <ele>172</ele>
        <time>2022-02-08T00:43:29Z</time>
      </trkpt>
      <trkpt lat="48.21129" lon="7.56691">
        <ele>171</ele>
        <time>2022-02-08T00:43:33Z</time>
      </trkpt>
      <trkpt lat="48.21143" lon="7.56696">
        <ele>171</ele>
        <time>2022-02-08T00:43:36Z</time>
      </trkpt>
      <trkpt lat="48.21185" lon="7.56727">
        <ele>170</ele>
        <time>2022-02-08T00:43:44Z</time>
      </trkpt>
      <trkpt lat="48.22505" lon="7.57743">
        <ele>169</ele>
        <time>2022-02-08T00:48:08Z</time>
      </trkpt>
      <trkpt lat="48.22706" lon="7.57895">
        <ele>167</ele>
        <time>2022-02-08T00:48:48Z</time>
      </trkpt>
      <trkpt lat="48.2282" lon="7.57986">
        <ele>166</ele>
        <time>2022-02-08T00:49:11Z</time>
      </trkpt>
      <trkpt lat="48.22827" lon="7.57995">
        <ele>166</ele>
        <time>2022-02-08T00:49:13Z</time>
      </trkpt>
      <trkpt lat="48.2286" lon="7.58021">
        <ele>166</ele>
        <time>2022-02-08T00:49:19Z</time>
      </trkpt>
      <trkpt lat="48.22881" lon="7.58032">
        <ele>166</ele>
        <time>2022-02-08T00:49:23Z</time>
      </trkpt>
      <trkpt lat="48.2307" lon="7.58175">
        <ele>167</ele>
        <time>2022-02-08T00:50:01Z</time>
      </trkpt>
      <trkpt lat="48.23296" lon="7.58352">
        <ele>167</ele>
        <time>2022-02-08T00:50:46Z</time>
      </trkpt>
      <trkpt lat="48.24013" lon="7.58895">
        <ele>171</ele>
        <time>2022-02-08T00:53:09Z</time>
      </trkpt>
      <trkpt lat="48.24118" lon="7.58978">
        <ele>169</ele>
        <time>2022-02-08T00:53:30Z</time>
      </trkpt>
      <trkpt lat="48.25046" lon="7.59692">
        <ele>167</ele>
        <time>2022-02-08T00:56:36Z</time>
      </trkpt>
      <trkpt lat="48.25118" lon="7.59749">
        <ele>167</ele>
        <time>2022-02-08T00:56:50Z</time>
      </trkpt>
      <trkpt lat="48.25127" lon="7.59762">
        <ele>167</ele>
        <time>2022-02-08T00:56:52Z</time>
      </trkpt>
      <trkpt lat="48.25158" lon="7.59786">
        <ele>167</ele>
        <time>2022-02-08T00:56:59Z</time>
      </trkpt>
      <trkpt lat="48.25186" lon="7.59799">
        <ele>167</ele>
        <time>2022-02-08T00:57:04Z</time>
      </trkpt>
      <trkpt lat="48.2523" lon="7.59831">
        <ele>166</ele>
        <time>2022-02-08T00:57:12Z</time>
      </trkpt>
      <trkpt lat="48.25242" lon="7.59834">
        <ele>166</ele>
        <time>2022-02-08T00:57:15Z</time>
      </trkpt>
      <trkpt lat="48.25257" lon="7.59831">
        <ele>166</ele>
        <time>2022-02-08T00:57:17Z</time>
      </trkpt>
      <trkpt lat="48.25275" lon="7.59834">
        <ele>166</ele>
        <time>2022-02-08T00:57:21Z</time>
      </trkpt>
      <trkpt lat="48.25288" lon="7.59839">
        <ele>166</ele>
        <time>2022-02-08T00:57:23Z</time>
      </trkpt>
      <trkpt lat="48.2533" lon="7.59867">
        <ele>165</ele>
        <time>2022-02-08T00:57:31Z</time>
      </trkpt>
      <trkpt lat="48.25346" lon="7.59921">
        <ele>166</ele>
        <time>2022-02-08T00:57:38Z</time>
      </trkpt>
      <trkpt lat="48.25351" lon="7.59926">
        <ele>166</ele>
        <time>2022-02-08T00:57:39Z</time>
      </trkpt>
      <trkpt lat="48.254" lon="7.59962">
        <ele>166</ele>
        <time>2022-02-08T00:57:49Z</time>
      </trkpt>
      <trkpt lat="48.25625" lon="7.60138">
        <ele>164</ele>
        <time>2022-02-08T00:58:34Z</time>
      </trkpt>
      <trkpt lat="48.25795" lon="7.60266">
        <ele>163</ele>
        <time>2022-02-08T00:59:08Z</time>
      </trkpt>
      <trkpt lat="48.26588" lon="7.60874">
        <ele>163</ele>
        <time>2022-02-08T01:01:46Z</time>
      </trkpt>
      <trkpt lat="48.26656" lon="7.60928">
        <ele>163</ele>
        <time>2022-02-08T01:02:00Z</time>
      </trkpt>
      <trkpt lat="48.26673" lon="7.60947">
        <ele>163</ele>
        <time>2022-02-08T01:02:04Z</time>
      </trkpt>
      <trkpt lat="48.26898" lon="7.61106">
        <ele>167</ele>
        <time>2022-02-08T01:02:48Z</time>
      </trkpt>
      <trkpt lat="48.27102" lon="7.61268">
        <ele>165</ele>
        <time>2022-02-08T01:03:29Z</time>
      </trkpt>
      <trkpt lat="48.28011" lon="7.6197">
        <ele>163</ele>
        <time>2022-02-08T01:06:31Z</time>
      </trkpt>
      <trkpt lat="48.28068" lon="7.62021">
        <ele>163</ele>
        <time>2022-02-08T01:06:43Z</time>
      </trkpt>
      <trkpt lat="48.28105" lon="7.62049">
        <ele>163</ele>
        <time>2022-02-08T01:06:50Z</time>
      </trkpt>
      <trkpt lat="48.2812" lon="7.62051">
        <ele>162</ele>
        <time>2022-02-08T01:06:53Z</time>
      </trkpt>
      <trkpt lat="48.28197" lon="7.62114">
        <ele>160</ele>
        <time>2022-02-08T01:07:08Z</time>
      </trkpt>
      <trkpt lat="48.29536" lon="7.63141">
        <ele>164</ele>
        <time>2022-02-08T01:11:36Z</time>
      </trkpt>
      <trkpt lat="48.29764" lon="7.63308">
        <ele>163</ele>
        <time>2022-02-08T01:12:21Z</time>
      </trkpt>
      <trkpt lat="48.30283" lon="7.6371">
        <ele>164</ele>
        <time>2022-02-08T01:14:05Z</time>
      </trkpt>
      <trkpt lat="48.30352" lon="7.63771">
        <ele>164</ele>
        <time>2022-02-08T01:14:19Z</time>
      </trkpt>
      <trkpt lat="48.3042" lon="7.63822">
        <ele>163</ele>
        <time>2022-02-08T01:14:33Z</time>
      </trkpt>
      <trkpt lat="48.3047" lon="7.63865">
        <ele>163</ele>
        <time>2022-02-08T01:14:43Z</time>
      </trkpt>
      <trkpt lat="48.30513" lon="7.63894">
        <ele>163</ele>
        <time>2022-02-08T01:14:51Z</time>
      </trkpt>
      <trkpt lat="48.30525" lon="7.6391">
        <ele>162</ele>
        <time>2022-02-08T01:14:54Z</time>
      </trkpt>
      <trkpt lat="48.30563" lon="7.63939">
        <ele>161</ele>
        <time>2022-02-08T01:15:02Z</time>
      </trkpt>
      <trkpt lat="48.30575" lon="7.63941">
        <ele>161</ele>
        <time>2022-02-08T01:15:04Z</time>
      </trkpt>
      <trkpt lat="48.30657" lon="7.64002">
        <ele>161</ele>
        <time>2022-02-08T01:15:20Z</time>
      </trkpt>
      <trkpt lat="48.31011" lon="7.64279">
        <ele>161</ele>
        <time>2022-02-08T01:16:31Z</time>
      </trkpt>
      <trkpt lat="48.31118" lon="7.64358">
        <ele>162</ele>
        <time>2022-02-08T01:16:52Z</time>
      </trkpt>
      <trkpt lat="48.31733" lon="7.64834">
        <ele>157</ele>
        <time>2022-02-08T01:18:55Z</time>
      </trkpt>
      <trkpt lat="48.31876" lon="7.64935">
        <ele>157</ele>
        <time>2022-02-08T01:19:23Z</time>
      </trkpt>
      <trkpt lat="48.31902" lon="7.64961">
        <ele>157</ele>
        <time>2022-02-08T01:19:29Z</time>
      </trkpt>
      <trkpt lat="48.31907" lon="7.64974">
        <ele>157</ele>
        <time>2022-02-08T01:19:31Z</time>
      </trkpt>
      <trkpt lat="48.3194" lon="7.65">
        <ele>157</ele>
        <time>2022-02-08T01:19:37Z</time>
      </trkpt>
      <trkpt lat="48.3195" lon="7.65003">
        <ele>157</ele>
        <time>2022-02-08T01:19:39Z</time>
      </trkpt>
      <trkpt lat="48.31965" lon="7.65015">
        <ele>158</ele>
        <time>2022-02-08T01:19:42Z</time>
      </trkpt>
      <trkpt lat="48.31967" lon="7.65015">
        <ele>158</ele>
        <time>2022-02-08T01:19:43Z</time>
      </trkpt>
      <trkpt lat="48.31968" lon="7.6501">
        <ele>158</ele>
        <time>2022-02-08T01:19:43Z</time>
      </trkpt>
      <trkpt lat="48.31942" lon="7.64984">
        <ele>157</ele>
        <time>2022-02-08T01:19:49Z</time>
      </trkpt>
      <trkpt lat="48.31926" lon="7.65029">
        <ele>157</ele>
        <time>2022-02-08T01:19:55Z</time>
      </trkpt>
      <trkpt lat="48.31945" lon="7.65035">
        <ele>157</ele>
        <time>2022-02-08T01:19:58Z</time>
      </trkpt>
      <trkpt lat="48.31976" lon="7.65053">
        <ele>158</ele>
        <time>2022-02-08T01:20:04Z</time>
      </trkpt>
      <trkpt lat="48.32103" lon="7.65153">
        <ele>157</ele>
        <time>2022-02-08T01:20:30Z</time>
      </trkpt>
      <trkpt lat="48.32265" lon="7.65274">
        <ele>159</ele>
        <time>2022-02-08T01:21:02Z</time>
      </trkpt>
      <trkpt lat="48.32418" lon="7.65399">
        <ele>158</ele>
        <time>2022-02-08T01:21:33Z</time>
      </trkpt>
      <trkpt lat="48.32478" lon="7.65443">
        <ele>159</ele>
        <time>2022-02-08T01:21:45Z</time>
      </trkpt>
      <trkpt lat="48.32589" lon="7.65532">
        <ele>158</ele>
        <time>2022-02-08T01:22:07Z</time>
      </trkpt>
      <trkpt lat="48.32931" lon="7.65797">
        <ele>156</ele>
        <time>2022-02-08T01:23:16Z</time>
      </trkpt>
      <trkpt lat="48.33116" lon="7.65934">
        <ele>156</ele>
        <time>2022-02-08T01:23:52Z</time>
      </trkpt>
      <trkpt lat="48.33139" lon="7.65956">
        <ele>156</ele>
        <time>2022-02-08T01:23:57Z</time>
      </trkpt>
      <trkpt lat="48.33194" lon="7.66001">
        <ele>157</ele>
        <time>2022-02-08T01:24:08Z</time>
      </trkpt>
      <trkpt lat="48.33463" lon="7.66211">
        <ele>157</ele>
        <time>2022-02-08T01:25:02Z</time>
      </trkpt>
      <trkpt lat="48.33649" lon="7.66349">
        <ele>157</ele>
        <time>2022-02-08T01:25:39Z</time>
      </trkpt>
      <trkpt lat="48.33699" lon="7.66381">
        <ele>156</ele>
        <time>2022-02-08T01:25:49Z</time>
      </trkpt>
      <trkpt lat="48.33725" lon="7.66412">
        <ele>156</ele>
        <time>2022-02-08T01:25:55Z</time>
      </trkpt>
      <trkpt lat="48.33741" lon="7.66365">
        <ele>157</ele>
        <time>2022-02-08T01:26:01Z</time>
      </trkpt>
      <trkpt lat="48.33748" lon="7.66363">
        <ele>157</ele>
        <time>2022-02-08T01:26:02Z</time>
      </trkpt>
      <trkpt lat="48.33769" lon="7.664">
        <ele>156</ele>
        <time>2022-02-08T01:26:08Z</time>
      </trkpt>
      <trkpt lat="48.34009" lon="7.66582">
        <ele>154</ele>
        <time>2022-02-08T01:26:56Z</time>
      </trkpt>
      <trkpt lat="48.34058" lon="7.66612">
        <ele>154</ele>
        <time>2022-02-08T01:27:05Z</time>
      </trkpt>
      <trkpt lat="48.34106" lon="7.66637">
        <ele>154</ele>
        <time>2022-02-08T01:27:14Z</time>
      </trkpt>
      <trkpt lat="48.34289" lon="7.66706">
        <ele>155</ele>
        <time>2022-02-08T01:27:48Z</time>
      </trkpt>
      <trkpt lat="48.34427" lon="7.66762">
        <ele>153</ele>
        <time>2022-02-08T01:28:13Z</time>
      </trkpt>
      <trkpt lat="48.34703" lon="7.66864">
        <ele>154</ele>
        <time>2022-02-08T01:29:04Z</time>
      </trkpt>
      <trkpt lat="48.35675" lon="7.67241">
        <ele>156</ele>
        <time>2022-02-08T01:32:02Z</time>
      </trkpt>
      <trkpt lat="48.35955" lon="7.67352">
        <ele>157</ele>
        <time>2022-02-08T01:32:54Z</time>
      </trkpt>
      <trkpt lat="48.35982" lon="7.67359">
        <ele>156</ele>
        <time>2022-02-08T01:32:59Z</time>
      </trkpt>
      <trkpt lat="48.36264" lon="7.67466">
        <ele>154</ele>
        <time>2022-02-08T01:33:51Z</time>
      </trkpt>
      <trkpt lat="48.36466" lon="7.67544">
        <ele>154</ele>
        <time>2022-02-08T01:34:28Z</time>
      </trkpt>
      <trkpt lat="48.36564" lon="7.67584">
        <ele>153</ele>
        <time>2022-02-08T01:34:46Z</time>
      </trkpt>
      <trkpt lat="48.36581" lon="7.67593">
        <ele>153</ele>
        <time>2022-02-08T01:34:49Z</time>
      </trkpt>
      <trkpt lat="48.36724" lon="7.67643">
        <ele>153</ele>
        <time>2022-02-08T01:35:15Z</time>
      </trkpt>
      <trkpt lat="48.36932" lon="7.6772">
        <ele>156</ele>
        <time>2022-02-08T01:35:53Z</time>
      </trkpt>
      <trkpt lat="48.37103" lon="7.67789">
        <ele>153</ele>
        <time>2022-02-08T01:36:25Z</time>
      </trkpt>
      <trkpt lat="48.37302" lon="7.67864">
        <ele>152</ele>
        <time>2022-02-08T01:37:01Z</time>
      </trkpt>
      <trkpt lat="48.37612" lon="7.67986">
        <ele>153</ele>
        <time>2022-02-08T01:37:58Z</time>
      </trkpt>
      <trkpt lat="48.37649" lon="7.68005">
        <ele>152</ele>
        <time>2022-02-08T01:38:05Z</time>
      </trkpt>
      <trkpt lat="48.37671" lon="7.68009">
        <ele>152</ele>
        <time>2022-02-08T01:38:09Z</time>
      </trkpt>
      <trkpt lat="48.38036" lon="7.68149">
        <ele>153</ele>
        <time>2022-02-08T01:39:16Z</time>
      </trkpt>
      <trkpt lat="48.38154" lon="7.68188">
        <ele>153</ele>
        <time>2022-02-08T01:39:38Z</time>
      </trkpt>
      <trkpt lat="48.38621" lon="7.68377">
        <ele>153</ele>
        <time>2022-02-08T01:41:04Z</time>
      </trkpt>
      <trkpt lat="48.38649" lon="7.68393">
        <ele>152</ele>
        <time>2022-02-08T01:41:09Z</time>
      </trkpt>
      <trkpt lat="48.38675" lon="7.68396">
        <ele>152</ele>
        <time>2022-02-08T01:41:14Z</time>
      </trkpt>
      <trkpt lat="48.38807" lon="7.68446">
        <ele>151</ele>
        <time>2022-02-08T01:41:38Z</time>
      </trkpt>
      <trkpt lat="48.38957" lon="7.68505">
        <ele>151</ele>
        <time>2022-02-08T01:42:05Z</time>
      </trkpt>
      <trkpt lat="48.39039" lon="7.68541">
        <ele>151</ele>
        <time>2022-02-08T01:42:21Z</time>
      </trkpt>
      <trkpt lat="48.3905" lon="7.68539">
        <ele>150</ele>
        <time>2022-02-08T01:42:23Z</time>
      </trkpt>
      <trkpt lat="48.39775" lon="7.68821">
        <ele>152</ele>
        <time>2022-02-08T01:44:36Z</time>
      </trkpt>
      <trkpt lat="48.4004" lon="7.68921">
        <ele>151</ele>
        <time>2022-02-08T01:45:24Z</time>
      </trkpt>
      <trkpt lat="48.40586" lon="7.69135">
        <ele>155</ele>
        <time>2022-02-08T01:47:05Z</time>
      </trkpt>
      <trkpt lat="48.40776" lon="7.69205">
        <ele>155</ele>
        <time>2022-02-08T01:47:40Z</time>
      </trkpt>
      <trkpt lat="48.40793" lon="7.69206">
        <ele>155</ele>
        <time>2022-02-08T01:47:43Z</time>
      </trkpt>
      <trkpt lat="48.40843" lon="7.69224">
        <ele>154</ele>
        <time>2022-02-08T01:47:52Z</time>
      </trkpt>
      <trkpt lat="48.41094" lon="7.69321">
        <ele>151</ele>
        <time>2022-02-08T01:48:38Z</time>
      </trkpt>
      <trkpt lat="48.41118" lon="7.6934">
        <ele>151</ele>
        <time>2022-02-08T01:48:43Z</time>
      </trkpt>
      <trkpt lat="48.41236" lon="7.69386">
        <ele>151</ele>
        <time>2022-02-08T01:49:04Z</time>
      </trkpt>
      <trkpt lat="48.41277" lon="7.69394">
        <ele>151</ele>
        <time>2022-02-08T01:49:12Z</time>
      </trkpt>
      <trkpt lat="48.41517" lon="7.69485">
        <ele>151</ele>
        <time>2022-02-08T01:49:56Z</time>
      </trkpt>
      <trkpt lat="48.41674" lon="7.69557">
        <ele>148</ele>
        <time>2022-02-08T01:50:25Z</time>
      </trkpt>
      <trkpt lat="48.41699" lon="7.69574">
        <ele>148</ele>
        <time>2022-02-08T01:50:30Z</time>
      </trkpt>
      <trkpt lat="48.41715" lon="7.69573">
        <ele>149</ele>
        <time>2022-02-08T01:50:33Z</time>
      </trkpt>
      <trkpt lat="48.41735" lon="7.69579">
        <ele>149</ele>
        <time>2022-02-08T01:50:36Z</time>
      </trkpt>
      <trkpt lat="48.42076" lon="7.69708">
        <ele>150</ele>
        <time>2022-02-08T01:51:39Z</time>
      </trkpt>
      <trkpt lat="48.4217" lon="7.69717">
        <ele>152</ele>
        <time>2022-02-08T01:51:56Z</time>
      </trkpt>
      <trkpt lat="48.4218" lon="7.69723">
        <ele>152</ele>
        <time>2022-02-08T01:51:58Z</time>
      </trkpt>
      <trkpt lat="48.42215" lon="7.69761">
        <ele>151</ele>
        <time>2022-02-08T01:52:05Z</time>
      </trkpt>
      <trkpt lat="48.42229" lon="7.69768">
        <ele>151</ele>
        <time>2022-02-08T01:52:08Z</time>
      </trkpt>
      <trkpt lat="48.42271" lon="7.69783">
        <ele>150</ele>
        <time>2022-02-08T01:52:16Z</time>
      </trkpt>
      <trkpt lat="48.42286" lon="7.69785">
        <ele>150</ele>
        <time>2022-02-08T01:52:18Z</time>
      </trkpt>
      <trkpt lat="48.42344" lon="7.69811">
        <ele>150</ele>
        <time>2022-02-08T01:52:29Z</time>
      </trkpt>
      <trkpt lat="48.42493" lon="7.6987">
        <ele>150</ele>
        <time>2022-02-08T01:52:56Z</time>
      </trkpt>
      <trkpt lat="48.42527" lon="7.69889">
        <ele>149</ele>
        <time>2022-02-08T01:53:03Z</time>
      </trkpt>
      <trkpt lat="48.42547" lon="7.69891">
        <ele>148</ele>
        <time>2022-02-08T01:53:06Z</time>
      </trkpt>
      <trkpt lat="48.42566" lon="7.69898">
        <ele>148</ele>
        <time>2022-02-08T01:53:10Z</time>
      </trkpt>
      <trkpt lat="48.43061" lon="7.70093">
        <ele>151</ele>
        <time>2022-02-08T01:54:41Z</time>
      </trkpt>
      <trkpt lat="48.43556" lon="7.7028">
        <ele>152</ele>
        <time>2022-02-08T01:56:12Z</time>
      </trkpt>
      <trkpt lat="48.4364" lon="7.70318">
        <ele>150</ele>
        <time>2022-02-08T01:56:27Z</time>
      </trkpt>
      <trkpt lat="48.43725" lon="7.70349">
        <ele>150</ele>
        <time>2022-02-08T01:56:43Z</time>
      </trkpt>
      <trkpt lat="48.44088" lon="7.70493">
        <ele>146</ele>
        <time>2022-02-08T01:57:50Z</time>
      </trkpt>
      <trkpt lat="48.44134" lon="7.70509">
        <ele>148</ele>
        <time>2022-02-08T01:57:58Z</time>
      </trkpt>
      <trkpt lat="48.44149" lon="7.70519">
        <ele>149</ele>
        <time>2022-02-08T01:58:01Z</time>
      </trkpt>
      <trkpt lat="48.44168" lon="7.70527">
        <ele>150</ele>
        <time>2022-02-08T01:58:04Z</time>
      </trkpt>
      <trkpt lat="48.44192" lon="7.7053">
        <ele>150</ele>
        <time>2022-02-08T01:58:09Z</time>
      </trkpt>
      <trkpt lat="48.44227" lon="7.70542">
        <ele>150</ele>
        <time>2022-02-08T01:58:15Z</time>
      </trkpt>
      <trkpt lat="48.44257" lon="7.70547">
        <ele>150</ele>
        <time>2022-02-08T01:58:21Z</time>
      </trkpt>
      <trkpt lat="48.44941" lon="7.70815">
        <ele>149</ele>
        <time>2022-02-08T02:00:26Z</time>
      </trkpt>
      <trkpt lat="48.45015" lon="7.70846">
        <ele>150</ele>
        <time>2022-02-08T02:00:40Z</time>
      </trkpt>
      <trkpt lat="48.4503" lon="7.7085">
        <ele>150</ele>
        <time>2022-02-08T02:00:43Z</time>
      </trkpt>
      <trkpt lat="48.45051" lon="7.7086">
        <ele>149</ele>
        <time>2022-02-08T02:00:47Z</time>
      </trkpt>
      <trkpt lat="48.45065" lon="7.70871">
        <ele>149</ele>
        <time>2022-02-08T02:00:49Z</time>
      </trkpt>
      <trkpt lat="48.45073" lon="7.70881">
        <ele>149</ele>
        <time>2022-02-08T02:00:51Z</time>
      </trkpt>
      <trkpt lat="48.45085" lon="7.70885">
        <ele>149</ele>
        <time>2022-02-08T02:00:53Z</time>
      </trkpt>
      <trkpt lat="48.45095" lon="7.70883">
        <ele>149</ele>
        <time>2022-02-08T02:00:55Z</time>
      </trkpt>
      <trkpt lat="48.45123" lon="7.70891">
        <ele>148</ele>
        <time>2022-02-08T02:01:00Z</time>
      </trkpt>
      <trkpt lat="48.45156" lon="7.70905">
        <ele>147</ele>
        <time>2022-02-08T02:01:06Z</time>
      </trkpt>
      <trkpt lat="48.4517" lon="7.70915">
        <ele>147</ele>
        <time>2022-02-08T02:01:09Z</time>
      </trkpt>
      <trkpt lat="48.45217" lon="7.70938">
        <ele>145</ele>
        <time>2022-02-08T02:01:18Z</time>
      </trkpt>
      <trkpt lat="48.45258" lon="7.70945">
        <ele>144</ele>
        <time>2022-02-08T02:01:25Z</time>
      </trkpt>
      <trkpt lat="48.45274" lon="7.70951">
        <ele>144</ele>
        <time>2022-02-08T02:01:28Z</time>
      </trkpt>
      <trkpt lat="48.46922" lon="7.71593">
        <ele>145</ele>
        <time>2022-02-08T02:06:31Z</time>
      </trkpt>
      <trkpt lat="48.47076" lon="7.71655">
        <ele>145</ele>
        <time>2022-02-08T02:06:59Z</time>
      </trkpt>
      <trkpt lat="48.47096" lon="7.71665">
        <ele>145</ele>
        <time>2022-02-08T02:07:03Z</time>
      </trkpt>
      <trkpt lat="48.47119" lon="7.71669">
        <ele>145</ele>
        <time>2022-02-08T02:07:07Z</time>
      </trkpt>
      <trkpt lat="48.47471" lon="7.71802">
        <ele>145</ele>
        <time>2022-02-08T02:08:12Z</time>
      </trkpt>
      <trkpt lat="48.47924" lon="7.71978">
        <ele>144</ele>
        <time>2022-02-08T02:09:35Z</time>
      </trkpt>
      <trkpt lat="48.48149" lon="7.72068">
        <ele>143</ele>
        <time>2022-02-08T02:10:17Z</time>
      </trkpt>
      <trkpt lat="48.48215" lon="7.72096">
        <ele>143</ele>
        <time>2022-02-08T02:10:29Z</time>
      </trkpt>
      <trkpt lat="48.48237" lon="7.72109">
        <ele>144</ele>
        <time>2022-02-08T02:10:33Z</time>
      </trkpt>
      <trkpt lat="48.48308" lon="7.72128">
        <ele>144</ele>
        <time>2022-02-08T02:10:46Z</time>
      </trkpt>
      <trkpt lat="48.48327" lon="7.72128">
        <ele>144</ele>
        <time>2022-02-08T02:10:49Z</time>
      </trkpt>
      <trkpt lat="48.4837" lon="7.72143">
        <ele>144</ele>
        <time>2022-02-08T02:10:57Z</time>
      </trkpt>
      <trkpt lat="48.48473" lon="7.72186">
        <ele>144</ele>
        <time>2022-02-08T02:11:16Z</time>
      </trkpt>
      <trkpt lat="48.48605" lon="7.72234">
        <ele>145</ele>
        <time>2022-02-08T02:11:40Z</time>
      </trkpt>
      <trkpt lat="48.48852" lon="7.72341">
        <ele>145</ele>
        <time>2022-02-08T02:12:26Z</time>
      </trkpt>
      <trkpt lat="48.48867" lon="7.72346">
        <ele>145</ele>
        <time>2022-02-08T02:12:29Z</time>
      </trkpt>
      <trkpt lat="48.48881" lon="7.72343">
        <ele>144</ele>
        <time>2022-02-08T02:12:31Z</time>
      </trkpt>
      <trkpt lat="48.49267" lon="7.72481">
        <ele>148</ele>
        <time>2022-02-08T02:13:42Z</time>
      </trkpt>
      <trkpt lat="48.50131" lon="7.72597">
        <ele>143</ele>
        <time>2022-02-08T02:16:16Z</time>
      </trkpt>
      <trkpt lat="48.5014" lon="7.72599">
        <ele>143</ele>
        <time>2022-02-08T02:16:18Z</time>
      </trkpt>
      <trkpt lat="48.50155" lon="7.72607">
        <ele>142</ele>
        <time>2022-02-08T02:16:20Z</time>
      </trkpt>
      <trkpt lat="48.50234" lon="7.72614">
        <ele>144</ele>
        <time>2022-02-08T02:16:35Z</time>
      </trkpt>
      <trkpt lat="48.50243" lon="7.72611">
        <ele>145</ele>
        <time>2022-02-08T02:16:36Z</time>
      </trkpt>
      <trkpt lat="48.50529" lon="7.7264">
        <ele>146</ele>
        <time>2022-02-08T02:17:27Z</time>
      </trkpt>
      <trkpt lat="48.51036" lon="7.7272">
        <ele>144</ele>
        <time>2022-02-08T02:18:58Z</time>
      </trkpt>
      <trkpt lat="48.51072" lon="7.72731">
        <ele>144</ele>
        <time>2022-02-08T02:19:04Z</time>
      </trkpt>
      <trkpt lat="48.51092" lon="7.7273">
        <ele>144</ele>
        <time>2022-02-08T02:19:08Z</time>
      </trkpt>
      <trkpt lat="48.51104" lon="7.72723">
        <ele>145</ele>
        <time>2022-02-08T02:19:10Z</time>
      </trkpt>
      <trkpt lat="48.51143" lon="7.72724">
        <ele>147</ele>
        <time>2022-02-08T02:19:17Z</time>
      </trkpt>
      <trkpt lat="48.51215" lon="7.72736">
        <ele>150</ele>
        <time>2022-02-08T02:19:30Z</time>
      </trkpt>
      <trkpt lat="48.51253" lon="7.72738">
        <ele>151</ele>
        <time>2022-02-08T02:19:37Z</time>
      </trkpt>
      <trkpt lat="48.51718" lon="7.72801">
        <ele>145</ele>
        <time>2022-02-08T02:21:00Z</time>
      </trkpt>
      <trkpt lat="48.51981" lon="7.72831">
        <ele>142</ele>
        <time>2022-02-08T02:21:47Z</time>
      </trkpt>
      <trkpt lat="48.52035" lon="7.72848">
        <ele>143</ele>
        <time>2022-02-08T02:21:57Z</time>
      </trkpt>
      <trkpt lat="48.52043" lon="7.72853">
        <ele>143</ele>
        <time>2022-02-08T02:21:58Z</time>
      </trkpt>
      <trkpt lat="48.52058" lon="7.72854">
        <ele>143</ele>
        <time>2022-02-08T02:22:01Z</time>
      </trkpt>
      <trkpt lat="48.52104" lon="7.72847">
        <ele>143</ele>
        <time>2022-02-08T02:22:09Z</time>
      </trkpt>
      <trkpt lat="48.52348" lon="7.72881">
        <ele>146</ele>
        <time>2022-02-08T02:22:53Z</time>
      </trkpt>
      <trkpt lat="48.52862" lon="7.72945">
        <ele>142</ele>
        <time>2022-02-08T02:24:25Z</time>
      </trkpt>
      <trkpt lat="48.52878" lon="7.72949">
        <ele>142</ele>
        <time>2022-02-08T02:24:27Z</time>
      </trkpt>
      <trkpt lat="48.52889" lon="7.72961">
        <ele>143</ele>
        <time>2022-02-08T02:24:30Z</time>
      </trkpt>
      <trkpt lat="48.52918" lon="7.72965">
        <ele>144</ele>
        <time>2022-02-08T02:24:35Z</time>
      </trkpt>
      <trkpt lat="48.52924" lon="7.72958">
        <ele>143</ele>
        <time>2022-02-08T02:24:36Z</time>
      </trkpt>
      <trkpt lat="48.52933" lon="7.72954">
        <ele>143</ele>
        <time>2022-02-08T02:24:38Z</time>
      </trkpt>
      <trkpt lat="48.53706" lon="7.73059">
        <ele>142</ele>
        <time>2022-02-08T02:26:56Z</time>
      </trkpt>
      <trkpt lat="48.53778" lon="7.73073">
        <ele>143</ele>
        <time>2022-02-08T02:27:09Z</time>
      </trkpt>
      <trkpt lat="48.53795" lon="7.73081">
        <ele>143</ele>
        <time>2022-02-08T02:27:12Z</time>
      </trkpt>
      <trkpt lat="48.53813" lon="7.73078">
        <ele>144</ele>
        <time>2022-02-08T02:27:15Z</time>
      </trkpt>
      <trkpt lat="48.53841" lon="7.73079">
        <ele>144</ele>
        <time>2022-02-08T02:27:20Z</time>
      </trkpt>
      <trkpt lat="48.53844" lon="7.73075">
        <ele>144</ele>
        <time>2022-02-08T02:27:21Z</time>
      </trkpt>
      <trkpt lat="48.53841" lon="7.73058">
        <ele>143</ele>
        <time>2022-02-08T02:27:23Z</time>
      </trkpt>
      <trkpt lat="48.53846" lon="7.73056">
        <ele>143</ele>
        <time>2022-02-08T02:27:24Z</time>
      </trkpt>
      <trkpt lat="48.53858" lon="7.73067">
        <ele>143</ele>
        <time>2022-02-08T02:27:27Z</time>
      </trkpt>
      <trkpt lat="48.53865" lon="7.73062">
        <ele>143</ele>
        <time>2022-02-08T02:27:28Z</time>
      </trkpt>
      <trkpt lat="48.53921" lon="7.73077">
        <ele>143</ele>
        <time>2022-02-08T02:27:38Z</time>
      </trkpt>
      <trkpt lat="48.54015" lon="7.7309">
        <ele>143</ele>
        <time>2022-02-08T02:27:55Z</time>
      </trkpt>
      <trkpt lat="48.54052" lon="7.73094">
        <ele>143</ele>
        <time>2022-02-08T02:28:01Z</time>
      </trkpt>
      <trkpt lat="48.54063" lon="7.73088">
        <ele>143</ele>
        <time>2022-02-08T02:28:04Z</time>
      </trkpt>
      <trkpt lat="48.54071" lon="7.73094">
        <ele>143</ele>
        <time>2022-02-08T02:28:05Z</time>
      </trkpt>
      <trkpt lat="48.54079" lon="7.73096">
        <ele>143</ele>
        <time>2022-02-08T02:28:07Z</time>
      </trkpt>
      <trkpt lat="48.54167" lon="7.73106">
        <ele>143</ele>
        <time>2022-02-08T02:28:22Z</time>
      </trkpt>
      <trkpt lat="48.54173" lon="7.73101">
        <ele>143</ele>
        <time>2022-02-08T02:28:24Z</time>
      </trkpt>
      <trkpt lat="48.5418" lon="7.73108">
        <ele>143</ele>
        <time>2022-02-08T02:28:25Z</time>
      </trkpt>
      <trkpt lat="48.54307" lon="7.73123">
        <ele>141</ele>
        <time>2022-02-08T02:28:48Z</time>
      </trkpt>
      <trkpt lat="48.54384" lon="7.73135">
        <ele>142</ele>
        <time>2022-02-08T02:29:01Z</time>
      </trkpt>
      <trkpt lat="48.54403" lon="7.73132">
        <ele>142</ele>
        <time>2022-02-08T02:29:05Z</time>
      </trkpt>
      <trkpt lat="48.54413" lon="7.73145">
        <ele>142</ele>
        <time>2022-02-08T02:29:07Z</time>
      </trkpt>
      <trkpt lat="48.54445" lon="7.7315">
        <ele>142</ele>
        <time>2022-02-08T02:29:13Z</time>
      </trkpt>
      <trkpt lat="48.54486" lon="7.73022">
        <ele>146</ele>
        <time>2022-02-08T02:29:30Z</time>
      </trkpt>
      <trkpt lat="48.54542" lon="7.73047">
        <ele>145</ele>
        <time>2022-02-08T02:29:40Z</time>
      </trkpt>
      <trkpt lat="48.54582" lon="7.73069">
        <ele>144</ele>
        <time>2022-02-08T02:29:48Z</time>
      </trkpt>
      <trkpt lat="48.54596" lon="7.73086">
        <ele>144</ele>
        <time>2022-02-08T02:29:51Z</time>
      </trkpt>
      <trkpt lat="48.5461" lon="7.73117">
        <ele>142</ele>
        <time>2022-02-08T02:29:55Z</time>
      </trkpt>
      <trkpt lat="48.54615" lon="7.73146">
        <ele>141</ele>
        <time>2022-02-08T02:29:59Z</time>
      </trkpt>
      <trkpt lat="48.54611" lon="7.73218">
        <ele>140</ele>
        <time>2022-02-08T02:30:07Z</time>
      </trkpt>
      <trkpt lat="48.54544" lon="7.73207">
        <ele>140</ele>
        <time>2022-02-08T02:30:19Z</time>
      </trkpt>
      <trkpt lat="48.54535" lon="7.73208">
        <ele>140</ele>
        <time>2022-02-08T02:30:21Z</time>
      </trkpt>
      <trkpt lat="48.54537" lon="7.73214">
        <ele>140</ele>
        <time>2022-02-08T02:30:22Z</time>
      </trkpt>
      <trkpt lat="48.54704" lon="7.73237">
        <ele>141</ele>
        <time>2022-02-08T02:30:52Z</time>
      </trkpt>
      <trkpt lat="48.54923" lon="7.73255">
        <ele>142</ele>
        <time>2022-02-08T02:31:31Z</time>
      </trkpt>
      <trkpt lat="48.55089" lon="7.73282">
        <ele>146</ele>
        <time>2022-02-08T02:32:00Z</time>
      </trkpt>
      <trkpt lat="48.56417" lon="7.73457">
        <ele>141</ele>
        <time>2022-02-08T02:35:57Z</time>
      </trkpt>
      <trkpt lat="48.56447" lon="7.73455">
        <ele>141</ele>
        <time>2022-02-08T02:36:03Z</time>
      </trkpt>
      <trkpt lat="48.56721" lon="7.73488">
        <ele>137</ele>
        <time>2022-02-08T02:36:52Z</time>
      </trkpt>
      <trkpt lat="48.56817" lon="7.73502">
        <ele>137</ele>
        <time>2022-02-08T02:37:09Z</time>
      </trkpt>
      <trkpt lat="48.56875" lon="7.7352">
        <ele>137</ele>
        <time>2022-02-08T02:37:19Z</time>
      </trkpt>
      <trkpt lat="48.56905" lon="7.73525">
        <ele>137</ele>
        <time>2022-02-08T02:37:25Z</time>
      </trkpt>
      <trkpt lat="48.56921" lon="7.73527">
        <ele>137</ele>
        <time>2022-02-08T02:37:28Z</time>
      </trkpt>
      <trkpt lat="48.56944" lon="7.73522">
        <ele>138</ele>
        <time>2022-02-08T02:37:32Z</time>
      </trkpt>
      <trkpt lat="48.57001" lon="7.73529">
        <ele>139</ele>
        <time>2022-02-08T02:37:42Z</time>
      </trkpt>
      <trkpt lat="48.57039" lon="7.73538">
        <ele>138</ele>
        <time>2022-02-08T02:37:49Z</time>
      </trkpt>
      <trkpt lat="48.57111" lon="7.73543">
        <ele>138</ele>
        <time>2022-02-08T02:38:02Z</time>
      </trkpt>
      <trkpt lat="48.57149" lon="7.73548">
        <ele>139</ele>
        <time>2022-02-08T02:38:08Z</time>
      </trkpt>
      <trkpt lat="48.57166" lon="7.73544">
        <ele>139</ele>
        <time>2022-02-08T02:38:11Z</time>
      </trkpt>
      <trkpt lat="48.57189" lon="7.73547">
        <ele>139</ele>
        <time>2022-02-08T02:38:16Z</time>
      </trkpt>
      <trkpt lat="48.57241" lon="7.73581">
        <ele>140</ele>
        <time>2022-02-08T02:38:26Z</time>
      </trkpt>
      <trkpt lat="48.57262" lon="7.73581">
        <ele>140</ele>
        <time>2022-02-08T02:38:29Z</time>
      </trkpt>
      <trkpt lat="48.57282" lon="7.73586">
        <ele>140</ele>
        <time>2022-02-08T02:38:33Z</time>
      </trkpt>
      <trkpt lat="48.57295" lon="7.73596">
        <ele>140</ele>
        <time>2022-02-08T02:38:36Z</time>
      </trkpt>
      <trkpt lat="48.57304" lon="7.73612">
        <ele>140</ele>
        <time>2022-02-08T02:38:38Z</time>
      </trkpt>
      <trkpt lat="48.57333" lon="7.7363">
        <ele>139</ele>
        <time>2022-02-08T02:38:44Z</time>
      </trkpt>
      <trkpt lat="48.57356" lon="7.73654">
        <ele>138</ele>
        <time>2022-02-08T02:38:49Z</time>
      </trkpt>
      <trkpt lat="48.57368" lon="7.73672">
        <ele>137</ele>
        <time>2022-02-08T02:38:52Z</time>
      </trkpt>
      <trkpt lat="48.57385" lon="7.7371">
        <ele>138</ele>
        <time>2022-02-08T02:38:57Z</time>
      </trkpt>
      <trkpt lat="48.57396" lon="7.73743">
        <ele>139</ele>
        <time>2022-02-08T02:39:01Z</time>
      </trkpt>
      <trkpt lat="48.57394" lon="7.73777">
        <ele>139</ele>
        <time>2022-02-08T02:39:05Z</time>
      </trkpt>
      <trkpt lat="48.5744" lon="7.73783">
        <ele>140</ele>
        <time>2022-02-08T02:39:14Z</time>
      </trkpt>
      <trkpt lat="48.57451" lon="7.73753">
        <ele>140</ele>
        <time>2022-02-08T02:39:18Z</time>
      </trkpt>
      <trkpt lat="48.57481" lon="7.73583">
        <ele>138</ele>
        <time>2022-02-08T02:39:38Z</time>
      </trkpt>
      <trkpt lat="48.57486" lon="7.73525">
        <ele>139</ele>
        <time>2022-02-08T02:39:45Z</time>
      </trkpt>
      <trkpt lat="48.57485" lon="7.73474">
        <ele>140</ele>
        <time>2022-02-08T02:39:51Z</time>
      </trkpt>
      <trkpt lat="48.57489" lon="7.73393">
        <ele>141</ele>
        <time>2022-02-08T02:40:01Z</time>
      </trkpt>
      <trkpt lat="48.57481" lon="7.73355">
        <ele>141</ele>
        <time>2022-02-08T02:40:05Z</time>
      </trkpt>
      <trkpt lat="48.57436" lon="7.73282">
        <ele>140</ele>
        <time>2022-02-08T02:40:17Z</time>
      </trkpt>
      <trkpt lat="48.57428" lon="7.73274">
        <ele>140</ele>
        <time>2022-02-08T02:40:19Z</time>
      </trkpt>
      <trkpt lat="48.57438" lon="7.73258">
        <ele>140</ele>
        <time>2022-02-08T02:40:22Z</time>
      </trkpt>
      <trkpt lat="48.57442" lon="7.73225">
        <ele>141</ele>
        <time>2022-02-08T02:40:25Z</time>
      </trkpt>
      <trkpt lat="48.57476" lon="7.73104">
        <ele>140</ele>
        <time>2022-02-08T02:40:41Z</time>
      </trkpt>
      <trkpt lat="48.57474" lon="7.73097">
        <ele>139</ele>
        <time>2022-02-08T02:40:42Z</time>
      </trkpt>
      <trkpt lat="48.57469" lon="7.73094">
        <ele>139</ele>
        <time>2022-02-08T02:40:43Z</time>
      </trkpt>
      <trkpt lat="48.57473" lon="7.73074">
        <ele>139</ele>
        <time>2022-02-08T02:40:45Z</time>
      </trkpt>
      <trkpt lat="48.57486" lon="7.73035">
        <ele>140</ele>
        <time>2022-02-08T02:40:50Z</time>
      </trkpt>
      <trkpt lat="48.57533" lon="7.72935">
        <ele>141</ele>
        <time>2022-02-08T02:41:05Z</time>
      </trkpt>
      <trkpt lat="48.57614" lon="7.72845">
        <ele>139</ele>
        <time>2022-02-08T02:41:23Z</time>
      </trkpt>
      <trkpt lat="48.57686" lon="7.72814">
        <ele>141</ele>
        <time>2022-02-08T02:41:36Z</time>
      </trkpt>
      <trkpt lat="48.57705" lon="7.72794">
        <ele>142</ele>
        <time>2022-02-08T02:41:40Z</time>
      </trkpt>
      <trkpt lat="48.57723" lon="7.72784">
        <ele>142</ele>
        <time>2022-02-08T02:41:44Z</time>
      </trkpt>
      <trkpt lat="48.57766" lon="7.72767">
        <ele>143</ele>
        <time>2022-02-08T02:41:51Z</time>
      </trkpt>
      <trkpt lat="48.57775" lon="7.7277">
        <ele>143</ele>
        <time>2022-02-08T02:41:53Z</time>
      </trkpt>
      <trkpt lat="48.57787" lon="7.72779">
        <ele>143</ele>
        <time>2022-02-08T02:41:56Z</time>
      </trkpt>
      <trkpt lat="48.57802" lon="7.72799">
        <ele>142</ele>
        <time>2022-02-08T02:41:59Z</time>
      </trkpt>
      <trkpt lat="48.57834" lon="7.72808">
        <ele>142</ele>
        <time>2022-02-08T02:42:05Z</time>
      </trkpt>
      <trkpt lat="48.57841" lon="7.72812">
        <ele>142</ele>
        <time>2022-02-08T02:42:06Z</time>
      </trkpt>
      <trkpt lat="48.57851" lon="7.72823">
        <ele>141</ele>
        <time>2022-02-08T02:42:08Z</time>
      </trkpt>
      <trkpt lat="48.57858" lon="7.72827">
        <ele>141</ele>
        <time>2022-02-08T02:42:10Z</time>
      </trkpt>
      <trkpt lat="48.57864" lon="7.72827">
        <ele>140</ele>
        <time>2022-02-08T02:42:11Z</time>
      </trkpt>
      <trkpt lat="48.57869" lon="7.72825">
        <ele>140</ele>
        <time>2022-02-08T02:42:12Z</time>
      </trkpt>
      <trkpt lat="48.57886" lon="7.72787">
        <ele>141</ele>
        <time>2022-02-08T02:42:17Z</time>
      </trkpt>
      <trkpt lat="48.57897" lon="7.72777">
        <ele>141</ele>
        <time>2022-02-08T02:42:19Z</time>
      </trkpt>
      <trkpt lat="48.57915" lon="7.72773">
        <ele>141</ele>
        <time>2022-02-08T02:42:23Z</time>
      </trkpt>
      <trkpt lat="48.57925" lon="7.7276">
        <ele>140</ele>
        <time>2022-02-08T02:42:25Z</time>
      </trkpt>
      <trkpt lat="48.5793" lon="7.72758">
        <ele>140</ele>
        <time>2022-02-08T02:42:26Z</time>
      </trkpt>
      <trkpt lat="48.58042" lon="7.72757">
        <ele>139</ele>
        <time>2022-02-08T02:42:46Z</time>
      </trkpt>
      <trkpt lat="48.58038" lon="7.72775">
        <ele>139</ele>
        <time>2022-02-08T02:42:48Z</time>
      </trkpt>
      <trkpt lat="48.58061" lon="7.728">
        <ele>141</ele>
        <time>2022-02-08T02:42:53Z</time>
      </trkpt>
      <trkpt lat="48.58083" lon="7.72795">
        <ele>141</ele>
        <time>2022-02-08T02:42:57Z</time>
      </trkpt>
      <trkpt lat="48.58093" lon="7.72796">
        <ele>141</ele>
        <time>2022-02-08T02:42:59Z</time>
      </trkpt>
      <trkpt lat="48.58153" lon="7.72816">
        <ele>141</ele>
        <time>2022-02-08T02:43:10Z</time>
      </trkpt>
      <trkpt lat="48.58168" lon="7.72818">
        <ele>141</ele>
        <time>2022-02-08T02:43:12Z</time>
      </trkpt>
      <trkpt lat="48.58288" lon="7.72859">
        <ele>141</ele>
        <time>2022-02-08T02:43:34Z</time>
      </trkpt>
      <trkpt lat="48.58353" lon="7.72872">
        <ele>141</ele>
        <time>2022-02-08T02:43:46Z</time>
      </trkpt>
      <trkpt lat="48.5841" lon="7.7289">
        <ele>138</ele>
        <time>2022-02-08T02:43:56Z</time>
      </trkpt>
      <trkpt lat="48.58429" lon="7.72899">
        <ele>138</ele>
        <time>2022-02-08T02:44:00Z</time>
      </trkpt>
      <trkpt lat="48.58459" lon="7.72919">
        <ele>139</ele>
        <time>2022-02-08T02:44:06Z</time>
      </trkpt>
      <trkpt lat="48.58482" lon="7.72938">
        <ele>141</ele>
        <time>2022-02-08T02:44:10Z</time>
      </trkpt>
      <trkpt lat="48.58519" lon="7.7297">
        <ele>140</ele>
        <time>2022-02-08T02:44:18Z</time>
      </trkpt>
      <trkpt lat="48.58562" lon="7.73015">
        <ele>138</ele>
        <time>2022-02-08T02:44:27Z</time>
      </trkpt>
      <trkpt lat="48.58627" lon="7.7307">
        <ele>138</ele>
        <time>2022-02-08T02:44:41Z</time>
      </trkpt>
      <trkpt lat="48.58662" lon="7.73105">
        <ele>138</ele>
        <time>2022-02-08T02:44:48Z</time>
      </trkpt>
      <trkpt lat="48.58674" lon="7.7312">
        <ele>137</ele>
        <time>2022-02-08T02:44:51Z</time>
      </trkpt>
      <trkpt lat="48.58688" lon="7.73144">
        <ele>137</ele>
        <time>2022-02-08T02:44:55Z</time>
      </trkpt>
      <trkpt lat="48.58743" lon="7.73205">
        <ele>138</ele>
        <time>2022-02-08T02:45:07Z</time>
      </trkpt>
      <trkpt lat="48.58792" lon="7.73277">
        <ele>138</ele>
        <time>2022-02-08T02:45:19Z</time>
      </trkpt>
      <trkpt lat="48.58857" lon="7.73379">
        <ele>137</ele>
        <time>2022-02-08T02:45:36Z</time>
      </trkpt>
      <trkpt lat="48.58894" lon="7.73445">
        <ele>138</ele>
        <time>2022-02-08T02:45:46Z</time>
      </trkpt>
      <trkpt lat="48.58927" lon="7.73512">
        <ele>139</ele>
        <time>2022-02-08T02:45:56Z</time>
      </trkpt>
      <trkpt lat="48.58923" lon="7.73532">
        <ele>139</ele>
        <time>2022-02-08T02:45:58Z</time>
      </trkpt>
      <trkpt lat="48.58925" lon="7.73553">
        <ele>140</ele>
        <time>2022-02-08T02:46:01Z</time>
      </trkpt>
      <trkpt lat="48.58932" lon="7.73564">
        <ele>140</ele>
        <time>2022-02-08T02:46:02Z</time>
      </trkpt>
      <trkpt lat="48.58943" lon="7.73595">
        <ele>140</ele>
        <time>2022-02-08T02:46:06Z</time>
      </trkpt>
      <trkpt lat="48.58985" lon="7.73565">
        <ele>139</ele>
        <time>2022-02-08T02:46:15Z</time>
      </trkpt>
      <trkpt lat="48.59037" lon="7.73517">
        <ele>139</ele>
        <time>2022-02-08T02:46:26Z</time>
      </trkpt>
      <trkpt lat="48.59141" lon="7.73795">
        <ele>141</ele>
        <time>2022-02-08T02:47:03Z</time>
      </trkpt>
      <trkpt lat="48.59163" lon="7.73869">
        <ele>141</ele>
        <time>2022-02-08T02:47:13Z</time>
      </trkpt>
      <trkpt lat="48.59173" lon="7.73917">
        <ele>139</ele>
        <time>2022-02-08T02:47:19Z</time>
      </trkpt>
      <trkpt lat="48.59181" lon="7.7393">
        <ele>139</ele>
        <time>2022-02-08T02:47:21Z</time>
      </trkpt>
      <trkpt lat="48.59216" lon="7.74161">
        <ele>139</ele>
        <time>2022-02-08T02:47:49Z</time>
      </trkpt>
      <trkpt lat="48.59188" lon="7.74162">
        <ele>139</ele>
        <time>2022-02-08T02:47:54Z</time>
      </trkpt>
      <trkpt lat="48.59172" lon="7.74165">
        <ele>140</ele>
        <time>2022-02-08T02:47:56Z</time>
      </trkpt>
      <trkpt lat="48.59164" lon="7.74169">
        <ele>140</ele>
        <time>2022-02-08T02:47:58Z</time>
      </trkpt>
      <trkpt lat="48.59145" lon="7.74192">
        <ele>141</ele>
        <time>2022-02-08T02:48:02Z</time>
      </trkpt>
      <trkpt lat="48.59127" lon="7.74229">
        <ele>143</ele>
        <time>2022-02-08T02:48:08Z</time>
      </trkpt>
      <trkpt lat="48.59122" lon="7.74263">
        <ele>143</ele>
        <time>2022-02-08T02:48:12Z</time>
      </trkpt>
      <trkpt lat="48.59122" lon="7.74299">
        <ele>143</ele>
        <time>2022-02-08T02:48:16Z</time>
      </trkpt>
      <trkpt lat="48.59128" lon="7.74331">
        <ele>143</ele>
        <time>2022-02-08T02:48:20Z</time>
      </trkpt>
      <trkpt lat="48.5915" lon="7.74378">
        <ele>141</ele>
        <time>2022-02-08T02:48:27Z</time>
      </trkpt>
      <trkpt lat="48.59182" lon="7.74401">
        <ele>139</ele>
        <time>2022-02-08T02:48:33Z</time>
      </trkpt>
      <trkpt lat="48.59202" lon="7.74406">
        <ele>140</ele>
        <time>2022-02-08T02:48:37Z</time>
      </trkpt>
      <trkpt lat="48.59225" lon="7.74405">
        <ele>140</ele>
        <time>2022-02-08T02:48:41Z</time>
      </trkpt>
      <trkpt lat="48.59279" lon="7.7438">
        <ele>138</ele>
        <time>2022-02-08T02:48:51Z</time>
      </trkpt>
      <trkpt lat="48.59287" lon="7.74402">
        <ele>137</ele>
        <time>2022-02-08T02:48:54Z</time>
      </trkpt>
      <trkpt lat="48.59349" lon="7.74507">
        <ele>137</ele>
        <time>2022-02-08T02:49:10Z</time>
      </trkpt>
      <trkpt lat="48.59357" lon="7.74527">
        <ele>137</ele>
        <time>2022-02-08T02:49:13Z</time>
      </trkpt>
      <trkpt lat="48.59378" lon="7.74536">
        <ele>136</ele>
        <time>2022-02-08T02:49:17Z</time>
      </trkpt>
      <trkpt lat="48.59461" lon="7.74678">
        <ele>139</ele>
        <time>2022-02-08T02:49:39Z</time>
      </trkpt>
      <trkpt lat="48.59709" lon="7.7509">
        <ele>138</ele>
        <time>2022-02-08T02:50:45Z</time>
      </trkpt>
      <trkpt lat="48.59795" lon="7.75228">
        <ele>138</ele>
        <time>2022-02-08T02:51:07Z</time>
      </trkpt>
      <trkpt lat="48.59851" lon="7.75278">
        <ele>138</ele>
        <time>2022-02-08T02:51:19Z</time>
      </trkpt>
      <trkpt lat="48.59862" lon="7.75284">
        <ele>138</ele>
        <time>2022-02-08T02:51:21Z</time>
      </trkpt>
      <trkpt lat="48.59884" lon="7.75289">
        <ele>139</ele>
        <time>2022-02-08T02:51:25Z</time>
      </trkpt>
      <trkpt lat="48.5989" lon="7.75297">
        <ele>139</ele>
        <time>2022-02-08T02:51:26Z</time>
      </trkpt>
      <trkpt lat="48.59876" lon="7.75333">
        <ele>139</ele>
        <time>2022-02-08T02:51:31Z</time>
      </trkpt>
      <trkpt lat="48.59876" lon="7.75346">
        <ele>138</ele>
        <time>2022-02-08T02:51:33Z</time>
      </trkpt>
      <trkpt lat="48.59929" lon="7.75402">
        <ele>137</ele>
        <time>2022-02-08T02:51:44Z</time>
      </trkpt>
      <trkpt lat="48.5996" lon="7.75429">
        <ele>137</ele>
        <time>2022-02-08T02:51:50Z</time>
      </trkpt>
      <trkpt lat="48.59966" lon="7.75437">
        <ele>137</ele>
        <time>2022-02-08T02:51:52Z</time>
      </trkpt>
      <trkpt lat="48.59995" lon="7.7546">
        <ele>137</ele>
        <time>2022-02-08T02:51:58Z</time>
      </trkpt>
      <trkpt lat="48.60003" lon="7.75463">
        <ele>137</ele>
        <time>2022-02-08T02:51:59Z</time>
      </trkpt>
      <trkpt lat="48.60015" lon="7.75463">
        <ele>137</ele>
        <time>2022-02-08T02:52:01Z</time>
      </trkpt>
      <trkpt lat="48.60038" lon="7.75457">
        <ele>137</ele>
        <time>2022-02-08T02:52:05Z</time>
      </trkpt>
      <trkpt lat="48.6004" lon="7.75475">
        <ele>137</ele>
        <time>2022-02-08T02:52:08Z</time>
      </trkpt>
      <trkpt lat="48.60046" lon="7.75472">
        <ele>137</ele>
        <time>2022-02-08T02:52:09Z</time>
      </trkpt>
      <trkpt lat="48.60096" lon="7.75467">
        <ele>138</ele>
        <time>2022-02-08T02:52:18Z</time>
      </trkpt>
      <trkpt lat="48.60118" lon="7.75475">
        <ele>138</ele>
        <time>2022-02-08T02:52:22Z</time>
      </trkpt>
      <trkpt lat="48.60248" lon="7.75639">
        <ele>139</ele>
        <time>2022-02-08T02:52:52Z</time>
      </trkpt>
      <trkpt lat="48.60256" lon="7.75654">
        <ele>139</ele>
        <time>2022-02-08T02:52:54Z</time>
      </trkpt>
      <trkpt lat="48.60301" lon="7.75713">
        <ele>138</ele>
        <time>2022-02-08T02:53:05Z</time>
      </trkpt>
      <trkpt lat="48.60311" lon="7.75716">
        <ele>138</ele>
        <time>2022-02-08T02:53:06Z</time>
      </trkpt>
      <trkpt lat="48.60348" lon="7.75757">
        <ele>138</ele>
        <time>2022-02-08T02:53:15Z</time>
      </trkpt>
      <trkpt lat="48.60411" lon="7.75836">
        <ele>140</ele>
        <time>2022-02-08T02:53:29Z</time>
      </trkpt>
      <trkpt lat="48.60423" lon="7.75856">
        <ele>139</ele>
        <time>2022-02-08T02:53:32Z</time>
      </trkpt>
      <trkpt lat="48.60466" lon="7.75915">
        <ele>139</ele>
        <time>2022-02-08T02:53:43Z</time>
      </trkpt>
      <trkpt lat="48.60475" lon="7.75921">
        <ele>140</ele>
        <time>2022-02-08T02:53:44Z</time>
      </trkpt>
      <trkpt lat="48.60517" lon="7.75972">
        <ele>138</ele>
        <time>2022-02-08T02:53:54Z</time>
      </trkpt>
      <trkpt lat="48.60651" lon="7.7615">
        <ele>137</ele>
        <time>2022-02-08T02:54:26Z</time>
      </trkpt>
      <trkpt lat="48.60659" lon="7.76172">
        <ele>137</ele>
        <time>2022-02-08T02:54:29Z</time>
      </trkpt>
      <trkpt lat="48.60666" lon="7.76167">
        <ele>137</ele>
        <time>2022-02-08T02:54:30Z</time>
      </trkpt>
      <trkpt lat="48.60774" lon="7.76301">
        <ele>139</ele>
        <time>2022-02-08T02:54:55Z</time>
      </trkpt>
      <trkpt lat="48.60889" lon="7.76454">
        <ele>138</ele>
        <time>2022-02-08T02:55:22Z</time>
      </trkpt>
      <trkpt lat="48.60884" lon="7.7646">
        <ele>138</ele>
        <time>2022-02-08T02:55:23Z</time>
      </trkpt>
      <trkpt lat="48.60878" lon="7.7646">
        <ele>138</ele>
        <time>2022-02-08T02:55:24Z</time>
      </trkpt>
      <trkpt lat="48.60802" lon="7.76366">
        <ele>139</ele>
        <time>2022-02-08T02:55:42Z</time>
      </trkpt>
      <trkpt lat="48.6077" lon="7.76339">
        <ele>139</ele>
        <time>2022-02-08T02:55:48Z</time>
      </trkpt>
      <trkpt lat="48.60755" lon="7.76318">
        <ele>138</ele>
        <time>2022-02-08T02:55:52Z</time>
      </trkpt>
      <trkpt lat="48.60752" lon="7.76293">
        <ele>139</ele>
        <time>2022-02-08T02:55:55Z</time>
      </trkpt>
      <trkpt lat="48.6076" lon="7.76296">
        <ele>139</ele>
        <time>2022-02-08T02:55:56Z</time>
      </trkpt>
      <trkpt lat="48.60805" lon="7.76289">
        <ele>140</ele>
        <time>2022-02-08T02:56:05Z</time>
      </trkpt>
      <trkpt lat="48.60814" lon="7.76282">
        <ele>141</ele>
        <time>2022-02-08T02:56:06Z</time>
      </trkpt>
      <trkpt lat="48.61022" lon="7.76255">
        <ele>136</ele>
        <time>2022-02-08T02:56:43Z</time>
      </trkpt>
      <trkpt lat="48.61031" lon="7.76247">
        <ele>136</ele>
        <time>2022-02-08T02:56:45Z</time>
      </trkpt>
      <trkpt lat="48.6105" lon="7.76244">
        <ele>136</ele>
        <time>2022-02-08T02:56:49Z</time>
      </trkpt>
      <trkpt lat="48.62052" lon="7.76108">
        <ele>136</ele>
        <time>2022-02-08T02:59:48Z</time>
      </trkpt>
      <trkpt lat="48.62101" lon="7.76092">
        <ele>137</ele>
        <time>2022-02-08T02:59:57Z</time>
      </trkpt>
      <trkpt lat="48.62129" lon="7.76074">
        <ele>136</ele>
        <time>2022-02-08T03:00:02Z</time>
      </trkpt>
      <trkpt lat="48.62144" lon="7.76068">
        <ele>136</ele>
        <time>2022-02-08T03:00:05Z</time>
      </trkpt>
      <trkpt lat="48.62186" lon="7.76038">
        <ele>136</ele>
        <time>2022-02-08T03:00:13Z</time>
      </trkpt>
      <trkpt lat="48.62211" lon="7.76016">
        <ele>136</ele>
        <time>2022-02-08T03:00:18Z</time>
      </trkpt>
      <trkpt lat="48.62236" lon="7.75988">
        <ele>137</ele>
        <time>2022-02-08T03:00:24Z</time>
      </trkpt>
      <trkpt lat="48.62299" lon="7.75909">
        <ele>136</ele>
        <time>2022-02-08T03:00:38Z</time>
      </trkpt>
      <trkpt lat="48.6255" lon="7.75581">
        <ele>136</ele>
        <time>2022-02-08T03:01:37Z</time>
      </trkpt>
      <trkpt lat="48.62555" lon="7.75573">
        <ele>136</ele>
        <time>2022-02-08T03:01:39Z</time>
      </trkpt>
      <trkpt lat="48.62558" lon="7.75559">
        <ele>136</ele>
        <time>2022-02-08T03:01:40Z</time>
      </trkpt>
      <trkpt lat="48.62563" lon="7.75552">
        <ele>136</ele>
        <time>2022-02-08T03:01:42Z</time>
      </trkpt>
      <trkpt lat="48.62576" lon="7.75548">
        <ele>136</ele>
        <time>2022-02-08T03:01:44Z</time>
      </trkpt>
      <trkpt lat="48.62616" lon="7.755">
        <ele>136</ele>
        <time>2022-02-08T03:01:53Z</time>
      </trkpt>
      <trkpt lat="48.62657" lon="7.75464">
        <ele>138</ele>
        <time>2022-02-08T03:02:01Z</time>
      </trkpt>
      <trkpt lat="48.62662" lon="7.75451">
        <ele>138</ele>
        <time>2022-02-08T03:02:03Z</time>
      </trkpt>
      <trkpt lat="48.62675" lon="7.75443">
        <ele>139</ele>
        <time>2022-02-08T03:02:06Z</time>
      </trkpt>
      <trkpt lat="48.6268" lon="7.75442">
        <ele>139</ele>
        <time>2022-02-08T03:02:07Z</time>
      </trkpt>
      <trkpt lat="48.62687" lon="7.75445">
        <ele>138</ele>
        <time>2022-02-08T03:02:08Z</time>
      </trkpt>
      <trkpt lat="48.62718" lon="7.75435">
        <ele>138</ele>
        <time>2022-02-08T03:02:14Z</time>
      </trkpt>
      <trkpt lat="48.62739" lon="7.75431">
        <ele>138</ele>
        <time>2022-02-08T03:02:17Z</time>
      </trkpt>
      <trkpt lat="48.62774" lon="7.75431">
        <ele>138</ele>
        <time>2022-02-08T03:02:24Z</time>
      </trkpt>
      <trkpt lat="48.62803" lon="7.75436">
        <ele>139</ele>
        <time>2022-02-08T03:02:29Z</time>
      </trkpt>
      <trkpt lat="48.6284" lon="7.7545">
        <ele>139</ele>
        <time>2022-02-08T03:02:36Z</time>
      </trkpt>
      <trkpt lat="48.62883" lon="7.75477">
        <ele>139</ele>
        <time>2022-02-08T03:02:44Z</time>
      </trkpt>
      <trkpt lat="48.62951" lon="7.75547">
        <ele>138</ele>
        <time>2022-02-08T03:02:58Z</time>
      </trkpt>
      <trkpt lat="48.62993" lon="7.7558">
        <ele>137</ele>
        <time>2022-02-08T03:03:07Z</time>
      </trkpt>
      <trkpt lat="48.63024" lon="7.75596">
        <ele>137</ele>
        <time>2022-02-08T03:03:13Z</time>
      </trkpt>
      <trkpt lat="48.63054" lon="7.75606">
        <ele>138</ele>
        <time>2022-02-08T03:03:18Z</time>
      </trkpt>
      <trkpt lat="48.63084" lon="7.75611">
        <ele>138</ele>
        <time>2022-02-08T03:03:24Z</time>
      </trkpt>
      <trkpt lat="48.63118" lon="7.7561">
        <ele>137</ele>
        <time>2022-02-08T03:03:30Z</time>
      </trkpt>
      <trkpt lat="48.63161" lon="7.75604">
        <ele>136</ele>
        <time>2022-02-08T03:03:37Z</time>
      </trkpt>
      <trkpt lat="48.63207" lon="7.75587">
        <ele>137</ele>
        <time>2022-02-08T03:03:46Z</time>
      </trkpt>
      <trkpt lat="48.6324" lon="7.75567">
        <ele>137</ele>
        <time>2022-02-08T03:03:52Z</time>
      </trkpt>
      <trkpt lat="48.6327" lon="7.75544">
        <ele>136</ele>
        <time>2022-02-08T03:03:58Z</time>
      </trkpt>
      <trkpt lat="48.633" lon="7.75513">
        <ele>135</ele>
        <time>2022-02-08T03:04:04Z</time>
      </trkpt>
      <trkpt lat="48.6338" lon="7.754">
        <ele>137</ele>
        <time>2022-02-08T03:04:24Z</time>
      </trkpt>
      <trkpt lat="48.63395" lon="7.75365">
        <ele>138</ele>
        <time>2022-02-08T03:04:29Z</time>
      </trkpt>
      <trkpt lat="48.63426" lon="7.75318">
        <ele>138</ele>
        <time>2022-02-08T03:04:37Z</time>
      </trkpt>
      <trkpt lat="48.63473" lon="7.75208">
        <ele>136</ele>
        <time>2022-02-08T03:04:52Z</time>
      </trkpt>
      <trkpt lat="48.6349" lon="7.75177">
        <ele>134</ele>
        <time>2022-02-08T03:04:57Z</time>
      </trkpt>
      <trkpt lat="48.63513" lon="7.75139">
        <ele>134</ele>
        <time>2022-02-08T03:05:03Z</time>
      </trkpt>
      <trkpt lat="48.63533" lon="7.75114">
        <ele>134</ele>
        <time>2022-02-08T03:05:07Z</time>
      </trkpt>
      <trkpt lat="48.63553" lon="7.75094">
        <ele>134</ele>
        <time>2022-02-08T03:05:12Z</time>
      </trkpt>
      <trkpt lat="48.63582" lon="7.75069">
        <ele>133</ele>
        <time>2022-02-08T03:05:18Z</time>
      </trkpt>
      <trkpt lat="48.63714" lon="7.74977">
        <ele>138</ele>
        <time>2022-02-08T03:05:44Z</time>
      </trkpt>
      <trkpt lat="48.63781" lon="7.74927">
        <ele>138</ele>
        <time>2022-02-08T03:05:57Z</time>
      </trkpt>
      <trkpt lat="48.64278" lon="7.74484">
        <ele>137</ele>
        <time>2022-02-08T03:07:39Z</time>
      </trkpt>
      <trkpt lat="48.6435" lon="7.74426">
        <ele>138</ele>
        <time>2022-02-08T03:07:54Z</time>
      </trkpt>
      <trkpt lat="48.64336" lon="7.74389">
        <ele>138</ele>
        <time>2022-02-08T03:07:59Z</time>
      </trkpt>
      <trkpt lat="48.64359" lon="7.74383">
        <ele>138</ele>
        <time>2022-02-08T03:08:03Z</time>
      </trkpt>
      <trkpt lat="48.6439" lon="7.74347">
        <ele>138</ele>
        <time>2022-02-08T03:08:10Z</time>
      </trkpt>
      <trkpt lat="48.64736" lon="7.74038">
        <ele>140</ele>
        <time>2022-02-08T03:09:22Z</time>
      </trkpt>
      <trkpt lat="48.64764" lon="7.74007">
        <ele>140</ele>
        <time>2022-02-08T03:09:28Z</time>
      </trkpt>
      <trkpt lat="48.6482" lon="7.73966">
        <ele>140</ele>
        <time>2022-02-08T03:09:39Z</time>
      </trkpt>
      <trkpt lat="48.65324" lon="7.73513">
        <ele>138</ele>
        <time>2022-02-08T03:11:23Z</time>
      </trkpt>
      <trkpt lat="48.65332" lon="7.73496">
        <ele>138</ele>
        <time>2022-02-08T03:11:26Z</time>
      </trkpt>
      <trkpt lat="48.6534" lon="7.73488">
        <ele>138</ele>
        <time>2022-02-08T03:11:27Z</time>
      </trkpt>
      <trkpt lat="48.65544" lon="7.733">
        <ele>138</ele>
        <time>2022-02-08T03:12:10Z</time>
      </trkpt>
      <trkpt lat="48.65595" lon="7.73263">
        <ele>137</ele>
        <time>2022-02-08T03:12:20Z</time>
      </trkpt>
      <trkpt lat="48.65618" lon="7.7325">
        <ele>137</ele>
        <time>2022-02-08T03:12:24Z</time>
      </trkpt>
      <trkpt lat="48.65789" lon="7.73099">
        <ele>139</ele>
        <time>2022-02-08T03:12:59Z</time>
      </trkpt>
      <trkpt lat="48.65805" lon="7.73081">
        <ele>139</ele>
        <time>2022-02-08T03:13:03Z</time>
      </trkpt>
      <trkpt lat="48.65812" lon="7.73069">
        <ele>139</ele>
        <time>2022-02-08T03:13:05Z</time>
      </trkpt>
      <trkpt lat="48.65828" lon="7.73053">
        <ele>140</ele>
        <time>2022-02-08T03:13:08Z</time>
      </trkpt>
      <trkpt lat="48.65845" lon="7.73038">
        <ele>141</ele>
        <time>2022-02-08T03:13:12Z</time>
      </trkpt>
      <trkpt lat="48.65868" lon="7.73025">
        <ele>142</ele>
        <time>2022-02-08T03:13:16Z</time>
      </trkpt>
      <trkpt lat="48.65882" lon="7.73013">
        <ele>142</ele>
        <time>2022-02-08T03:13:19Z</time>
      </trkpt>
      <trkpt lat="48.65903" lon="7.72991">
        <ele>143</ele>
        <time>2022-02-08T03:13:24Z</time>
      </trkpt>
      <trkpt lat="48.65909" lon="7.72977">
        <ele>143</ele>
        <time>2022-02-08T03:13:25Z</time>
      </trkpt>
      <trkpt lat="48.66346" lon="7.72491">
        <ele>142</ele>
        <time>2022-02-08T03:15:02Z</time>
      </trkpt>
      <trkpt lat="48.66356" lon="7.72492">
        <ele>141</ele>
        <time>2022-02-08T03:15:04Z</time>
      </trkpt>
      <trkpt lat="48.66719" lon="7.72086">
        <ele>140</ele>
        <time>2022-02-08T03:16:24Z</time>
      </trkpt>
      <trkpt lat="48.6673" lon="7.72053">
        <ele>140</ele>
        <time>2022-02-08T03:16:28Z</time>
      </trkpt>
      <trkpt lat="48.66756" lon="7.7201">
        <ele>140</ele>
        <time>2022-02-08T03:16:35Z</time>
      </trkpt>
      <trkpt lat="48.66781" lon="7.71974">
        <ele>141</ele>
        <time>2022-02-08T03:16:41Z</time>
      </trkpt>
      <trkpt lat="48.66814" lon="7.71946">
        <ele>141</ele>
        <time>2022-02-08T03:16:48Z</time>
      </trkpt>
      <trkpt lat="48.66901" lon="7.71782">
        <ele>141</ele>
        <time>2022-02-08T03:17:13Z</time>
      </trkpt>
      <trkpt lat="48.66908" lon="7.71773">
        <ele>140</ele>
        <time>2022-02-08T03:17:14Z</time>
      </trkpt>
      <trkpt lat="48.66939" lon="7.71709">
        <ele>141</ele>
        <time>2022-02-08T03:17:24Z</time>
      </trkpt>
      <trkpt lat="48.66967" lon="7.71659">
        <ele>142</ele>
        <time>2022-02-08T03:17:31Z</time>
      </trkpt>
      <trkpt lat="48.66987" lon="7.71632">
        <ele>142</ele>
        <time>2022-02-08T03:17:36Z</time>
      </trkpt>
      <trkpt lat="48.67028" lon="7.71588">
        <ele>141</ele>
        <time>2022-02-08T03:17:45Z</time>
      </trkpt>
      <trkpt lat="48.67094" lon="7.71543">
        <ele>140</ele>
        <time>2022-02-08T03:17:58Z</time>
      </trkpt>
      <trkpt lat="48.67101" lon="7.71572">
        <ele>140</ele>
        <time>2022-02-08T03:18:02Z</time>
      </trkpt>
      <trkpt lat="48.67294" lon="7.71471">
        <ele>138</ele>
        <time>2022-02-08T03:18:38Z</time>
      </trkpt>
      <trkpt lat="48.6732" lon="7.7145">
        <ele>138</ele>
        <time>2022-02-08T03:18:43Z</time>
      </trkpt>
      <trkpt lat="48.67334" lon="7.71442">
        <ele>138</ele>
        <time>2022-02-08T03:18:46Z</time>
      </trkpt>
      <trkpt lat="48.67352" lon="7.71438">
        <ele>139</ele>
        <time>2022-02-08T03:18:49Z</time>
      </trkpt>
      <trkpt lat="48.67411" lon="7.71408">
        <ele>140</ele>
        <time>2022-02-08T03:19:00Z</time>
      </trkpt>
      <trkpt lat="48.68232" lon="7.7097">
        <ele>142</ele>
        <time>2022-02-08T03:21:35Z</time>
      </trkpt>
      <trkpt lat="48.68256" lon="7.70956">
        <ele>142</ele>
        <time>2022-02-08T03:21:40Z</time>
      </trkpt>
      <trkpt lat="48.6829" lon="7.70931">
        <ele>142</ele>
        <time>2022-02-08T03:21:46Z</time>
      </trkpt>
      <trkpt lat="48.68313" lon="7.70925">
        <ele>143</ele>
        <time>2022-02-08T03:21:51Z</time>
      </trkpt>
      <trkpt lat="48.68412" lon="7.70873">
        <ele>144</ele>
        <time>2022-02-08T03:22:09Z</time>
      </trkpt>
      <trkpt lat="48.68505" lon="7.70822">
        <ele>146</ele>
        <time>2022-02-08T03:22:27Z</time>
      </trkpt>
      <trkpt lat="48.68513" lon="7.70808">
        <ele>146</ele>
        <time>2022-02-08T03:22:29Z</time>
      </trkpt>
      <trkpt lat="48.6852" lon="7.70804">
        <ele>146</ele>
        <time>2022-02-08T03:22:30Z</time>
      </trkpt>
      <trkpt lat="48.68531" lon="7.70808">
        <ele>145</ele>
        <time>2022-02-08T03:22:32Z</time>
      </trkpt>
      <trkpt lat="48.68536" lon="7.70807">
        <ele>145</ele>
        <time>2022-02-08T03:22:33Z</time>
      </trkpt>
      <trkpt lat="48.6893" lon="7.70595">
        <ele>144</ele>
        <time>2022-02-08T03:23:48Z</time>
      </trkpt>
      <trkpt lat="48.68951" lon="7.70587">
        <ele>144</ele>
        <time>2022-02-08T03:23:51Z</time>
      </trkpt>
      <trkpt lat="48.6897" lon="7.70574">
        <ele>143</ele>
        <time>2022-02-08T03:23:55Z</time>
      </trkpt>
      <trkpt lat="48.69027" lon="7.70542">
        <ele>143</ele>
        <time>2022-02-08T03:24:06Z</time>
      </trkpt>
      <trkpt lat="48.69065" lon="7.70523">
        <ele>143</ele>
        <time>2022-02-08T03:24:13Z</time>
      </trkpt>
      <trkpt lat="48.69079" lon="7.7052">
        <ele>143</ele>
        <time>2022-02-08T03:24:16Z</time>
      </trkpt>
      <trkpt lat="48.69086" lon="7.70512">
        <ele>143</ele>
        <time>2022-02-08T03:24:17Z</time>
      </trkpt>
      <trkpt lat="48.70306" lon="7.69857">
        <ele>148</ele>
        <time>2022-02-08T03:28:08Z</time>
      </trkpt>
      <trkpt lat="48.70334" lon="7.69851">
        <ele>149</ele>
        <time>2022-02-08T03:28:13Z</time>
      </trkpt>
      <trkpt lat="48.70577" lon="7.69716">
        <ele>147</ele>
        <time>2022-02-08T03:28:59Z</time>
      </trkpt>
      <trkpt lat="48.70749" lon="7.69599">
        <ele>146</ele>
        <time>2022-02-08T03:29:32Z</time>
      </trkpt>
      <trkpt lat="48.70852" lon="7.69511">
        <ele>148</ele>
        <time>2022-02-08T03:29:53Z</time>
      </trkpt>
      <trkpt lat="48.70856" lon="7.69492">
        <ele>149</ele>
        <time>2022-02-08T03:29:56Z</time>
      </trkpt>
      <trkpt lat="48.70861" lon="7.69484">
        <ele>149</ele>
        <time>2022-02-08T03:29:57Z</time>
      </trkpt>
      <trkpt lat="48.70866" lon="7.69481">
        <ele>149</ele>
        <time>2022-02-08T03:29:58Z</time>
      </trkpt>
      <trkpt lat="48.70877" lon="7.69483">
        <ele>149</ele>
        <time>2022-02-08T03:30:00Z</time>
      </trkpt>
      <trkpt lat="48.71125" lon="7.69278">
        <ele>151</ele>
        <time>2022-02-08T03:30:50Z</time>
      </trkpt>
      <trkpt lat="48.71296" lon="7.69142">
        <ele>146</ele>
        <time>2022-02-08T03:31:24Z</time>
      </trkpt>
      <trkpt lat="48.71375" lon="7.69086">
        <ele>146</ele>
        <time>2022-02-08T03:31:40Z</time>
      </trkpt>
      <trkpt lat="48.71464" lon="7.69">
        <ele>146</ele>
        <time>2022-02-08T03:31:59Z</time>
      </trkpt>
      <trkpt lat="48.71476" lon="7.68998">
        <ele>146</ele>
        <time>2022-02-08T03:32:01Z</time>
      </trkpt>
      <trkpt lat="48.71516" lon="7.69219">
        <ele>147</ele>
        <time>2022-02-08T03:32:28Z</time>
      </trkpt>
      <trkpt lat="48.71529" lon="7.69217">
        <ele>147</ele>
        <time>2022-02-08T03:32:30Z</time>
      </trkpt>
      <trkpt lat="48.71597" lon="7.69182">
        <ele>144</ele>
        <time>2022-02-08T03:32:43Z</time>
      </trkpt>
      <trkpt lat="48.72091" lon="7.68954">
        <ele>144</ele>
        <time>2022-02-08T03:34:15Z</time>
      </trkpt>
      <trkpt lat="48.72426" lon="7.68977">
        <ele>145</ele>
        <time>2022-02-08T03:35:14Z</time>
      </trkpt>
      <trkpt lat="48.7271" lon="7.69003">
        <ele>142</ele>
        <time>2022-02-08T03:36:05Z</time>
      </trkpt>
      <trkpt lat="48.72747" lon="7.69003">
        <ele>142</ele>
        <time>2022-02-08T03:36:12Z</time>
      </trkpt>
      <trkpt lat="48.728" lon="7.68992">
        <ele>141</ele>
        <time>2022-02-08T03:36:21Z</time>
      </trkpt>
      <trkpt lat="48.72992" lon="7.68929">
        <ele>140</ele>
        <time>2022-02-08T03:36:56Z</time>
      </trkpt>
      <trkpt lat="48.73039" lon="7.68907">
        <ele>141</ele>
        <time>2022-02-08T03:37:05Z</time>
      </trkpt>
      <trkpt lat="48.73095" lon="7.68872">
        <ele>141</ele>
        <time>2022-02-08T03:37:16Z</time>
      </trkpt>
      <trkpt lat="48.73179" lon="7.68813">
        <ele>140</ele>
        <time>2022-02-08T03:37:32Z</time>
      </trkpt>
      <trkpt lat="48.73192" lon="7.68807">
        <ele>140</ele>
        <time>2022-02-08T03:37:34Z</time>
      </trkpt>
      <trkpt lat="48.73205" lon="7.68808">
        <ele>139</ele>
        <time>2022-02-08T03:37:37Z</time>
      </trkpt>
      <trkpt lat="48.73225" lon="7.6882">
        <ele>139</ele>
        <time>2022-02-08T03:37:41Z</time>
      </trkpt>
      <trkpt lat="48.73243" lon="7.68844">
        <ele>138</ele>
        <time>2022-02-08T03:37:45Z</time>
      </trkpt>
      <trkpt lat="48.73252" lon="7.68863">
        <ele>138</ele>
        <time>2022-02-08T03:37:48Z</time>
      </trkpt>
      <trkpt lat="48.7327" lon="7.69062">
        <ele>141</ele>
        <time>2022-02-08T03:38:11Z</time>
      </trkpt>
      <trkpt lat="48.73273" lon="7.69202">
        <ele>138</ele>
        <time>2022-02-08T03:38:28Z</time>
      </trkpt>
      <trkpt lat="48.73269" lon="7.6922">
        <ele>138</ele>
        <time>2022-02-08T03:38:30Z</time>
      </trkpt>
      <trkpt lat="48.73213" lon="7.69383">
        <ele>142</ele>
        <time>2022-02-08T03:38:51Z</time>
      </trkpt>
      <trkpt lat="48.73192" lon="7.69435">
        <ele>143</ele>
        <time>2022-02-08T03:38:59Z</time>
      </trkpt>
      <trkpt lat="48.73137" lon="7.697">
        <ele>142</ele>
        <time>2022-02-08T03:39:31Z</time>
      </trkpt>
      <trkpt lat="48.73144" lon="7.69717">
        <ele>143</ele>
        <time>2022-02-08T03:39:34Z</time>
      </trkpt>
      <trkpt lat="48.73186" lon="7.69778">
        <ele>142</ele>
        <time>2022-02-08T03:39:44Z</time>
      </trkpt>
      <trkpt lat="48.73204" lon="7.6981">
        <ele>142</ele>
        <time>2022-02-08T03:39:49Z</time>
      </trkpt>
      <trkpt lat="48.73209" lon="7.69816">
        <ele>142</ele>
        <time>2022-02-08T03:39:50Z</time>
      </trkpt>
      <trkpt lat="48.73226" lon="7.69815">
        <ele>141</ele>
        <time>2022-02-08T03:39:53Z</time>
      </trkpt>
      <trkpt lat="48.73234" lon="7.69817">
        <ele>141</ele>
        <time>2022-02-08T03:39:54Z</time>
      </trkpt>
      <trkpt lat="48.73242" lon="7.69823">
        <ele>141</ele>
        <time>2022-02-08T03:39:56Z</time>
      </trkpt>
      <trkpt lat="48.73248" lon="7.69836">
        <ele>141</ele>
        <time>2022-02-08T03:39:58Z</time>
      </trkpt>
      <trkpt lat="48.73254" lon="7.69867">
        <ele>141</ele>
        <time>2022-02-08T03:40:02Z</time>
      </trkpt>
      <trkpt lat="48.73255" lon="7.6995">
        <ele>141</ele>
        <time>2022-02-08T03:40:11Z</time>
      </trkpt>
      <trkpt lat="48.73269" lon="7.69962">
        <ele>141</ele>
        <time>2022-02-08T03:40:14Z</time>
      </trkpt>
      <trkpt lat="48.73256" lon="7.69991">
        <ele>142</ele>
        <time>2022-02-08T03:40:18Z</time>
      </trkpt>
      <trkpt lat="48.73253" lon="7.70006">
        <ele>142</ele>
        <time>2022-02-08T03:40:20Z</time>
      </trkpt>
      <trkpt lat="48.73249" lon="7.70109">
        <ele>142</ele>
        <time>2022-02-08T03:40:32Z</time>
      </trkpt>
      <trkpt lat="48.73252" lon="7.7012">
        <ele>142</ele>
        <time>2022-02-08T03:40:34Z</time>
      </trkpt>
      <trkpt lat="48.73319" lon="7.7022">
        <ele>144</ele>
        <time>2022-02-08T03:40:50Z</time>
      </trkpt>
      <trkpt lat="48.73223" lon="7.70421">
        <ele>142</ele>
        <time>2022-02-08T03:41:20Z</time>
      </trkpt>
      <trkpt lat="48.73162" lon="7.70582">
        <ele>143</ele>
        <time>2022-02-08T03:41:41Z</time>
      </trkpt>
      <trkpt lat="48.73104" lon="7.70785">
        <ele>144</ele>
        <time>2022-02-08T03:42:07Z</time>
      </trkpt>
      <trkpt lat="48.73101" lon="7.70803">
        <ele>144</ele>
        <time>2022-02-08T03:42:10Z</time>
      </trkpt>
      <trkpt lat="48.73103" lon="7.70815">
        <ele>144</ele>
        <time>2022-02-08T03:42:11Z</time>
      </trkpt>
      <trkpt lat="48.73108" lon="7.70815">
        <ele>144</ele>
        <time>2022-02-08T03:42:12Z</time>
      </trkpt>
      <trkpt lat="48.73114" lon="7.70819">
        <ele>144</ele>
        <time>2022-02-08T03:42:13Z</time>
      </trkpt>
      <trkpt lat="48.73227" lon="7.70906">
        <ele>146</ele>
        <time>2022-02-08T03:42:36Z</time>
      </trkpt>
      <trkpt lat="48.73434" lon="7.71081">
        <ele>148</ele>
        <time>2022-02-08T03:43:18Z</time>
      </trkpt>
      <trkpt lat="48.73452" lon="7.71101">
        <ele>148</ele>
        <time>2022-02-08T03:43:22Z</time>
      </trkpt>
      <trkpt lat="48.73531" lon="7.71207">
        <ele>149</ele>
        <time>2022-02-08T03:43:40Z</time>
      </trkpt>
      <trkpt lat="48.73603" lon="7.71318">
        <ele>150</ele>
        <time>2022-02-08T03:43:59Z</time>
      </trkpt>
      <trkpt lat="48.73619" lon="7.71339">
        <ele>150</ele>
        <time>2022-02-08T03:44:03Z</time>
      </trkpt>
      <trkpt lat="48.73667" lon="7.71382">
        <ele>152</ele>
        <time>2022-02-08T03:44:12Z</time>
      </trkpt>
      <trkpt lat="48.73742" lon="7.71443">
        <ele>156</ele>
        <time>2022-02-08T03:44:28Z</time>
      </trkpt>
      <trkpt lat="48.7374" lon="7.71452">
        <ele>156</ele>
        <time>2022-02-08T03:44:29Z</time>
      </trkpt>
      <trkpt lat="48.73746" lon="7.71468">
        <ele>156</ele>
        <time>2022-02-08T03:44:31Z</time>
      </trkpt>
      <trkpt lat="48.73751" lon="7.71472">
        <ele>156</ele>
        <time>2022-02-08T03:44:32Z</time>
      </trkpt>
      <trkpt lat="48.73757" lon="7.71472">
        <ele>156</ele>
        <time>2022-02-08T03:44:33Z</time>
      </trkpt>
      <trkpt lat="48.73766" lon="7.71461">
        <ele>156</ele>
        <time>2022-02-08T03:44:35Z</time>
      </trkpt>
      <trkpt lat="48.74093" lon="7.7174">
        <ele>163</ele>
        <time>2022-02-08T03:45:42Z</time>
      </trkpt>
      <trkpt lat="48.74153" lon="7.71787">
        <ele>165</ele>
        <time>2022-02-08T03:45:54Z</time>
      </trkpt>
      <trkpt lat="48.74293" lon="7.71857">
        <ele>166</ele>
        <time>2022-02-08T03:46:20Z</time>
      </trkpt>
      <trkpt lat="48.74507" lon="7.71989">
        <ele>167</ele>
        <time>2022-02-08T03:47:01Z</time>
      </trkpt>
      <trkpt lat="48.74581" lon="7.72046">
        <ele>161</ele>
        <time>2022-02-08T03:47:16Z</time>
      </trkpt>
      <trkpt lat="48.74661" lon="7.72117">
        <ele>160</ele>
        <time>2022-02-08T03:47:32Z</time>
      </trkpt>
      <trkpt lat="48.74698" lon="7.72143">
        <ele>164</ele>
        <time>2022-02-08T03:47:40Z</time>
      </trkpt>
      <trkpt lat="48.7488" lon="7.72254">
        <ele>180</ele>
        <time>2022-02-08T03:48:15Z</time>
      </trkpt>
      <trkpt lat="48.74998" lon="7.72318">
        <ele>182</ele>
        <time>2022-02-08T03:48:37Z</time>
      </trkpt>
      <trkpt lat="48.75093" lon="7.7236">
        <ele>183</ele>
        <time>2022-02-08T03:48:54Z</time>
      </trkpt>
      <trkpt lat="48.75138" lon="7.72384">
        <ele>183</ele>
        <time>2022-02-08T03:49:03Z</time>
      </trkpt>
      <trkpt lat="48.75327" lon="7.72488">
        <ele>184</ele>
        <time>2022-02-08T03:49:39Z</time>
      </trkpt>
      <trkpt lat="48.75543" lon="7.72617">
        <ele>184</ele>
        <time>2022-02-08T03:50:20Z</time>
      </trkpt>
      <trkpt lat="48.75583" lon="7.72638">
        <ele>183</ele>
        <time>2022-02-08T03:50:28Z</time>
      </trkpt>
      <trkpt lat="48.75677" lon="7.72676">
        <ele>182</ele>
        <time>2022-02-08T03:50:45Z</time>
      </trkpt>
      <trkpt lat="48.7573" lon="7.72692">
        <ele>184</ele>
        <time>2022-02-08T03:50:54Z</time>
      </trkpt>
      <trkpt lat="48.7581" lon="7.72698">
        <ele>185</ele>
        <time>2022-02-08T03:51:09Z</time>
      </trkpt>
      <trkpt lat="48.75966" lon="7.72716">
        <ele>185</ele>
        <time>2022-02-08T03:51:37Z</time>
      </trkpt>
      <trkpt lat="48.76201" lon="7.72736">
        <ele>185</ele>
        <time>2022-02-08T03:52:18Z</time>
      </trkpt>
      <trkpt lat="48.76331" lon="7.72758">
        <ele>187</ele>
        <time>2022-02-08T03:52:42Z</time>
      </trkpt>
      <trkpt lat="48.76474" lon="7.72778">
        <ele>183</ele>
        <time>2022-02-08T03:53:07Z</time>
      </trkpt>
      <trkpt lat="48.76562" lon="7.72796">
        <ele>181</ele>
        <time>2022-02-08T03:53:23Z</time>
      </trkpt>
      <trkpt lat="48.766" lon="7.72809">
        <ele>182</ele>
        <time>2022-02-08T03:53:30Z</time>
      </trkpt>
      <trkpt lat="48.76643" lon="7.7283">
        <ele>184</ele>
        <time>2022-02-08T03:53:38Z</time>
      </trkpt>
      <trkpt lat="48.76676" lon="7.72854">
        <ele>186</ele>
        <time>2022-02-08T03:53:45Z</time>
      </trkpt>
      <trkpt lat="48.76711" lon="7.72886">
        <ele>187</ele>
        <time>2022-02-08T03:53:52Z</time>
      </trkpt>
      <trkpt lat="48.76746" lon="7.72924">
        <ele>188</ele>
        <time>2022-02-08T03:53:59Z</time>
      </trkpt>
      <trkpt lat="48.7685" lon="7.73058">
        <ele>187</ele>
        <time>2022-02-08T03:54:24Z</time>
      </trkpt>
      <trkpt lat="48.76897" lon="7.73112">
        <ele>186</ele>
        <time>2022-02-08T03:54:34Z</time>
      </trkpt>
      <trkpt lat="48.7695" lon="7.7316">
        <ele>184</ele>
        <time>2022-02-08T03:54:45Z</time>
      </trkpt>
      <trkpt lat="48.77117" lon="7.73292">
        <ele>186</ele>
        <time>2022-02-08T03:55:19Z</time>
      </trkpt>
      <trkpt lat="48.7722" lon="7.73377">
        <ele>186</ele>
        <time>2022-02-08T03:55:40Z</time>
      </trkpt>
      <trkpt lat="48.77243" lon="7.73401">
        <ele>187</ele>
        <time>2022-02-08T03:55:45Z</time>
      </trkpt>
      <trkpt lat="48.77273" lon="7.73443">
        <ele>186</ele>
        <time>2022-02-08T03:55:52Z</time>
      </trkpt>
      <trkpt lat="48.77315" lon="7.73511">
        <ele>183</ele>
        <time>2022-02-08T03:56:03Z</time>
      </trkpt>
      <trkpt lat="48.77336" lon="7.73552">
        <ele>184</ele>
        <time>2022-02-08T03:56:09Z</time>
      </trkpt>
      <trkpt lat="48.7742" lon="7.73734">
        <ele>187</ele>
        <time>2022-02-08T03:56:35Z</time>
      </trkpt>
      <trkpt lat="48.77515" lon="7.73945">
        <ele>189</ele>
        <time>2022-02-08T03:57:05Z</time>
      </trkpt>
      <trkpt lat="48.77562" lon="7.74035">
        <ele>189</ele>
        <time>2022-02-08T03:57:18Z</time>
      </trkpt>
      <trkpt lat="48.77616" lon="7.74132">
        <ele>187</ele>
        <time>2022-02-08T03:57:33Z</time>
      </trkpt>
      <trkpt lat="48.77637" lon="7.74161">
        <ele>187</ele>
        <time>2022-02-08T03:57:38Z</time>
      </trkpt>
      <trkpt lat="48.77646" lon="7.74182">
        <ele>186</ele>
        <time>2022-02-08T03:57:41Z</time>
      </trkpt>
      <trkpt lat="48.78067" lon="7.74579">
        <ele>171</ele>
        <time>2022-02-08T03:59:09Z</time>
      </trkpt>
      <trkpt lat="48.78583" lon="7.75055">
        <ele>164</ele>
        <time>2022-02-08T04:00:57Z</time>
      </trkpt>
      <trkpt lat="48.78676" lon="7.75109">
        <ele>161</ele>
        <time>2022-02-08T04:01:15Z</time>
      </trkpt>
      <trkpt lat="48.7902" lon="7.75326">
        <ele>159</ele>
        <time>2022-02-08T04:02:21Z</time>
      </trkpt>
      <trkpt lat="48.79036" lon="7.75343">
        <ele>159</ele>
        <time>2022-02-08T04:02:24Z</time>
      </trkpt>
      <trkpt lat="48.79283" lon="7.75689">
        <ele>162</ele>
        <time>2022-02-08T04:03:24Z</time>
      </trkpt>
      <trkpt lat="48.79413" lon="7.75857">
        <ele>163</ele>
        <time>2022-02-08T04:03:54Z</time>
      </trkpt>
      <trkpt lat="48.79657" lon="7.7614">
        <ele>159</ele>
        <time>2022-02-08T04:04:49Z</time>
      </trkpt>
      <trkpt lat="48.79679" lon="7.7616">
        <ele>159</ele>
        <time>2022-02-08T04:04:54Z</time>
      </trkpt>
      <trkpt lat="48.79714" lon="7.76207">
        <ele>158</ele>
        <time>2022-02-08T04:05:02Z</time>
      </trkpt>
      <trkpt lat="48.79835" lon="7.76347">
        <ele>155</ele>
        <time>2022-02-08T04:05:29Z</time>
      </trkpt>
      <trkpt lat="48.79912" lon="7.76447">
        <ele>160</ele>
        <time>2022-02-08T04:05:47Z</time>
      </trkpt>
      <trkpt lat="48.79919" lon="7.76448">
        <ele>160</ele>
        <time>2022-02-08T04:05:48Z</time>
      </trkpt>
      <trkpt lat="48.80036" lon="7.76595">
        <ele>162</ele>
        <time>2022-02-08T04:06:15Z</time>
      </trkpt>
      <trkpt lat="48.80043" lon="7.76613">
        <ele>162</ele>
        <time>2022-02-08T04:06:18Z</time>
      </trkpt>
      <trkpt lat="48.80126" lon="7.7672">
        <ele>163</ele>
        <time>2022-02-08T04:06:37Z</time>
      </trkpt>
      <trkpt lat="48.80134" lon="7.76722">
        <ele>163</ele>
        <time>2022-02-08T04:06:39Z</time>
      </trkpt>
      <trkpt lat="48.80312" lon="7.76955">
        <ele>161</ele>
        <time>2022-02-08T04:07:20Z</time>
      </trkpt>
      <trkpt lat="48.8012" lon="7.77402">
        <ele>158</ele>
        <time>2022-02-08T04:08:23Z</time>
      </trkpt>
      <trkpt lat="48.80084" lon="7.7751">
        <ele>157</ele>
        <time>2022-02-08T04:08:37Z</time>
      </trkpt>
      <trkpt lat="48.80095" lon="7.77524">
        <ele>157</ele>
        <time>2022-02-08T04:08:40Z</time>
      </trkpt>
      <trkpt lat="48.80202" lon="7.77626">
        <ele>153</ele>
        <time>2022-02-08T04:09:02Z</time>
      </trkpt>
      <trkpt lat="48.8021" lon="7.7763">
        <ele>153</ele>
        <time>2022-02-08T04:09:04Z</time>
      </trkpt>
      <trkpt lat="48.80346" lon="7.77759">
        <ele>152</ele>
        <time>2022-02-08T04:09:32Z</time>
      </trkpt>
      <trkpt lat="48.80355" lon="7.7777">
        <ele>152</ele>
        <time>2022-02-08T04:09:34Z</time>
      </trkpt>
      <trkpt lat="48.80432" lon="7.77842">
        <ele>152</ele>
        <time>2022-02-08T04:09:50Z</time>
      </trkpt>
      <trkpt lat="48.80444" lon="7.7785">
        <ele>152</ele>
        <time>2022-02-08T04:09:53Z</time>
      </trkpt>
      <trkpt lat="48.80535" lon="7.77939">
        <ele>154</ele>
        <time>2022-02-08T04:10:12Z</time>
      </trkpt>
      <trkpt lat="48.80576" lon="7.77976">
        <ele>156</ele>
        <time>2022-02-08T04:10:20Z</time>
      </trkpt>
      <trkpt lat="48.80696" lon="7.78049">
        <ele>153</ele>
        <time>2022-02-08T04:10:43Z</time>
      </trkpt>
      <trkpt lat="48.80892" lon="7.78159">
        <ele>153</ele>
        <time>2022-02-08T04:11:21Z</time>
      </trkpt>
      <trkpt lat="48.80958" lon="7.78193">
        <ele>152</ele>
        <time>2022-02-08T04:11:33Z</time>
      </trkpt>
      <trkpt lat="48.81025" lon="7.78218">
        <ele>151</ele>
        <time>2022-02-08T04:11:45Z</time>
      </trkpt>
      <trkpt lat="48.81027" lon="7.78222">
        <ele>151</ele>
        <time>2022-02-08T04:11:46Z</time>
      </trkpt>
      <trkpt lat="48.81039" lon="7.78227">
        <ele>150</ele>
        <time>2022-02-08T04:11:48Z</time>
      </trkpt>
      <trkpt lat="48.81045" lon="7.78233">
        <ele>150</ele>
        <time>2022-02-08T04:11:49Z</time>
      </trkpt>
      <trkpt lat="48.81054" lon="7.78249">
        <ele>150</ele>
        <time>2022-02-08T04:11:52Z</time>
      </trkpt>
      <trkpt lat="48.81077" lon="7.78299">
        <ele>149</ele>
        <time>2022-02-08T04:11:59Z</time>
      </trkpt>
      <trkpt lat="48.8109" lon="7.78334">
        <ele>149</ele>
        <time>2022-02-08T04:12:04Z</time>
      </trkpt>
      <trkpt lat="48.81097" lon="7.78372">
        <ele>150</ele>
        <time>2022-02-08T04:12:08Z</time>
      </trkpt>
      <trkpt lat="48.81103" lon="7.78379">
        <ele>150</ele>
        <time>2022-02-08T04:12:10Z</time>
      </trkpt>
      <trkpt lat="48.8112" lon="7.7838">
        <ele>150</ele>
        <time>2022-02-08T04:12:13Z</time>
      </trkpt>
      <trkpt lat="48.81108" lon="7.78353">
        <ele>149</ele>
        <time>2022-02-08T04:12:17Z</time>
      </trkpt>
      <trkpt lat="48.81114" lon="7.78346">
        <ele>149</ele>
        <time>2022-02-08T04:12:18Z</time>
      </trkpt>
      <trkpt lat="48.8113" lon="7.78349">
        <ele>149</ele>
        <time>2022-02-08T04:12:21Z</time>
      </trkpt>
      <trkpt lat="48.8129" lon="7.78314">
        <ele>144</ele>
        <time>2022-02-08T04:12:49Z</time>
      </trkpt>
      <trkpt lat="48.8131" lon="7.78315">
        <ele>143</ele>
        <time>2022-02-08T04:12:53Z</time>
      </trkpt>
      <trkpt lat="48.81333" lon="7.78312">
        <ele>142</ele>
        <time>2022-02-08T04:12:57Z</time>
      </trkpt>
      <trkpt lat="48.81334" lon="7.78359">
        <ele>143</ele>
        <time>2022-02-08T04:13:03Z</time>
      </trkpt>
      <trkpt lat="48.81337" lon="7.78386">
        <ele>144</ele>
        <time>2022-02-08T04:13:06Z</time>
      </trkpt>
      <trkpt lat="48.81381" lon="7.7839">
        <ele>142</ele>
        <time>2022-02-08T04:13:14Z</time>
      </trkpt>
      <trkpt lat="48.81411" lon="7.78382">
        <ele>142</ele>
        <time>2022-02-08T04:13:19Z</time>
      </trkpt>
      <trkpt lat="48.81444" lon="7.78369">
        <ele>142</ele>
        <time>2022-02-08T04:13:25Z</time>
      </trkpt>
      <trkpt lat="48.81448" lon="7.78364">
        <ele>142</ele>
        <time>2022-02-08T04:13:26Z</time>
      </trkpt>
      <trkpt lat="48.81468" lon="7.78356">
        <ele>142</ele>
        <time>2022-02-08T04:13:30Z</time>
      </trkpt>
      <trkpt lat="48.81474" lon="7.78379">
        <ele>142</ele>
        <time>2022-02-08T04:13:33Z</time>
      </trkpt>
      <trkpt lat="48.8158" lon="7.78334">
        <ele>142</ele>
        <time>2022-02-08T04:13:52Z</time>
      </trkpt>
      <trkpt lat="48.81682" lon="7.78295">
        <ele>142</ele>
        <time>2022-02-08T04:14:11Z</time>
      </trkpt>
      <trkpt lat="48.81714" lon="7.78287">
        <ele>141</ele>
        <time>2022-02-08T04:14:17Z</time>
      </trkpt>
      <trkpt lat="48.81738" lon="7.78288">
        <ele>141</ele>
        <time>2022-02-08T04:14:21Z</time>
      </trkpt>
      <trkpt lat="48.81758" lon="7.78293">
        <ele>141</ele>
        <time>2022-02-08T04:14:25Z</time>
      </trkpt>
      <trkpt lat="48.81783" lon="7.78305">
        <ele>141</ele>
        <time>2022-02-08T04:14:29Z</time>
      </trkpt>
      <trkpt lat="48.81785" lon="7.78293">
        <ele>141</ele>
        <time>2022-02-08T04:14:31Z</time>
      </trkpt>
      <trkpt lat="48.81835" lon="7.7833">
        <ele>142</ele>
        <time>2022-02-08T04:14:41Z</time>
      </trkpt>
      <trkpt lat="48.81839" lon="7.78318">
        <ele>142</ele>
        <time>2022-02-08T04:14:42Z</time>
      </trkpt>
      <trkpt lat="48.81849" lon="7.78321">
        <ele>142</ele>
        <time>2022-02-08T04:14:44Z</time>
      </trkpt>
      <trkpt lat="48.81863" lon="7.78272">
        <ele>142</ele>
        <time>2022-02-08T04:14:50Z</time>
      </trkpt>
      <trkpt lat="48.81906" lon="7.7831">
        <ele>142</ele>
        <time>2022-02-08T04:14:59Z</time>
      </trkpt>
      <trkpt lat="48.81916" lon="7.78326">
        <ele>142</ele>
        <time>2022-02-08T04:15:02Z</time>
      </trkpt>
      <trkpt lat="48.81976" lon="7.78385">
        <ele>142</ele>
        <time>2022-02-08T04:15:14Z</time>
      </trkpt>
      <trkpt lat="48.81992" lon="7.78413">
        <ele>142</ele>
        <time>2022-02-08T04:15:19Z</time>
      </trkpt>
      <trkpt lat="48.82046" lon="7.78591">
        <ele>143</ele>
        <time>2022-02-08T04:15:42Z</time>
      </trkpt>
      <trkpt lat="48.82058" lon="7.78612">
        <ele>143</ele>
        <time>2022-02-08T04:15:45Z</time>
      </trkpt>
      <trkpt lat="48.8211" lon="7.78784">
        <ele>143</ele>
        <time>2022-02-08T04:16:07Z</time>
      </trkpt>
      <trkpt lat="48.82121" lon="7.78823">
        <ele>142</ele>
        <time>2022-02-08T04:16:12Z</time>
      </trkpt>
      <trkpt lat="48.82148" lon="7.78951">
        <ele>142</ele>
        <time>2022-02-08T04:16:28Z</time>
      </trkpt>
      <trkpt lat="48.8216" lon="7.79013">
        <ele>143</ele>
        <time>2022-02-08T04:16:35Z</time>
      </trkpt>
      <trkpt lat="48.82163" lon="7.79041">
        <ele>143</ele>
        <time>2022-02-08T04:16:39Z</time>
      </trkpt>
      <trkpt lat="48.82136" lon="7.79227">
        <ele>143</ele>
        <time>2022-02-08T04:17:01Z</time>
      </trkpt>
      <trkpt lat="48.82138" lon="7.79251">
        <ele>144</ele>
        <time>2022-02-08T04:17:04Z</time>
      </trkpt>
      <trkpt lat="48.82091" lon="7.79459">
        <ele>138</ele>
        <time>2022-02-08T04:17:30Z</time>
      </trkpt>
      <trkpt lat="48.82121" lon="7.7949">
        <ele>139</ele>
        <time>2022-02-08T04:17:36Z</time>
      </trkpt>
      <trkpt lat="48.8214" lon="7.79503">
        <ele>140</ele>
        <time>2022-02-08T04:17:40Z</time>
      </trkpt>
      <trkpt lat="48.82218" lon="7.79532">
        <ele>143</ele>
        <time>2022-02-08T04:17:54Z</time>
      </trkpt>
      <trkpt lat="48.82229" lon="7.79531">
        <ele>143</ele>
        <time>2022-02-08T04:17:56Z</time>
      </trkpt>
      <trkpt lat="48.82232" lon="7.79584">
        <ele>144</ele>
        <time>2022-02-08T04:18:02Z</time>
      </trkpt>
      <trkpt lat="48.8232" lon="7.79552">
        <ele>145</ele>
        <time>2022-02-08T04:18:18Z</time>
      </trkpt>
      <trkpt lat="48.82311" lon="7.79522">
        <ele>145</ele>
        <time>2022-02-08T04:18:22Z</time>
      </trkpt>
      <trkpt lat="48.82336" lon="7.79503">
        <ele>145</ele>
        <time>2022-02-08T04:18:27Z</time>
      </trkpt>
      <trkpt lat="48.82413" lon="7.79662">
        <ele>148</ele>
        <time>2022-02-08T04:18:50Z</time>
      </trkpt>
      <trkpt lat="48.82433" lon="7.79708">
        <ele>148</ele>
        <time>2022-02-08T04:18:57Z</time>
      </trkpt>
      <trkpt lat="48.82454" lon="7.79773">
        <ele>147</ele>
        <time>2022-02-08T04:19:05Z</time>
      </trkpt>
      <trkpt lat="48.8246" lon="7.79811">
        <ele>147</ele>
        <time>2022-02-08T04:19:10Z</time>
      </trkpt>
      <trkpt lat="48.82537" lon="7.80009">
        <ele>148</ele>
        <time>2022-02-08T04:19:37Z</time>
      </trkpt>
      <trkpt lat="48.82597" lon="7.80134">
        <ele>148</ele>
        <time>2022-02-08T04:19:55Z</time>
      </trkpt>
      <trkpt lat="48.82664" lon="7.80266">
        <ele>151</ele>
        <time>2022-02-08T04:20:15Z</time>
      </trkpt>
      <trkpt lat="48.82727" lon="7.80381">
        <ele>151</ele>
        <time>2022-02-08T04:20:32Z</time>
      </trkpt>
      <trkpt lat="48.82803" lon="7.80528">
        <ele>150</ele>
        <time>2022-02-08T04:20:54Z</time>
      </trkpt>
      <trkpt lat="48.82807" lon="7.80531">
        <ele>150</ele>
        <time>2022-02-08T04:20:55Z</time>
      </trkpt>
      <trkpt lat="48.82802" lon="7.8059">
        <ele>150</ele>
        <time>2022-02-08T04:21:02Z</time>
      </trkpt>
      <trkpt lat="48.82788" lon="7.80698">
        <ele>151</ele>
        <time>2022-02-08T04:21:15Z</time>
      </trkpt>
      <trkpt lat="48.82786" lon="7.80756">
        <ele>151</ele>
        <time>2022-02-08T04:21:21Z</time>
      </trkpt>
      <trkpt lat="48.82817" lon="7.81147">
        <ele>152</ele>
        <time>2022-02-08T04:22:08Z</time>
      </trkpt>
      <trkpt lat="48.82862" lon="7.81129">
        <ele>152</ele>
        <time>2022-02-08T04:22:16Z</time>
      </trkpt>
      <trkpt lat="48.82918" lon="7.81118">
        <ele>151</ele>
        <time>2022-02-08T04:22:26Z</time>
      </trkpt>
      <trkpt lat="48.8295" lon="7.81108">
        <ele>149</ele>
        <time>2022-02-08T04:22:32Z</time>
      </trkpt>
      <trkpt lat="48.82965" lon="7.81097">
        <ele>147</ele>
        <time>2022-02-08T04:22:35Z</time>
      </trkpt>
      <trkpt lat="48.83016" lon="7.8104">
        <ele>146</ele>
        <time>2022-02-08T04:22:46Z</time>
      </trkpt>
      <trkpt lat="48.83171" lon="7.81176">
        <ele>145</ele>
        <time>2022-02-08T04:23:18Z</time>
      </trkpt>
      <trkpt lat="48.83179" lon="7.81186">
        <ele>145</ele>
        <time>2022-02-08T04:23:20Z</time>
      </trkpt>
      <trkpt lat="48.83186" lon="7.81199">
        <ele>146</ele>
        <time>2022-02-08T04:23:22Z</time>
      </trkpt>
      <trkpt lat="48.83213" lon="7.81274">
        <ele>147</ele>
        <time>2022-02-08T04:23:32Z</time>
      </trkpt>
      <trkpt lat="48.83251" lon="7.81389">
        <ele>147</ele>
        <time>2022-02-08T04:23:47Z</time>
      </trkpt>
      <trkpt lat="48.83291" lon="7.81605">
        <ele>150</ele>
        <time>2022-02-08T04:24:13Z</time>
      </trkpt>
      <trkpt lat="48.83298" lon="7.81629">
        <ele>150</ele>
        <time>2022-02-08T04:24:16Z</time>
      </trkpt>
      <trkpt lat="48.83372" lon="7.81811">
        <ele>151</ele>
        <time>2022-02-08T04:24:41Z</time>
      </trkpt>
      <trkpt lat="48.83426" lon="7.81967">
        <ele>150</ele>
        <time>2022-02-08T04:25:02Z</time>
      </trkpt>
      <trkpt lat="48.83558" lon="7.8224">
        <ele>150</ele>
        <time>2022-02-08T04:25:41Z</time>
      </trkpt>
      <trkpt lat="48.83582" lon="7.82301">
        <ele>150</ele>
        <time>2022-02-08T04:25:50Z</time>
      </trkpt>
      <trkpt lat="48.83607" lon="7.82396">
        <ele>149</ele>
        <time>2022-02-08T04:26:02Z</time>
      </trkpt>
      <trkpt lat="48.83711" lon="7.82647">
        <ele>153</ele>
        <time>2022-02-08T04:26:36Z</time>
      </trkpt>
      <trkpt lat="48.83724" lon="7.82675">
        <ele>153</ele>
        <time>2022-02-08T04:26:40Z</time>
      </trkpt>
      <trkpt lat="48.83735" lon="7.82692">
        <ele>154</ele>
        <time>2022-02-08T04:26:43Z</time>
      </trkpt>
      <trkpt lat="48.83826" lon="7.82802">
        <ele>152</ele>
        <time>2022-02-08T04:27:04Z</time>
      </trkpt>
      <trkpt lat="48.83858" lon="7.82888">
        <ele>152</ele>
        <time>2022-02-08T04:27:15Z</time>
      </trkpt>
      <trkpt lat="48.83914" lon="7.82965">
        <ele>152</ele>
        <time>2022-02-08T04:27:29Z</time>
      </trkpt>
      <trkpt lat="48.84055" lon="7.83132">
        <ele>151</ele>
        <time>2022-02-08T04:28:01Z</time>
      </trkpt>
      <trkpt lat="48.8406" lon="7.83142">
        <ele>151</ele>
        <time>2022-02-08T04:28:02Z</time>
      </trkpt>
      <trkpt lat="48.84293" lon="7.84308">
        <ele>149</ele>
        <time>2022-02-08T04:30:25Z</time>
      </trkpt>
      <trkpt lat="48.84527" lon="7.85498">
        <ele>149</ele>
        <time>2022-02-08T04:32:50Z</time>
      </trkpt>
      <trkpt lat="48.84537" lon="7.85633">
        <ele>148</ele>
        <time>2022-02-08T04:33:06Z</time>
      </trkpt>
      <trkpt lat="48.84537" lon="7.85663">
        <ele>147</ele>
        <time>2022-02-08T04:33:10Z</time>
      </trkpt>
      <trkpt lat="48.84533" lon="7.85697">
        <ele>147</ele>
        <time>2022-02-08T04:33:14Z</time>
      </trkpt>
      <trkpt lat="48.84488" lon="7.85893">
        <ele>146</ele>
        <time>2022-02-08T04:33:38Z</time>
      </trkpt>
      <trkpt lat="48.84481" lon="7.85941">
        <ele>146</ele>
        <time>2022-02-08T04:33:44Z</time>
      </trkpt>
      <trkpt lat="48.84473" lon="7.86294">
        <ele>146</ele>
        <time>2022-02-08T04:34:25Z</time>
      </trkpt>
      <trkpt lat="48.84604" lon="7.86321">
        <ele>144</ele>
        <time>2022-02-08T04:34:49Z</time>
      </trkpt>
      <trkpt lat="48.84643" lon="7.86327">
        <ele>143</ele>
        <time>2022-02-08T04:34:56Z</time>
      </trkpt>
      <trkpt lat="48.84887" lon="7.86324">
        <ele>145</ele>
        <time>2022-02-08T04:35:39Z</time>
      </trkpt>
      <trkpt lat="48.85013" lon="7.86332">
        <ele>148</ele>
        <time>2022-02-08T04:36:02Z</time>
      </trkpt>
      <trkpt lat="48.85065" lon="7.86332">
        <ele>146</ele>
        <time>2022-02-08T04:36:11Z</time>
      </trkpt>
      <trkpt lat="48.85079" lon="7.86363">
        <ele>147</ele>
        <time>2022-02-08T04:36:15Z</time>
      </trkpt>
      <trkpt lat="48.85091" lon="7.86382">
        <ele>148</ele>
        <time>2022-02-08T04:36:18Z</time>
      </trkpt>
      <trkpt lat="48.85145" lon="7.86449">
        <ele>148</ele>
        <time>2022-02-08T04:36:31Z</time>
      </trkpt>
      <trkpt lat="48.8519" lon="7.86488">
        <ele>147</ele>
        <time>2022-02-08T04:36:40Z</time>
      </trkpt>
      <trkpt lat="48.85205" lon="7.86494">
        <ele>147</ele>
        <time>2022-02-08T04:36:43Z</time>
      </trkpt>
      <trkpt lat="48.85218" lon="7.86493">
        <ele>148</ele>
        <time>2022-02-08T04:36:45Z</time>
      </trkpt>
      <trkpt lat="48.8529" lon="7.86463">
        <ele>147</ele>
        <time>2022-02-08T04:36:58Z</time>
      </trkpt>
      <trkpt lat="48.85324" lon="7.86456">
        <ele>146</ele>
        <time>2022-02-08T04:37:04Z</time>
      </trkpt>
      <trkpt lat="48.85355" lon="7.86476">
        <ele>146</ele>
        <time>2022-02-08T04:37:10Z</time>
      </trkpt>
      <trkpt lat="48.85406" lon="7.86598">
        <ele>146</ele>
        <time>2022-02-08T04:37:27Z</time>
      </trkpt>
      <trkpt lat="48.8543" lon="7.86633">
        <ele>146</ele>
        <time>2022-02-08T04:37:33Z</time>
      </trkpt>
      <trkpt lat="48.85573" lon="7.86755">
        <ele>146</ele>
        <time>2022-02-08T04:38:02Z</time>
      </trkpt>
      <trkpt lat="48.8561" lon="7.86794">
        <ele>146</ele>
        <time>2022-02-08T04:38:10Z</time>
      </trkpt>
      <trkpt lat="48.85649" lon="7.86866">
        <ele>146</ele>
        <time>2022-02-08T04:38:21Z</time>
      </trkpt>
      <trkpt lat="48.85665" lon="7.86889">
        <ele>146</ele>
        <time>2022-02-08T04:38:25Z</time>
      </trkpt>
      <trkpt lat="48.85711" lon="7.86924">
        <ele>147</ele>
        <time>2022-02-08T04:38:34Z</time>
      </trkpt>
      <trkpt lat="48.85851" lon="7.8702">
        <ele>145</ele>
        <time>2022-02-08T04:39:02Z</time>
      </trkpt>
      <trkpt lat="48.86042" lon="7.87135">
        <ele>147</ele>
        <time>2022-02-08T04:39:38Z</time>
      </trkpt>
      <trkpt lat="48.86253" lon="7.87316">
        <ele>150</ele>
        <time>2022-02-08T04:40:21Z</time>
      </trkpt>
      <trkpt lat="48.86436" lon="7.87465">
        <ele>150</ele>
        <time>2022-02-08T04:40:58Z</time>
      </trkpt>
      <trkpt lat="48.86568" lon="7.87576">
        <ele>150</ele>
        <time>2022-02-08T04:41:25Z</time>
      </trkpt>
      <trkpt lat="48.86793" lon="7.87756">
        <ele>147</ele>
        <time>2022-02-08T04:42:10Z</time>
      </trkpt>
      <trkpt lat="48.86869" lon="7.87799">
        <ele>149</ele>
        <time>2022-02-08T04:42:25Z</time>
      </trkpt>
      <trkpt lat="48.86967" lon="7.87838">
        <ele>148</ele>
        <time>2022-02-08T04:42:43Z</time>
      </trkpt>
      <trkpt lat="48.87017" lon="7.87849">
        <ele>147</ele>
        <time>2022-02-08T04:42:52Z</time>
      </trkpt>
      <trkpt lat="48.87254" lon="7.87848">
        <ele>152</ele>
        <time>2022-02-08T04:43:34Z</time>
      </trkpt>
      <trkpt lat="48.87365" lon="7.87875">
        <ele>150</ele>
        <time>2022-02-08T04:43:54Z</time>
      </trkpt>
      <trkpt lat="48.87497" lon="7.879">
        <ele>154</ele>
        <time>2022-02-08T04:44:18Z</time>
      </trkpt>
      <trkpt lat="48.87519" lon="7.87901">
        <ele>155</ele>
        <time>2022-02-08T04:44:22Z</time>
      </trkpt>
      <trkpt lat="48.87551" lon="7.87888">
        <ele>155</ele>
        <time>2022-02-08T04:44:27Z</time>
      </trkpt>
      <trkpt lat="48.87755" lon="7.87781">
        <ele>151</ele>
        <time>2022-02-08T04:45:06Z</time>
      </trkpt>
      <trkpt lat="48.87789" lon="7.87776">
        <ele>150</ele>
        <time>2022-02-08T04:45:12Z</time>
      </trkpt>
      <trkpt lat="48.87809" lon="7.87786">
        <ele>151</ele>
        <time>2022-02-08T04:45:16Z</time>
      </trkpt>
      <trkpt lat="48.87864" lon="7.87844">
        <ele>151</ele>
        <time>2022-02-08T04:45:28Z</time>
      </trkpt>
      <trkpt lat="48.87894" lon="7.87866">
        <ele>151</ele>
        <time>2022-02-08T04:45:34Z</time>
      </trkpt>
      <trkpt lat="48.87938" lon="7.87888">
        <ele>150</ele>
        <time>2022-02-08T04:45:42Z</time>
      </trkpt>
      <trkpt lat="48.88229" lon="7.88086">
        <ele>155</ele>
        <time>2022-02-08T04:46:39Z</time>
      </trkpt>
      <trkpt lat="48.88413" lon="7.88193">
        <ele>152</ele>
        <time>2022-02-08T04:47:14Z</time>
      </trkpt>
      <trkpt lat="48.88602" lon="7.88279">
        <ele>148</ele>
        <time>2022-02-08T04:47:49Z</time>
      </trkpt>
      <trkpt lat="48.88621" lon="7.88277">
        <ele>147</ele>
        <time>2022-02-08T04:47:52Z</time>
      </trkpt>
      <trkpt lat="48.88638" lon="7.88261">
        <ele>147</ele>
        <time>2022-02-08T04:47:56Z</time>
      </trkpt>
      <trkpt lat="48.88714" lon="7.88151">
        <ele>144</ele>
        <time>2022-02-08T04:48:14Z</time>
      </trkpt>
      <trkpt lat="48.88751" lon="7.88079">
        <ele>144</ele>
        <time>2022-02-08T04:48:25Z</time>
      </trkpt>
      <trkpt lat="48.88824" lon="7.87987">
        <ele>144</ele>
        <time>2022-02-08T04:48:42Z</time>
      </trkpt>
      <trkpt lat="48.88904" lon="7.87863">
        <ele>149</ele>
        <time>2022-02-08T04:49:02Z</time>
      </trkpt>
      <trkpt lat="48.88961" lon="7.8776">
        <ele>154</ele>
        <time>2022-02-08T04:49:18Z</time>
      </trkpt>
      <trkpt lat="48.89085" lon="7.87505">
        <ele>152</ele>
        <time>2022-02-08T04:49:55Z</time>
      </trkpt>
      <trkpt lat="48.89163" lon="7.87349">
        <ele>148</ele>
        <time>2022-02-08T04:50:18Z</time>
      </trkpt>
      <trkpt lat="48.89171" lon="7.87339">
        <ele>148</ele>
        <time>2022-02-08T04:50:20Z</time>
      </trkpt>
      <trkpt lat="48.89189" lon="7.8733">
        <ele>148</ele>
        <time>2022-02-08T04:50:23Z</time>
      </trkpt>
      <trkpt lat="48.89202" lon="7.87332">
        <ele>147</ele>
        <time>2022-02-08T04:50:25Z</time>
      </trkpt>
      <trkpt lat="48.89232" lon="7.87349">
        <ele>146</ele>
        <time>2022-02-08T04:50:31Z</time>
      </trkpt>
      <trkpt lat="48.89285" lon="7.87373">
        <ele>143</ele>
        <time>2022-02-08T04:50:41Z</time>
      </trkpt>
      <trkpt lat="48.89564" lon="7.87329">
        <ele>144</ele>
        <time>2022-02-08T04:51:31Z</time>
      </trkpt>
      <trkpt lat="48.89621" lon="7.87335">
        <ele>144</ele>
        <time>2022-02-08T04:51:41Z</time>
      </trkpt>
      <trkpt lat="48.8974" lon="7.87368">
        <ele>144</ele>
        <time>2022-02-08T04:52:03Z</time>
      </trkpt>
      <trkpt lat="48.89785" lon="7.87383">
        <ele>146</ele>
        <time>2022-02-08T04:52:11Z</time>
      </trkpt>
      <trkpt lat="48.89844" lon="7.87409">
        <ele>149</ele>
        <time>2022-02-08T04:52:22Z</time>
      </trkpt>
      <trkpt lat="48.89867" lon="7.87422">
        <ele>150</ele>
        <time>2022-02-08T04:52:26Z</time>
      </trkpt>
      <trkpt lat="48.89957" lon="7.87486">
        <ele>156</ele>
        <time>2022-02-08T04:52:44Z</time>
      </trkpt>
      <trkpt lat="48.90005" lon="7.87508">
        <ele>160</ele>
        <time>2022-02-08T04:52:53Z</time>
      </trkpt>
      <trkpt lat="48.90057" lon="7.87542">
        <ele>166</ele>
        <time>2022-02-08T04:53:03Z</time>
      </trkpt>
      <trkpt lat="48.90214" lon="7.87616">
        <ele>169</ele>
        <time>2022-02-08T04:53:32Z</time>
      </trkpt>
      <trkpt lat="48.90213" lon="7.87623">
        <ele>169</ele>
        <time>2022-02-08T04:53:33Z</time>
      </trkpt>
      <trkpt lat="48.90278" lon="7.87648">
        <ele>166</ele>
        <time>2022-02-08T04:53:45Z</time>
      </trkpt>
      <trkpt lat="48.90359" lon="7.87647">
        <ele>161</ele>
        <time>2022-02-08T04:53:59Z</time>
      </trkpt>
      <trkpt lat="48.90374" lon="7.87649">
        <ele>161</ele>
        <time>2022-02-08T04:54:02Z</time>
      </trkpt>
      <trkpt lat="48.90391" lon="7.87656">
        <ele>161</ele>
        <time>2022-02-08T04:54:05Z</time>
      </trkpt>
      <trkpt lat="48.90407" lon="7.8767">
        <ele>161</ele>
        <time>2022-02-08T04:54:08Z</time>
      </trkpt>
      <trkpt lat="48.90446" lon="7.87714">
        <ele>161</ele>
        <time>2022-02-08T04:54:17Z</time>
      </trkpt>
      <trkpt lat="48.90535" lon="7.87766">
        <ele>163</ele>
        <time>2022-02-08T04:54:34Z</time>
      </trkpt>
      <trkpt lat="48.90839" lon="7.88008">
        <ele>173</ele>
        <time>2022-02-08T04:55:35Z</time>
      </trkpt>
      <trkpt lat="48.90919" lon="7.88064">
        <ele>168</ele>
        <time>2022-02-08T04:55:51Z</time>
      </trkpt>
      <trkpt lat="48.91165" lon="7.88152">
        <ele>182</ele>
        <time>2022-02-08T04:56:36Z</time>
      </trkpt>
      <trkpt lat="48.91221" lon="7.88177">
        <ele>185</ele>
        <time>2022-02-08T04:56:46Z</time>
      </trkpt>
      <trkpt lat="48.91226" lon="7.88198">
        <ele>185</ele>
        <time>2022-02-08T04:56:49Z</time>
      </trkpt>
      <trkpt lat="48.91226" lon="7.88245">
        <ele>184</ele>
        <time>2022-02-08T04:56:54Z</time>
      </trkpt>
      <trkpt lat="48.91229" lon="7.88261">
        <ele>184</ele>
        <time>2022-02-08T04:56:56Z</time>
      </trkpt>
      <trkpt lat="48.91235" lon="7.88276">
        <ele>183</ele>
        <time>2022-02-08T04:56:58Z</time>
      </trkpt>
      <trkpt lat="48.91244" lon="7.88286">
        <ele>183</ele>
        <time>2022-02-08T04:57:00Z</time>
      </trkpt>
      <trkpt lat="48.91303" lon="7.88329">
        <ele>180</ele>
        <time>2022-02-08T04:57:12Z</time>
      </trkpt>
      <trkpt lat="48.91311" lon="7.88345">
        <ele>179</ele>
        <time>2022-02-08T04:57:14Z</time>
      </trkpt>
      <trkpt lat="48.91313" lon="7.88371">
        <ele>178</ele>
        <time>2022-02-08T04:57:17Z</time>
      </trkpt>
      <trkpt lat="48.9132" lon="7.88383">
        <ele>178</ele>
        <time>2022-02-08T04:57:19Z</time>
      </trkpt>
      <trkpt lat="48.91351" lon="7.88414">
        <ele>175</ele>
        <time>2022-02-08T04:57:26Z</time>
      </trkpt>
      <trkpt lat="48.91361" lon="7.88418">
        <ele>175</ele>
        <time>2022-02-08T04:57:27Z</time>
      </trkpt>
      <trkpt lat="48.91376" lon="7.8842">
        <ele>174</ele>
        <time>2022-02-08T04:57:30Z</time>
      </trkpt>
      <trkpt lat="48.9139" lon="7.88418">
        <ele>174</ele>
        <time>2022-02-08T04:57:33Z</time>
      </trkpt>
      <trkpt lat="48.91434" lon="7.88397">
        <ele>172</ele>
        <time>2022-02-08T04:57:41Z</time>
      </trkpt>
      <trkpt lat="48.91461" lon="7.88418">
        <ele>172</ele>
        <time>2022-02-08T04:57:46Z</time>
      </trkpt>
      <trkpt lat="48.91469" lon="7.88422">
        <ele>172</ele>
        <time>2022-02-08T04:57:48Z</time>
      </trkpt>
      <trkpt lat="48.91483" lon="7.88423">
        <ele>171</ele>
        <time>2022-02-08T04:57:50Z</time>
      </trkpt>
      <trkpt lat="48.91563" lon="7.88417">
        <ele>172</ele>
        <time>2022-02-08T04:58:04Z</time>
      </trkpt>
      <trkpt lat="48.91646" lon="7.88406">
        <ele>175</ele>
        <time>2022-02-08T04:58:19Z</time>
      </trkpt>
      <trkpt lat="48.91696" lon="7.88407">
        <ele>177</ele>
        <time>2022-02-08T04:58:28Z</time>
      </trkpt>
      <trkpt lat="48.91718" lon="7.88411">
        <ele>178</ele>
        <time>2022-02-08T04:58:32Z</time>
      </trkpt>
      <trkpt lat="48.91829" lon="7.88506">
        <ele>180</ele>
        <time>2022-02-08T04:58:55Z</time>
      </trkpt>
      <trkpt lat="48.91914" lon="7.88602">
        <ele>182</ele>
        <time>2022-02-08T04:59:14Z</time>
      </trkpt>
      <trkpt lat="48.91946" lon="7.88646">
        <ele>183</ele>
        <time>2022-02-08T04:59:21Z</time>
      </trkpt>
      <trkpt lat="48.9197" lon="7.88689">
        <ele>184</ele>
        <time>2022-02-08T04:59:28Z</time>
      </trkpt>
      <trkpt lat="48.92063" lon="7.8894">
        <ele>187</ele>
        <time>2022-02-08T05:00:02Z</time>
      </trkpt>
      <trkpt lat="48.92085" lon="7.88984">
        <ele>188</ele>
        <time>2022-02-08T05:00:08Z</time>
      </trkpt>
      <trkpt lat="48.92142" lon="7.89055">
        <ele>190</ele>
        <time>2022-02-08T05:00:21Z</time>
      </trkpt>
      <trkpt lat="48.92159" lon="7.89081">
        <ele>191</ele>
        <time>2022-02-08T05:00:25Z</time>
      </trkpt>
      <trkpt lat="48.9217" lon="7.89106">
        <ele>191</ele>
        <time>2022-02-08T05:00:29Z</time>
      </trkpt>
      <trkpt lat="48.92182" lon="7.89135">
        <ele>191</ele>
        <time>2022-02-08T05:00:33Z</time>
      </trkpt>
      <trkpt lat="48.92219" lon="7.8928">
        <ele>189</ele>
        <time>2022-02-08T05:00:51Z</time>
      </trkpt>
      <trkpt lat="48.92306" lon="7.89513">
        <ele>188</ele>
        <time>2022-02-08T05:01:22Z</time>
      </trkpt>
      <trkpt lat="48.92323" lon="7.89565">
        <ele>188</ele>
        <time>2022-02-08T05:01:29Z</time>
      </trkpt>
      <trkpt lat="48.92338" lon="7.8962">
        <ele>189</ele>
        <time>2022-02-08T05:01:36Z</time>
      </trkpt>
      <trkpt lat="48.92378" lon="7.89847">
        <ele>191</ele>
        <time>2022-02-08T05:02:04Z</time>
      </trkpt>
      <trkpt lat="48.92416" lon="7.89989">
        <ele>187</ele>
        <time>2022-02-08T05:02:22Z</time>
      </trkpt>
      <trkpt lat="48.92432" lon="7.90038">
        <ele>186</ele>
        <time>2022-02-08T05:02:28Z</time>
      </trkpt>
      <trkpt lat="48.9247" lon="7.90134">
        <ele>184</ele>
        <time>2022-02-08T05:02:41Z</time>
      </trkpt>
      <trkpt lat="48.92514" lon="7.90224">
        <ele>184</ele>
        <time>2022-02-08T05:02:54Z</time>
      </trkpt>
      <trkpt lat="48.92519" lon="7.90242">
        <ele>184</ele>
        <time>2022-02-08T05:02:57Z</time>
      </trkpt>
      <trkpt lat="48.92545" lon="7.90293">
        <ele>183</ele>
        <time>2022-02-08T05:03:04Z</time>
      </trkpt>
      <trkpt lat="48.92585" lon="7.90393">
        <ele>180</ele>
        <time>2022-02-08T05:03:18Z</time>
      </trkpt>
      <trkpt lat="48.92601" lon="7.90421">
        <ele>178</ele>
        <time>2022-02-08T05:03:22Z</time>
      </trkpt>
      <trkpt lat="48.92609" lon="7.90427">
        <ele>179</ele>
        <time>2022-02-08T05:03:24Z</time>
      </trkpt>
      <trkpt lat="48.92613" lon="7.90427">
        <ele>179</ele>
        <time>2022-02-08T05:03:24Z</time>
      </trkpt>
      <trkpt lat="48.92614" lon="7.90439">
        <ele>178</ele>
        <time>2022-02-08T05:03:26Z</time>
      </trkpt>
      <trkpt lat="48.92627" lon="7.90479">
        <ele>177</ele>
        <time>2022-02-08T05:03:31Z</time>
      </trkpt>
      <trkpt lat="48.9263" lon="7.90501">
        <ele>177</ele>
        <time>2022-02-08T05:03:34Z</time>
      </trkpt>
      <trkpt lat="48.9263" lon="7.90534">
        <ele>176</ele>
        <time>2022-02-08T05:03:37Z</time>
      </trkpt>
      <trkpt lat="48.9264" lon="7.90542">
        <ele>176</ele>
        <time>2022-02-08T05:03:40Z</time>
      </trkpt>
      <trkpt lat="48.92684" lon="7.90593">
        <ele>172</ele>
        <time>2022-02-08T05:03:49Z</time>
      </trkpt>
      <trkpt lat="48.92704" lon="7.90612">
        <ele>170</ele>
        <time>2022-02-08T05:03:54Z</time>
      </trkpt>
      <trkpt lat="48.92769" lon="7.90665">
        <ele>164</ele>
        <time>2022-02-08T05:04:07Z</time>
      </trkpt>
      <trkpt lat="48.9279" lon="7.90694">
        <ele>160</ele>
        <time>2022-02-08T05:04:12Z</time>
      </trkpt>
      <trkpt lat="48.92796" lon="7.90723">
        <ele>158</ele>
        <time>2022-02-08T05:04:15Z</time>
      </trkpt>
      <trkpt lat="48.92788" lon="7.90816">
        <ele>155</ele>
        <time>2022-02-08T05:04:26Z</time>
      </trkpt>
      <trkpt lat="48.92794" lon="7.90845">
        <ele>154</ele>
        <time>2022-02-08T05:04:30Z</time>
      </trkpt>
      <trkpt lat="48.92808" lon="7.90863">
        <ele>153</ele>
        <time>2022-02-08T05:04:33Z</time>
      </trkpt>
      <trkpt lat="48.92844" lon="7.90895">
        <ele>151</ele>
        <time>2022-02-08T05:04:40Z</time>
      </trkpt>
      <trkpt lat="48.92865" lon="7.90918">
        <ele>150</ele>
        <time>2022-02-08T05:04:45Z</time>
      </trkpt>
      <trkpt lat="48.92901" lon="7.90978">
        <ele>146</ele>
        <time>2022-02-08T05:04:55Z</time>
      </trkpt>
      <trkpt lat="48.92919" lon="7.91001">
        <ele>144</ele>
        <time>2022-02-08T05:04:59Z</time>
      </trkpt>
      <trkpt lat="48.93035" lon="7.91097">
        <ele>141</ele>
        <time>2022-02-08T05:05:22Z</time>
      </trkpt>
      <trkpt lat="48.93045" lon="7.91117">
        <ele>141</ele>
        <time>2022-02-08T05:05:25Z</time>
      </trkpt>
      <trkpt lat="48.93075" lon="7.91201">
        <ele>141</ele>
        <time>2022-02-08T05:05:36Z</time>
      </trkpt>
      <trkpt lat="48.93089" lon="7.91218">
        <ele>141</ele>
        <time>2022-02-08T05:05:40Z</time>
      </trkpt>
      <trkpt lat="48.93099" lon="7.91224">
        <ele>141</ele>
        <time>2022-02-08T05:05:41Z</time>
      </trkpt>
      <trkpt lat="48.93111" lon="7.91226">
        <ele>142</ele>
        <time>2022-02-08T05:05:44Z</time>
      </trkpt>
      <trkpt lat="48.93122" lon="7.91223">
        <ele>142</ele>
        <time>2022-02-08T05:05:46Z</time>
      </trkpt>
      <trkpt lat="48.93129" lon="7.91219">
        <ele>143</ele>
        <time>2022-02-08T05:05:47Z</time>
      </trkpt>
      <trkpt lat="48.9319" lon="7.91152">
        <ele>143</ele>
        <time>2022-02-08T05:06:00Z</time>
      </trkpt>
      <trkpt lat="48.93199" lon="7.91148">
        <ele>143</ele>
        <time>2022-02-08T05:06:02Z</time>
      </trkpt>
      <trkpt lat="48.9322" lon="7.91147">
        <ele>143</ele>
        <time>2022-02-08T05:06:06Z</time>
      </trkpt>
      <trkpt lat="48.93481" lon="7.9117">
        <ele>162</ele>
        <time>2022-02-08T05:06:52Z</time>
      </trkpt>
      <trkpt lat="48.93515" lon="7.91171">
        <ele>165</ele>
        <time>2022-02-08T05:06:58Z</time>
      </trkpt>
      <trkpt lat="48.93591" lon="7.91168">
        <ele>171</ele>
        <time>2022-02-08T05:07:12Z</time>
      </trkpt>
      <trkpt lat="48.93584" lon="7.91226">
        <ele>171</ele>
        <time>2022-02-08T05:07:19Z</time>
      </trkpt>
      <trkpt lat="48.93598" lon="7.9124">
        <ele>172</ele>
        <time>2022-02-08T05:07:22Z</time>
      </trkpt>
      <trkpt lat="48.93751" lon="7.91238">
        <ele>171</ele>
        <time>2022-02-08T05:07:49Z</time>
      </trkpt>
      <trkpt lat="48.93782" lon="7.91233">
        <ele>168</ele>
        <time>2022-02-08T05:07:54Z</time>
      </trkpt>
      <trkpt lat="48.93792" lon="7.91234">
        <ele>167</ele>
        <time>2022-02-08T05:07:56Z</time>
      </trkpt>
      <trkpt lat="48.93806" lon="7.91242">
        <ele>166</ele>
        <time>2022-02-08T05:07:59Z</time>
      </trkpt>
      <trkpt lat="48.93858" lon="7.91292">
        <ele>161</ele>
        <time>2022-02-08T05:08:10Z</time>
      </trkpt>
      <trkpt lat="48.93888" lon="7.91312">
        <ele>157</ele>
        <time>2022-02-08T05:08:16Z</time>
      </trkpt>
      <trkpt lat="48.93972" lon="7.91352">
        <ele>149</ele>
        <time>2022-02-08T05:08:31Z</time>
      </trkpt>
      <trkpt lat="48.94026" lon="7.9139">
        <ele>145</ele>
        <time>2022-02-08T05:08:42Z</time>
      </trkpt>
      <trkpt lat="48.94039" lon="7.91394">
        <ele>145</ele>
        <time>2022-02-08T05:08:44Z</time>
      </trkpt>
      <trkpt lat="48.94092" lon="7.914">
        <ele>144</ele>
        <time>2022-02-08T05:08:54Z</time>
      </trkpt>
      <trkpt lat="48.94107" lon="7.91407">
        <ele>144</ele>
        <time>2022-02-08T05:08:57Z</time>
      </trkpt>
      <trkpt lat="48.94114" lon="7.91413">
        <ele>144</ele>
        <time>2022-02-08T05:08:58Z</time>
      </trkpt>
      <trkpt lat="48.94118" lon="7.91428">
        <ele>144</ele>
        <time>2022-02-08T05:09:00Z</time>
      </trkpt>
      <trkpt lat="48.94116" lon="7.91511">
        <ele>144</ele>
        <time>2022-02-08T05:09:10Z</time>
      </trkpt>
      <trkpt lat="48.9412" lon="7.91524">
        <ele>144</ele>
        <time>2022-02-08T05:09:11Z</time>
      </trkpt>
      <trkpt lat="48.9413" lon="7.91534">
        <ele>145</ele>
        <time>2022-02-08T05:09:13Z</time>
      </trkpt>
      <trkpt lat="48.94237" lon="7.91575">
        <ele>152</ele>
        <time>2022-02-08T05:09:33Z</time>
      </trkpt>
      <trkpt lat="48.9426" lon="7.916">
        <ele>153</ele>
        <time>2022-02-08T05:09:38Z</time>
      </trkpt>
      <trkpt lat="48.94353" lon="7.91731">
        <ele>163</ele>
        <time>2022-02-08T05:10:01Z</time>
      </trkpt>
      <trkpt lat="48.9437" lon="7.91746">
        <ele>164</ele>
        <time>2022-02-08T05:10:04Z</time>
      </trkpt>
      <trkpt lat="48.94387" lon="7.91757">
        <ele>165</ele>
        <time>2022-02-08T05:10:07Z</time>
      </trkpt>
      <trkpt lat="48.94452" lon="7.91788">
        <ele>165</ele>
        <time>2022-02-08T05:10:19Z</time>
      </trkpt>
      <trkpt lat="48.94581" lon="7.91856">
        <ele>162</ele>
        <time>2022-02-08T05:10:44Z</time>
      </trkpt>
      <trkpt lat="48.94594" lon="7.91857">
        <ele>161</ele>
        <time>2022-02-08T05:10:46Z</time>
      </trkpt>
      <trkpt lat="48.94605" lon="7.91852">
        <ele>161</ele>
        <time>2022-02-08T05:10:48Z</time>
      </trkpt>
      <trkpt lat="48.94615" lon="7.91843">
        <ele>161</ele>
        <time>2022-02-08T05:10:50Z</time>
      </trkpt>
      <trkpt lat="48.94765" lon="7.91681">
        <ele>167</ele>
        <time>2022-02-08T05:11:23Z</time>
      </trkpt>
      <trkpt lat="48.94844" lon="7.91601">
        <ele>169</ele>
        <time>2022-02-08T05:11:40Z</time>
      </trkpt>
      <trkpt lat="48.94927" lon="7.91531">
        <ele>172</ele>
        <time>2022-02-08T05:11:57Z</time>
      </trkpt>
      <trkpt lat="48.95046" lon="7.91441">
        <ele>176</ele>
        <time>2022-02-08T05:12:20Z</time>
      </trkpt>
      <trkpt lat="48.95055" lon="7.91444">
        <ele>176</ele>
        <time>2022-02-08T05:12:22Z</time>
      </trkpt>
      <trkpt lat="48.95068" lon="7.91454">
        <ele>175</ele>
        <time>2022-02-08T05:12:25Z</time>
      </trkpt>
      <trkpt lat="48.95084" lon="7.91444">
        <ele>176</ele>
        <time>2022-02-08T05:12:28Z</time>
      </trkpt>
      <trkpt lat="48.95124" lon="7.91394">
        <ele>178</ele>
        <time>2022-02-08T05:12:37Z</time>
      </trkpt>
      <trkpt lat="48.95132" lon="7.91392">
        <ele>178</ele>
        <time>2022-02-08T05:12:38Z</time>
      </trkpt>
      <trkpt lat="48.95162" lon="7.91364">
        <ele>180</ele>
        <time>2022-02-08T05:12:45Z</time>
      </trkpt>
      <trkpt lat="48.95173" lon="7.91384">
        <ele>178</ele>
        <time>2022-02-08T05:12:48Z</time>
      </trkpt>
      <trkpt lat="48.9518" lon="7.91387">
        <ele>178</ele>
        <time>2022-02-08T05:12:49Z</time>
      </trkpt>
      <trkpt lat="48.95181" lon="7.914">
        <ele>177</ele>
        <time>2022-02-08T05:12:50Z</time>
      </trkpt>
      <trkpt lat="48.95188" lon="7.91417">
        <ele>176</ele>
        <time>2022-02-08T05:12:53Z</time>
      </trkpt>
      <trkpt lat="48.95226" lon="7.91476">
        <ele>171</ele>
        <time>2022-02-08T05:13:02Z</time>
      </trkpt>
      <trkpt lat="48.95301" lon="7.91571">
        <ele>161</ele>
        <time>2022-02-08T05:13:20Z</time>
      </trkpt>
      <trkpt lat="48.95362" lon="7.91687">
        <ele>157</ele>
        <time>2022-02-08T05:13:37Z</time>
      </trkpt>
      <trkpt lat="48.95376" lon="7.91705">
        <ele>157</ele>
        <time>2022-02-08T05:13:40Z</time>
      </trkpt>
      <trkpt lat="48.95405" lon="7.91737">
        <ele>157</ele>
        <time>2022-02-08T05:13:47Z</time>
      </trkpt>
      <trkpt lat="48.95427" lon="7.91754">
        <ele>158</ele>
        <time>2022-02-08T05:13:51Z</time>
      </trkpt>
      <trkpt lat="48.95494" lon="7.91777">
        <ele>162</ele>
        <time>2022-02-08T05:14:03Z</time>
      </trkpt>
      <trkpt lat="48.95516" lon="7.91791">
        <ele>164</ele>
        <time>2022-02-08T05:14:08Z</time>
      </trkpt>
      <trkpt lat="48.95539" lon="7.91818">
        <ele>166</ele>
        <time>2022-02-08T05:14:13Z</time>
      </trkpt>
      <trkpt lat="48.95768" lon="7.92142">
        <ele>185</ele>
        <time>2022-02-08T05:15:08Z</time>
      </trkpt>
      <trkpt lat="48.95798" lon="7.92172">
        <ele>188</ele>
        <time>2022-02-08T05:15:15Z</time>
      </trkpt>
      <trkpt lat="48.95848" lon="7.92233">
        <ele>191</ele>
        <time>2022-02-08T05:15:26Z</time>
      </trkpt>
      <trkpt lat="48.95849" lon="7.92242">
        <ele>191</ele>
        <time>2022-02-08T05:15:27Z</time>
      </trkpt>
      <trkpt lat="48.95852" lon="7.92247">
        <ele>191</ele>
        <time>2022-02-08T05:15:28Z</time>
      </trkpt>
      <trkpt lat="48.95856" lon="7.9225">
        <ele>192</ele>
        <time>2022-02-08T05:15:29Z</time>
      </trkpt>
      <trkpt lat="48.95864" lon="7.92248">
        <ele>192</ele>
        <time>2022-02-08T05:15:30Z</time>
      </trkpt>
      <trkpt lat="48.95941" lon="7.92291">
        <ele>191</ele>
        <time>2022-02-08T05:15:45Z</time>
      </trkpt>
      <trkpt lat="48.9608" lon="7.92377">
        <ele>183</ele>
        <time>2022-02-08T05:16:12Z</time>
      </trkpt>
      <trkpt lat="48.961" lon="7.92392">
        <ele>182</ele>
        <time>2022-02-08T05:16:16Z</time>
      </trkpt>
      <trkpt lat="48.96135" lon="7.92422">
        <ele>179</ele>
        <time>2022-02-08T05:16:23Z</time>
      </trkpt>
      <trkpt lat="48.96153" lon="7.92444">
        <ele>178</ele>
        <time>2022-02-08T05:16:27Z</time>
      </trkpt>
      <trkpt lat="48.96241" lon="7.92581">
        <ele>173</ele>
        <time>2022-02-08T05:16:49Z</time>
      </trkpt>
      <trkpt lat="48.96275" lon="7.92629">
        <ele>172</ele>
        <time>2022-02-08T05:16:57Z</time>
      </trkpt>
      <trkpt lat="48.96333" lon="7.92687">
        <ele>173</ele>
        <time>2022-02-08T05:17:10Z</time>
      </trkpt>
      <trkpt lat="48.96399" lon="7.92735">
        <ele>175</ele>
        <time>2022-02-08T05:17:23Z</time>
      </trkpt>
      <trkpt lat="48.96559" lon="7.92842">
        <ele>183</ele>
        <time>2022-02-08T05:17:54Z</time>
      </trkpt>
      <trkpt lat="48.96595" lon="7.92872">
        <ele>184</ele>
        <time>2022-02-08T05:18:01Z</time>
      </trkpt>
      <trkpt lat="48.96632" lon="7.92897">
        <ele>184</ele>
        <time>2022-02-08T05:18:08Z</time>
      </trkpt>
      <trkpt lat="48.96642" lon="7.92908">
        <ele>185</ele>
        <time>2022-02-08T05:18:11Z</time>
      </trkpt>
      <trkpt lat="48.96643" lon="7.92915">
        <ele>185</ele>
        <time>2022-02-08T05:18:11Z</time>
      </trkpt>
      <trkpt lat="48.9665" lon="7.92922">
        <ele>185</ele>
        <time>2022-02-08T05:18:13Z</time>
      </trkpt>
      <trkpt lat="48.96656" lon="7.92921">
        <ele>185</ele>
        <time>2022-02-08T05:18:14Z</time>
      </trkpt>
      <trkpt lat="48.96659" lon="7.92918">
        <ele>185</ele>
        <time>2022-02-08T05:18:15Z</time>
      </trkpt>
      <trkpt lat="48.96672" lon="7.92918">
        <ele>185</ele>
        <time>2022-02-08T05:18:17Z</time>
      </trkpt>
      <trkpt lat="48.96742" lon="7.92945">
        <ele>184</ele>
        <time>2022-02-08T05:18:30Z</time>
      </trkpt>
      <trkpt lat="48.96766" lon="7.92964">
        <ele>183</ele>
        <time>2022-02-08T05:18:35Z</time>
      </trkpt>
      <trkpt lat="48.96818" lon="7.93014">
        <ele>179</ele>
        <time>2022-02-08T05:18:46Z</time>
      </trkpt>
      <trkpt lat="48.9697" lon="7.93146">
        <ele>174</ele>
        <time>2022-02-08T05:19:17Z</time>
      </trkpt>
      <trkpt lat="48.97105" lon="7.93282">
        <ele>172</ele>
        <time>2022-02-08T05:19:45Z</time>
      </trkpt>
      <trkpt lat="48.9716" lon="7.9335">
        <ele>171</ele>
        <time>2022-02-08T05:19:58Z</time>
      </trkpt>
      <trkpt lat="48.97192" lon="7.93394">
        <ele>169</ele>
        <time>2022-02-08T05:20:06Z</time>
      </trkpt>
      <trkpt lat="48.97277" lon="7.93535">
        <ele>162</ele>
        <time>2022-02-08T05:20:28Z</time>
      </trkpt>
      <trkpt lat="48.9732" lon="7.93592">
        <ele>160</ele>
        <time>2022-02-08T05:20:38Z</time>
      </trkpt>
      <trkpt lat="48.97332" lon="7.93612">
        <ele>159</ele>
        <time>2022-02-08T05:20:41Z</time>
      </trkpt>
      <trkpt lat="48.97378" lon="7.93665">
        <ele>157</ele>
        <time>2022-02-08T05:20:52Z</time>
      </trkpt>
      <trkpt lat="48.97404" lon="7.93684">
        <ele>156</ele>
        <time>2022-02-08T05:20:57Z</time>
      </trkpt>
      <trkpt lat="48.97483" lon="7.93731">
        <ele>154</ele>
        <time>2022-02-08T05:21:12Z</time>
      </trkpt>
      <trkpt lat="48.97497" lon="7.93746">
        <ele>154</ele>
        <time>2022-02-08T05:21:15Z</time>
      </trkpt>
      <trkpt lat="48.97504" lon="7.9375">
        <ele>154</ele>
        <time>2022-02-08T05:21:16Z</time>
      </trkpt>
      <trkpt lat="48.97525" lon="7.93757">
        <ele>154</ele>
        <time>2022-02-08T05:21:20Z</time>
      </trkpt>
      <trkpt lat="48.97617" lon="7.93803">
        <ele>155</ele>
        <time>2022-02-08T05:21:37Z</time>
      </trkpt>
      <trkpt lat="48.97772" lon="7.93859">
        <ele>168</ele>
        <time>2022-02-08T05:22:06Z</time>
      </trkpt>
      <trkpt lat="48.97836" lon="7.93896">
        <ele>175</ele>
        <time>2022-02-08T05:22:18Z</time>
      </trkpt>
      <trkpt lat="48.97884" lon="7.93937">
        <ele>174</ele>
        <time>2022-02-08T05:22:28Z</time>
      </trkpt>
      <trkpt lat="48.98029" lon="7.94084">
        <ele>178</ele>
        <time>2022-02-08T05:22:59Z</time>
      </trkpt>
      <trkpt lat="48.98078" lon="7.94128">
        <ele>178</ele>
        <time>2022-02-08T05:23:09Z</time>
      </trkpt>
      <trkpt lat="48.98118" lon="7.94161">
        <ele>178</ele>
        <time>2022-02-08T05:23:17Z</time>
      </trkpt>
      <trkpt lat="48.98145" lon="7.9418">
        <ele>178</ele>
        <time>2022-02-08T05:23:22Z</time>
      </trkpt>
      <trkpt lat="48.98173" lon="7.94194">
        <ele>178</ele>
        <time>2022-02-08T05:23:27Z</time>
      </trkpt>
      <trkpt lat="48.98195" lon="7.94202">
        <ele>177</ele>
        <time>2022-02-08T05:23:31Z</time>
      </trkpt>
      <trkpt lat="48.9821" lon="7.94204">
        <ele>177</ele>
        <time>2022-02-08T05:23:34Z</time>
      </trkpt>
      <trkpt lat="48.98294" lon="7.94204">
        <ele>179</ele>
        <time>2022-02-08T05:23:49Z</time>
      </trkpt>
      <trkpt lat="48.98353" lon="7.94214">
        <ele>183</ele>
        <time>2022-02-08T05:24:00Z</time>
      </trkpt>
      <trkpt lat="48.98411" lon="7.94237">
        <ele>185</ele>
        <time>2022-02-08T05:24:10Z</time>
      </trkpt>
      <trkpt lat="48.98535" lon="7.94305">
        <ele>185</ele>
        <time>2022-02-08T05:24:34Z</time>
      </trkpt>
      <trkpt lat="48.98557" lon="7.94325">
        <ele>185</ele>
        <time>2022-02-08T05:24:38Z</time>
      </trkpt>
      <trkpt lat="48.98665" lon="7.94454">
        <ele>184</ele>
        <time>2022-02-08T05:25:03Z</time>
      </trkpt>
      <trkpt lat="48.98695" lon="7.94498">
        <ele>184</ele>
        <time>2022-02-08T05:25:10Z</time>
      </trkpt>
      <trkpt lat="48.98731" lon="7.94569">
        <ele>184</ele>
        <time>2022-02-08T05:25:21Z</time>
      </trkpt>
      <trkpt lat="48.98799" lon="7.94727">
        <ele>180</ele>
        <time>2022-02-08T05:25:43Z</time>
      </trkpt>
      <trkpt lat="48.9884" lon="7.94827">
        <ele>178</ele>
        <time>2022-02-08T05:25:56Z</time>
      </trkpt>
      <trkpt lat="48.98875" lon="7.94931">
        <ele>174</ele>
        <time>2022-02-08T05:26:10Z</time>
      </trkpt>
      <trkpt lat="48.9889" lon="7.9496">
        <ele>173</ele>
        <time>2022-02-08T05:26:14Z</time>
      </trkpt>
      <trkpt lat="48.98908" lon="7.94982">
        <ele>172</ele>
        <time>2022-02-08T05:26:18Z</time>
      </trkpt>
      <trkpt lat="48.98964" lon="7.95021">
        <ele>169</ele>
        <time>2022-02-08T05:26:29Z</time>
      </trkpt>
      <trkpt lat="48.98994" lon="7.95029">
        <ele>167</ele>
        <time>2022-02-08T05:26:35Z</time>
      </trkpt>
      <trkpt lat="48.99033" lon="7.95048">
        <ele>166</ele>
        <time>2022-02-08T05:26:42Z</time>
      </trkpt>
      <trkpt lat="48.99078" lon="7.95078">
        <ele>165</ele>
        <time>2022-02-08T05:26:51Z</time>
      </trkpt>
      <trkpt lat="48.99112" lon="7.95107">
        <ele>165</ele>
        <time>2022-02-08T05:26:58Z</time>
      </trkpt>
      <trkpt lat="48.99135" lon="7.95122">
        <ele>165</ele>
        <time>2022-02-08T05:27:02Z</time>
      </trkpt>
      <trkpt lat="48.99164" lon="7.95136">
        <ele>166</ele>
        <time>2022-02-08T05:27:08Z</time>
      </trkpt>
      <trkpt lat="48.99238" lon="7.9516">
        <ele>165</ele>
        <time>2022-02-08T05:27:21Z</time>
      </trkpt>
      <trkpt lat="48.9925" lon="7.95167">
        <ele>165</ele>
        <time>2022-02-08T05:27:23Z</time>
      </trkpt>
      <trkpt lat="48.99313" lon="7.95222">
        <ele>163</ele>
        <time>2022-02-08T05:27:36Z</time>
      </trkpt>
      <trkpt lat="48.99395" lon="7.9525">
        <ele>160</ele>
        <time>2022-02-08T05:27:51Z</time>
      </trkpt>
      <trkpt lat="48.99406" lon="7.95259">
        <ele>159</ele>
        <time>2022-02-08T05:27:53Z</time>
      </trkpt>
      <trkpt lat="48.9944" lon="7.95298">
        <ele>158</ele>
        <time>2022-02-08T05:28:01Z</time>
      </trkpt>
      <trkpt lat="48.9949" lon="7.95344">
        <ele>156</ele>
        <time>2022-02-08T05:28:11Z</time>
      </trkpt>
      <trkpt lat="48.9953" lon="7.95427">
        <ele>155</ele>
        <time>2022-02-08T05:28:23Z</time>
      </trkpt>
      <trkpt lat="48.99544" lon="7.95447">
        <ele>155</ele>
        <time>2022-02-08T05:28:27Z</time>
      </trkpt>
      <trkpt lat="48.99577" lon="7.95482">
        <ele>156</ele>
        <time>2022-02-08T05:28:34Z</time>
      </trkpt>
      <trkpt lat="48.99617" lon="7.95509">
        <ele>156</ele>
        <time>2022-02-08T05:28:42Z</time>
      </trkpt>
      <trkpt lat="48.99637" lon="7.95527">
        <ele>155</ele>
        <time>2022-02-08T05:28:46Z</time>
      </trkpt>
      <trkpt lat="48.99651" lon="7.95533">
        <ele>155</ele>
        <time>2022-02-08T05:28:49Z</time>
      </trkpt>
      <trkpt lat="48.9965" lon="7.95544">
        <ele>155</ele>
        <time>2022-02-08T05:28:50Z</time>
      </trkpt>
      <trkpt lat="48.99652" lon="7.95555">
        <ele>155</ele>
        <time>2022-02-08T05:28:51Z</time>
      </trkpt>
      <trkpt lat="48.99656" lon="7.95562">
        <ele>155</ele>
        <time>2022-02-08T05:28:52Z</time>
      </trkpt>
      <trkpt lat="48.99751" lon="7.95706">
        <ele>157</ele>
        <time>2022-02-08T05:29:16Z</time>
      </trkpt>
      <trkpt lat="48.99764" lon="7.95724">
        <ele>157</ele>
        <time>2022-02-08T05:29:19Z</time>
      </trkpt>
      <trkpt lat="48.99799" lon="7.95763">
        <ele>156</ele>
        <time>2022-02-08T05:29:27Z</time>
      </trkpt>
      <trkpt lat="48.99943" lon="7.95881">
        <ele>158</ele>
        <time>2022-02-08T05:29:56Z</time>
      </trkpt>
      <trkpt lat="49.00102" lon="7.96019">
        <ele>158</ele>
        <time>2022-02-08T05:30:29Z</time>
      </trkpt>
      <trkpt lat="49.00126" lon="7.96031">
        <ele>159</ele>
        <time>2022-02-08T05:30:33Z</time>
      </trkpt>
      <trkpt lat="49.00265" lon="7.96088">
        <ele>161</ele>
        <time>2022-02-08T05:30:59Z</time>
      </trkpt>
      <trkpt lat="49.00338" lon="7.96137">
        <ele>164</ele>
        <time>2022-02-08T05:31:13Z</time>
      </trkpt>
      <trkpt lat="49.00476" lon="7.96255">
        <ele>174</ele>
        <time>2022-02-08T05:31:41Z</time>
      </trkpt>
      <trkpt lat="49.00546" lon="7.96308">
        <ele>179</ele>
        <time>2022-02-08T05:31:55Z</time>
      </trkpt>
      <trkpt lat="49.00668" lon="7.96433">
        <ele>186</ele>
        <time>2022-02-08T05:32:21Z</time>
      </trkpt>
      <trkpt lat="49.00837" lon="7.96562">
        <ele>174</ele>
        <time>2022-02-08T05:32:55Z</time>
      </trkpt>
      <trkpt lat="49.00847" lon="7.96558">
        <ele>174</ele>
        <time>2022-02-08T05:32:57Z</time>
      </trkpt>
      <trkpt lat="49.00887" lon="7.96583">
        <ele>172</ele>
        <time>2022-02-08T05:33:04Z</time>
      </trkpt>
      <trkpt lat="49.00917" lon="7.9662">
        <ele>170</ele>
        <time>2022-02-08T05:33:11Z</time>
      </trkpt>
      <trkpt lat="49.00964" lon="7.96696">
        <ele>167</ele>
        <time>2022-02-08T05:33:23Z</time>
      </trkpt>
      <trkpt lat="49.00976" lon="7.96709">
        <ele>168</ele>
        <time>2022-02-08T05:33:26Z</time>
      </trkpt>
      <trkpt lat="49.01011" lon="7.96738">
        <ele>168</ele>
        <time>2022-02-08T05:33:33Z</time>
      </trkpt>
      <trkpt lat="49.01094" lon="7.96789">
        <ele>167</ele>
        <time>2022-02-08T05:33:49Z</time>
      </trkpt>
      <trkpt lat="49.01233" lon="7.96857">
        <ele>169</ele>
        <time>2022-02-08T05:34:15Z</time>
      </trkpt>
      <trkpt lat="49.01295" lon="7.96897">
        <ele>168</ele>
        <time>2022-02-08T05:34:27Z</time>
      </trkpt>
      <trkpt lat="49.01313" lon="7.96903">
        <ele>168</ele>
        <time>2022-02-08T05:34:30Z</time>
      </trkpt>
      <trkpt lat="49.01436" lon="7.9691">
        <ele>168</ele>
        <time>2022-02-08T05:34:52Z</time>
      </trkpt>
      <trkpt lat="49.01492" lon="7.96905">
        <ele>167</ele>
        <time>2022-02-08T05:35:02Z</time>
      </trkpt>
      <trkpt lat="49.01511" lon="7.9689">
        <ele>167</ele>
        <time>2022-02-08T05:35:06Z</time>
      </trkpt>
      <trkpt lat="49.01555" lon="7.96877">
        <ele>166</ele>
        <time>2022-02-08T05:35:14Z</time>
      </trkpt>
      <trkpt lat="49.01633" lon="7.96842">
        <ele>165</ele>
        <time>2022-02-08T05:35:28Z</time>
      </trkpt>
      <trkpt lat="49.01765" lon="7.96771">
        <ele>164</ele>
        <time>2022-02-08T05:35:53Z</time>
      </trkpt>
      <trkpt lat="49.01811" lon="7.96743">
        <ele>162</ele>
        <time>2022-02-08T05:36:02Z</time>
      </trkpt>
      <trkpt lat="49.01872" lon="7.967">
        <ele>163</ele>
        <time>2022-02-08T05:36:14Z</time>
      </trkpt>
      <trkpt lat="49.01897" lon="7.96688">
        <ele>163</ele>
        <time>2022-02-08T05:36:19Z</time>
      </trkpt>
      <trkpt lat="49.02095" lon="7.96547">
        <ele>161</ele>
        <time>2022-02-08T05:36:57Z</time>
      </trkpt>
      <trkpt lat="49.0211" lon="7.96529">
        <ele>161</ele>
        <time>2022-02-08T05:37:01Z</time>
      </trkpt>
      <trkpt lat="49.0212" lon="7.96511">
        <ele>160</ele>
        <time>2022-02-08T05:37:04Z</time>
      </trkpt>
      <trkpt lat="49.02127" lon="7.9649">
        <ele>160</ele>
        <time>2022-02-08T05:37:06Z</time>
      </trkpt>
      <trkpt lat="49.02138" lon="7.96435">
        <ele>161</ele>
        <time>2022-02-08T05:37:13Z</time>
      </trkpt>
      <trkpt lat="49.02151" lon="7.96422">
        <ele>161</ele>
        <time>2022-02-08T05:37:16Z</time>
      </trkpt>
      <trkpt lat="49.02156" lon="7.96422">
        <ele>160</ele>
        <time>2022-02-08T05:37:17Z</time>
      </trkpt>
      <trkpt lat="49.02207" lon="7.96459">
        <ele>159</ele>
        <time>2022-02-08T05:37:27Z</time>
      </trkpt>
      <trkpt lat="49.02219" lon="7.96459">
        <ele>159</ele>
        <time>2022-02-08T05:37:29Z</time>
      </trkpt>
      <trkpt lat="49.02279" lon="7.96418">
        <ele>159</ele>
        <time>2022-02-08T05:37:41Z</time>
      </trkpt>
      <trkpt lat="49.02376" lon="7.96378">
        <ele>158</ele>
        <time>2022-02-08T05:37:59Z</time>
      </trkpt>
      <trkpt lat="49.0239" lon="7.9637">
        <ele>158</ele>
        <time>2022-02-08T05:38:01Z</time>
      </trkpt>
      <trkpt lat="49.02428" lon="7.96338">
        <ele>158</ele>
        <time>2022-02-08T05:38:09Z</time>
      </trkpt>
      <trkpt lat="49.02453" lon="7.96321">
        <ele>158</ele>
        <time>2022-02-08T05:38:14Z</time>
      </trkpt>
      <trkpt lat="49.02522" lon="7.96293">
        <ele>157</ele>
        <time>2022-02-08T05:38:26Z</time>
      </trkpt>
      <trkpt lat="49.02576" lon="7.96268">
        <ele>156</ele>
        <time>2022-02-08T05:38:37Z</time>
      </trkpt>
      <trkpt lat="49.02681" lon="7.96373">
        <ele>156</ele>
        <time>2022-02-08T05:38:59Z</time>
      </trkpt>
      <trkpt lat="49.0276" lon="7.96156">
        <ele>157</ele>
        <time>2022-02-08T05:39:28Z</time>
      </trkpt>
      <trkpt lat="49.02766" lon="7.96157">
        <ele>157</ele>
        <time>2022-02-08T05:39:29Z</time>
      </trkpt>
      <trkpt lat="49.02772" lon="7.9615">
        <ele>156</ele>
        <time>2022-02-08T05:39:30Z</time>
      </trkpt>
      <trkpt lat="49.02837" lon="7.96194">
        <ele>155</ele>
        <time>2022-02-08T05:39:43Z</time>
      </trkpt>
      <trkpt lat="49.0285" lon="7.96208">
        <ele>155</ele>
        <time>2022-02-08T05:39:46Z</time>
      </trkpt>
      <trkpt lat="49.0286" lon="7.96215">
        <ele>156</ele>
        <time>2022-02-08T05:39:48Z</time>
      </trkpt>
      <trkpt lat="49.0286" lon="7.96227">
        <ele>156</ele>
        <time>2022-02-08T05:39:49Z</time>
      </trkpt>
      <trkpt lat="49.02865" lon="7.96235">
        <ele>156</ele>
        <time>2022-02-08T05:39:50Z</time>
      </trkpt>
      <trkpt lat="49.02873" lon="7.96235">
        <ele>156</ele>
        <time>2022-02-08T05:39:52Z</time>
      </trkpt>
      <trkpt lat="49.02877" lon="7.96232">
        <ele>156</ele>
        <time>2022-02-08T05:39:53Z</time>
      </trkpt>
      <trkpt lat="49.0288" lon="7.96221">
        <ele>156</ele>
        <time>2022-02-08T05:39:54Z</time>
      </trkpt>
      <trkpt lat="49.02877" lon="7.9621">
        <ele>156</ele>
        <time>2022-02-08T05:39:55Z</time>
      </trkpt>
      <trkpt lat="49.02874" lon="7.96207">
        <ele>155</ele>
        <time>2022-02-08T05:39:56Z</time>
      </trkpt>
      <trkpt lat="49.02878" lon="7.96192">
        <ele>155</ele>
        <time>2022-02-08T05:39:58Z</time>
      </trkpt>
      <trkpt lat="49.03025" lon="7.95701">
        <ele>158</ele>
        <time>2022-02-08T05:41:01Z</time>
      </trkpt>
      <trkpt lat="49.03085" lon="7.95491">
        <ele>157</ele>
        <time>2022-02-08T05:41:28Z</time>
      </trkpt>
      <trkpt lat="49.03156" lon="7.95258">
        <ele>159</ele>
        <time>2022-02-08T05:41:58Z</time>
      </trkpt>
      <trkpt lat="49.03208" lon="7.95063">
        <ele>156</ele>
        <time>2022-02-08T05:42:22Z</time>
      </trkpt>
      <trkpt lat="49.03221" lon="7.95071">
        <ele>157</ele>
        <time>2022-02-08T05:42:25Z</time>
      </trkpt>
      <trkpt lat="49.03273" lon="7.95094">
        <ele>157</ele>
        <time>2022-02-08T05:42:34Z</time>
      </trkpt>
      <trkpt lat="49.03296" lon="7.95101">
        <ele>157</ele>
        <time>2022-02-08T05:42:38Z</time>
      </trkpt>
      <trkpt lat="49.03335" lon="7.95101">
        <ele>157</ele>
        <time>2022-02-08T05:42:45Z</time>
      </trkpt>
      <trkpt lat="49.03391" lon="7.95082">
        <ele>157</ele>
        <time>2022-02-08T05:42:56Z</time>
      </trkpt>
      <trkpt lat="49.03412" lon="7.95082">
        <ele>157</ele>
        <time>2022-02-08T05:42:59Z</time>
      </trkpt>
      <trkpt lat="49.03425" lon="7.95086">
        <ele>157</ele>
        <time>2022-02-08T05:43:02Z</time>
      </trkpt>
      <trkpt lat="49.03439" lon="7.95095">
        <ele>157</ele>
        <time>2022-02-08T05:43:04Z</time>
      </trkpt>
      <trkpt lat="49.0353" lon="7.95173">
        <ele>158</ele>
        <time>2022-02-08T05:43:23Z</time>
      </trkpt>
      <trkpt lat="49.03568" lon="7.95213">
        <ele>157</ele>
        <time>2022-02-08T05:43:31Z</time>
      </trkpt>
      <trkpt lat="49.03577" lon="7.95206">
        <ele>158</ele>
        <time>2022-02-08T05:43:33Z</time>
      </trkpt>
      <trkpt lat="49.03585" lon="7.95209">
        <ele>158</ele>
        <time>2022-02-08T05:43:34Z</time>
      </trkpt>
      <trkpt lat="49.03597" lon="7.95202">
        <ele>158</ele>
        <time>2022-02-08T05:43:37Z</time>
      </trkpt>
      <trkpt lat="49.03614" lon="7.95094">
        <ele>159</ele>
        <time>2022-02-08T05:43:50Z</time>
      </trkpt>
      <trkpt lat="49.03623" lon="7.95092">
        <ele>159</ele>
        <time>2022-02-08T05:43:51Z</time>
      </trkpt>
      <trkpt lat="49.03647" lon="7.94916">
        <ele>160</ele>
        <time>2022-02-08T05:44:12Z</time>
      </trkpt>
      <trkpt lat="49.03644" lon="7.94903">
        <ele>160</ele>
        <time>2022-02-08T05:44:14Z</time>
      </trkpt>
      <trkpt lat="49.03656" lon="7.94817">
        <ele>161</ele>
        <time>2022-02-08T05:44:24Z</time>
      </trkpt>
      <trkpt lat="49.03663" lon="7.94664">
        <ele>160</ele>
        <time>2022-02-08T05:44:42Z</time>
      </trkpt>
      <trkpt lat="49.03668" lon="7.94635">
        <ele>160</ele>
        <time>2022-02-08T05:44:45Z</time>
      </trkpt>
      <trkpt lat="49.03671" lon="7.94596">
        <ele>161</ele>
        <time>2022-02-08T05:44:50Z</time>
      </trkpt>
      <trkpt lat="49.03672" lon="7.94536">
        <ele>163</ele>
        <time>2022-02-08T05:44:57Z</time>
      </trkpt>
      <trkpt lat="49.03668" lon="7.94471">
        <ele>163</ele>
        <time>2022-02-08T05:45:05Z</time>
      </trkpt>
      <trkpt lat="49.03672" lon="7.94464">
        <ele>163</ele>
        <time>2022-02-08T05:45:06Z</time>
      </trkpt>
      <trkpt lat="49.03677" lon="7.94435">
        <ele>163</ele>
        <time>2022-02-08T05:45:09Z</time>
      </trkpt>
      <trkpt lat="49.0366" lon="7.94434">
        <ele>162</ele>
        <time>2022-02-08T05:45:12Z</time>
      </trkpt>
    </trkseg>
  </trk>
</gpx>